[[{"header":{"parameterUnit":"m.s-1","parameterCategory":1,"la1":30.6,"la2":29.2853,"lo1":-89.7004,"lo2":-87.6739,"dx":0.0162,"dy":0.0183,"nx":112,"ny":82,"refTime":"2023-02-03T06:00:00:Z","depth":0,"parameterNumber":2,"parameterNumberName":"U-component_of_WINDS"},"data":[0.0,0.0,0.0,0.0,0.0,0.0,0.0,0.0,0.0,0.0,0.0,0.0,0.0,0.0,0.0,0.0,0.0,0.0,0.0,0.0,0.0,0.0,0.0,0.0,0.0,0.0,0.0,0.0,0.0,0.0,0.0,0.0,0.0,0.0,0.0,0.0,0.0,0.0,0.0,0.0,0.0,0.0,0.0,0.0,0.0,0.0,0.0,0.0,0.0,0.0,0.0,0.0,0.0,0.0,0.0,0.0,0.0,0.0,0.0,0.0,0.0,0.0,0.0,0.0,0.0,0.0,0.0,0.0,0.0,0.0,0.0,0.0,0.0,0.0,0.0,0.0,0.0,0.0,0.0,0.0,0.0,0.0,0.0,0.0,0.0,0.0,0.0,0.0,0.0,0.0,2.1926,2.4396,2.7199,2.8421,2.7237,2.7992,2.7398,2.4721,0.0,0.0,0.0,0.0,0.0,0.0,0.0,0.0,0.0,0.0,0.0,0.0,0.0,0.0,0.0,0.0,0.0,0.0,0.0,0.0,0.0,0.0,0.0,0.0,0.0,0.0,0.0,0.0,0.0,0.0,0.0,0.0,0.0,0.0,0.0,0.0,0.0,0.0,0.0,0.0,0.0,0.0,0.0,0.0,0.0,0.0,0.0,0.0,0.0,0.0,0.0,0.0,0.0,0.0,0.0,0.0,0.0,0.0,0.0,0.0,0.0,0.0,0.0,0.0,0.0,0.0,0.0,0.0,0.0,0.0,0.0,0.0,0.0,0.0,0.0,0.0,0.0,0.0,0.0,0.0,0.0,0.0,0.0,0.0,0.0,0.0,0.0,0.0,0.0,0.0,0.0,0.0,0.0,0.0,0.0,0.0,0.0,0.0,0.0,0.0,0.0,0.0,0.0,0.0,2.2967,2.5921,2.7834,2.9088,2.9536,2.7957,2.6574,2.5707,0.0,0.0,0.0,0.0,0.0,0.0,0.0,0.0,0.0,0.0,0.0,0.0,0.0,0.0,0.0,0.0,0.0,0.0,0.0,0.0,0.0,0.0,0.0,0.0,0.0,0.0,0.0,0.0,0.0,0.0,0.0,0.0,0.0,0.0,0.0,0.0,0.0,0.0,0.0,0.0,0.0,0.0,0.0,0.0,0.0,0.0,0.0,0.0,0.0,0.0,0.0,0.0,0.0,0.0,0.0,0.0,0.0,0.0,0.0,0.0,0.0,0.0,0.0,0.0,0.0,0.0,0.0,0.0,0.0,0.0,0.0,0.0,0.0,0.0,0.0,0.0,0.0,0.0,0.0,0.0,0.0,0.0,0.0,0.0,0.0,0.0,0.0,0.0,0.0,0.0,0.0,0.0,0.0,0.0,0.0,0.0,0.0,0.0,0.0,0.0,0.0,0.0,0.0,2.3145,2.4383,2.5798,2.7332,2.8403,2.8772,2.695,2.5699,2.5483,2.4215,0.0,0.0,0.0,0.0,0.0,0.0,0.0,0.0,0.0,0.0,0.0,0.0,0.0,0.0,0.0,0.0,0.0,0.0,0.0,0.0,0.0,0.0,0.0,0.0,0.0,0.0,0.0,0.0,0.0,0.0,0.0,0.0,0.0,0.0,0.0,0.0,0.0,0.0,0.0,0.0,0.0,0.0,0.0,0.0,0.0,0.0,0.0,0.0,0.0,0.0,0.0,0.0,0.0,0.0,0.0,0.0,0.0,0.0,0.0,0.0,0.0,0.0,0.0,0.0,0.0,0.0,0.0,0.0,0.0,0.0,0.0,0.0,0.0,0.0,0.0,0.0,0.0,0.0,0.0,0.0,0.0,0.0,0.0,0.0,0.0,0.0,0.0,0.0,0.0,0.0,0.0,0.0,0.0,0.0,0.0,0.0,0.0,0.0,0.0,0.0,0.0,0.0,2.4635,2.5465,2.5658,2.6894,2.7631,2.7455,2.605,2.5056,2.4766,2.3139,0.0,0.0,0.0,0.0,0.0,0.0,0.0,0.0,0.0,0.0,0.0,0.0,0.0,0.0,0.0,0.0,0.0,0.0,0.0,0.0,0.0,0.0,0.0,0.0,0.0,0.0,0.0,0.0,0.0,0.0,0.0,0.0,0.0,0.0,0.0,0.0,0.0,0.0,0.0,0.0,0.0,0.0,0.0,0.0,0.0,0.0,0.0,0.0,0.0,0.0,0.0,0.0,0.0,0.0,0.0,0.0,0.0,0.0,0.0,0.0,0.0,0.0,0.0,0.0,0.0,0.0,0.0,0.0,0.0,0.0,0.0,0.0,0.0,0.0,0.0,0.0,0.0,0.0,0.0,0.0,0.0,0.0,0.0,0.0,0.0,0.0,0.0,0.0,0.0,0.0,0.0,0.0,0.0,0.0,0.0,0.0,0.0,0.0,0.0,0.0,0.0,0.0,2.4906,2.5693,2.6448,2.7227,2.742,2.6746,2.5872,2.4903,2.3779,2.2925,0.0,0.0,0.0,0.0,0.0,0.0,0.0,0.0,0.0,0.0,0.0,0.0,0.0,0.0,0.0,0.0,0.0,0.0,0.0,0.0,0.0,0.0,0.0,0.0,0.0,0.0,0.0,0.0,0.0,0.0,0.0,0.0,0.0,0.0,0.0,0.0,0.0,0.0,0.0,0.0,0.0,0.0,0.0,0.0,0.0,0.0,0.0,0.0,0.0,0.0,0.0,0.0,0.0,0.0,0.0,0.0,0.0,0.0,0.0,0.0,0.0,0.0,0.0,0.0,0.0,0.0,0.0,0.0,0.0,0.0,0.0,0.0,0.0,0.0,0.0,0.0,0.0,0.0,0.0,0.0,0.0,0.0,0.0,0.0,0.0,0.0,0.0,0.0,0.0,0.0,0.0,0.0,0.0,0.0,0.0,0.0,0.0,0.0,0.0,0.0,0.0,0.0,2.5004,2.5711,0.0,2.7155,2.722,2.6488,2.5409,2.4394,2.3466,0.0,0.0,0.0,0.0,0.0,0.0,0.0,0.0,0.0,0.0,0.0,0.0,0.0,0.0,0.0,0.0,0.0,0.0,0.0,0.0,0.0,0.0,0.0,0.0,0.0,0.0,0.0,0.0,0.0,0.0,0.0,0.0,0.0,0.0,0.0,0.0,0.0,0.0,0.0,0.0,0.0,0.0,0.0,0.0,0.0,0.0,0.0,0.0,0.0,0.0,0.0,0.0,0.0,0.0,0.0,0.0,0.0,0.0,0.0,0.0,0.0,0.0,0.0,0.0,0.0,0.0,0.0,0.0,0.0,0.0,0.0,0.0,0.0,0.0,0.0,0.0,0.0,0.0,0.0,0.0,0.0,0.0,0.0,0.0,0.0,0.0,0.0,0.0,0.0,0.0,0.0,0.0,0.0,0.0,0.0,0.0,0.0,0.0,0.0,0.0,0.0,0.0,2.4635,2.5145,2.5805,0.0,2.728,2.7071,2.6013,2.5123,2.4128,2.2989,0.0,0.0,0.0,0.0,0.0,0.0,0.0,0.0,0.0,0.0,0.0,0.0,0.0,0.0,0.0,0.0,0.0,0.0,0.0,0.0,0.0,0.0,0.0,0.0,0.0,0.0,0.0,0.0,0.0,0.0,0.0,0.0,0.0,0.0,0.0,0.0,0.0,0.0,0.0,0.0,0.0,0.0,0.0,0.0,0.0,0.0,0.0,0.0,0.0,0.0,0.0,0.0,0.0,0.0,0.0,0.0,0.0,0.0,0.0,0.0,0.0,0.0,0.0,0.0,0.0,0.0,0.0,0.0,0.0,0.0,0.0,0.0,0.0,0.0,0.0,0.0,0.0,0.0,0.0,0.0,0.0,0.0,0.0,0.0,0.0,0.0,0.0,0.0,0.0,0.0,0.0,0.0,0.0,0.0,0.0,0.0,0.0,0.0,0.0,0.0,0.0,0.0,2.5202,2.5395,2.5991,2.7526,2.7694,2.6975,2.525,2.5083,2.4224,0.0,0.0,0.0,0.0,0.0,0.0,0.0,0.0,0.0,0.0,0.0,0.0,0.0,0.0,0.0,0.0,0.0,0.0,0.0,0.0,0.0,0.0,0.0,0.0,0.0,0.0,0.0,0.0,0.0,0.0,0.0,0.0,0.0,0.0,0.0,0.0,0.0,0.0,0.0,0.0,0.0,0.0,0.0,0.0,0.0,0.0,0.0,0.0,0.0,0.0,0.0,0.0,0.0,0.0,0.0,0.0,0.0,0.0,0.0,0.0,0.0,0.0,0.0,0.0,0.0,0.0,0.0,0.0,0.0,0.0,0.0,0.0,0.0,0.0,0.0,0.0,0.0,0.0,0.0,0.0,0.0,0.0,0.0,0.0,0.0,0.0,0.0,0.0,0.0,0.0,0.0,0.0,0.0,0.0,0.0,0.0,0.0,0.0,0.0,0.0,0.0,0.0,0.0,2.5202,2.5233,2.5727,2.7329,2.7151,2.6303,2.4741,2.4429,2.3636,2.1989,0.0,0.0,0.0,0.0,0.0,0.0,0.0,0.0,0.0,0.0,0.0,0.0,0.0,0.0,0.0,0.0,0.0,0.0,0.0,0.0,0.0,0.0,0.0,0.0,0.0,0.0,0.0,0.0,0.0,0.0,0.0,0.0,0.0,0.0,0.0,0.0,0.0,0.0,0.0,0.0,0.0,0.0,0.0,0.0,0.0,0.0,0.0,0.0,0.0,0.0,0.0,0.0,0.0,0.0,0.0,0.0,0.0,0.0,0.0,0.0,0.0,0.0,0.0,0.0,0.0,0.0,0.0,0.0,0.0,0.0,0.0,0.0,0.0,0.0,0.0,0.0,0.0,0.0,0.0,0.0,0.0,0.0,0.0,0.0,0.0,0.0,0.0,0.0,0.0,0.0,0.0,0.0,0.0,0.0,0.0,0.0,0.0,0.0,0.0,0.0,0.0,0.0,2.5048,2.5037,2.5493,2.7075,2.6957,2.6243,2.4955,2.4426,2.3606,2.2326,0.0,0.0,0.0,0.0,0.0,0.0,0.0,0.0,0.0,0.0,0.0,0.0,0.0,0.0,0.0,0.0,0.0,0.0,0.0,0.0,0.0,0.0,0.0,0.0,0.0,0.0,0.0,0.0,0.0,0.0,0.0,0.0,0.0,0.0,0.0,0.0,0.0,0.0,0.0,0.0,0.0,0.0,0.0,0.0,0.0,0.0,0.0,0.0,0.0,0.0,0.0,0.0,0.0,0.0,0.0,0.0,0.0,0.0,0.0,0.0,0.0,0.0,0.0,0.0,0.0,0.0,0.0,0.0,0.0,0.0,0.0,0.0,0.0,0.0,0.0,0.0,0.0,0.0,0.0,0.0,0.0,0.0,0.0,0.0,0.0,0.0,0.0,0.0,0.0,0.0,0.0,0.0,0.0,0.0,0.0,0.0,0.0,0.0,0.0,0.0,0.0,0.0,2.4808,2.4856,2.5337,2.6803,2.7009,2.6604,2.5555,2.4789,2.3939,2.2964,0.0,0.0,0.0,0.0,0.0,0.0,0.0,0.0,0.0,0.0,0.0,0.0,0.0,0.0,0.0,0.0,0.0,0.0,0.0,0.0,0.0,0.0,0.0,0.0,0.0,0.0,0.0,0.0,0.0,0.0,0.0,0.0,0.0,0.0,0.0,0.0,0.0,0.0,0.0,0.0,0.0,0.0,0.0,0.0,0.0,0.0,0.0,0.0,0.0,0.0,0.0,0.0,0.0,0.0,0.0,0.0,0.0,0.0,0.0,0.0,2.1234,0.0,0.0,0.0,0.0,0.0,0.0,0.0,0.0,0.0,0.0,0.0,0.0,0.0,0.0,0.0,0.0,0.0,0.0,0.0,0.0,0.0,0.0,0.0,0.0,0.0,0.0,0.0,0.0,0.0,0.0,0.0,0.0,0.0,0.0,0.0,0.0,0.0,0.0,0.0,0.0,0.0,2.4787,2.5145,2.5621,2.6581,2.7015,2.6672,2.5295,2.4506,2.375,2.2948,2.2203,0.0,0.0,0.0,0.0,0.0,0.0,0.0,0.0,0.0,0.0,0.0,0.0,0.0,0.0,0.0,0.0,0.0,0.0,0.0,0.0,0.0,0.0,0.0,0.0,0.0,0.0,0.0,0.0,0.0,0.0,0.0,0.0,0.0,0.0,0.0,0.0,0.0,0.0,0.0,0.0,0.0,0.0,0.0,0.0,0.0,0.0,0.0,0.0,0.0,0.0,0.0,0.0,0.0,0.0,0.0,0.0,0.0,0.0,0.0,0.0,2.1899,0.0,0.0,0.0,0.0,0.0,0.0,0.0,0.0,0.0,0.0,0.0,0.0,0.0,0.0,0.0,0.0,0.0,0.0,0.0,0.0,0.0,0.0,0.0,0.0,0.0,0.0,0.0,0.0,0.0,0.0,0.0,0.0,0.0,0.0,0.0,0.0,0.0,0.0,0.0,0.0,2.5468,2.5453,2.5697,2.6825,2.7149,2.6851,2.5714,2.5284,2.4737,2.4,2.3255,0.0,0.0,0.0,0.0,0.0,0.0,0.0,0.0,0.0,0.0,0.0,0.0,0.0,0.0,0.0,0.0,0.0,0.0,0.0,0.0,0.0,0.0,0.0,0.0,0.0,0.0,0.0,0.0,0.0,0.0,0.0,0.0,0.0,0.0,0.0,0.0,0.0,0.0,0.0,0.0,0.0,0.0,0.0,0.0,0.0,0.0,0.0,0.0,0.0,0.0,0.0,0.0,0.0,2.1869,2.1832,2.1689,2.25,2.2867,2.281,2.2539,2.2265,2.1987,0.0,0.0,0.0,0.0,0.0,0.0,0.0,0.0,0.0,0.0,0.0,0.0,0.0,0.0,0.0,0.0,0.0,0.0,0.0,0.0,0.0,0.0,0.0,0.0,0.0,2.388,2.39,0.0,0.0,0.0,0.0,0.0,0.0,0.0,0.0,0.0,0.0,0.0,0.0,2.6051,2.5829,2.5997,2.7348,2.7597,2.7332,2.6459,2.6277,2.5896,2.5151,2.4414,2.4,0.0,0.0,0.0,0.0,0.0,0.0,0.0,0.0,0.0,0.0,0.0,0.0,0.0,0.0,0.0,0.0,0.0,0.0,0.0,0.0,0.0,0.0,0.0,0.0,0.0,0.0,0.0,0.0,0.0,0.0,0.0,0.0,1.9941,2.0699,0.0,0.0,0.0,0.0,0.0,0.0,0.0,0.0,0.0,0.0,0.0,0.0,0.0,0.0,2.1332,2.1973,2.2346,2.2475,2.2938,2.3146,2.3139,2.3438,2.3471,2.3319,2.363,0.0,2.2716,2.2053,0.0,0.0,0.0,0.0,0.0,0.0,0.0,0.0,0.0,0.0,0.0,0.0,0.0,0.0,0.0,0.0,0.0,0.0,0.0,0.0,0.0,0.0,2.3253,2.4539,2.4895,2.4911,0.0,2.4444,2.4236,2.4314,0.0,0.0,0.0,0.0,0.0,0.0,0.0,0.0,2.5405,2.6404,2.7332,2.816,2.878,2.8588,2.7265,2.6568,2.5896,2.5151,2.4414,2.4,2.4,2.4,0.0,0.0,0.0,0.0,0.0,0.0,0.0,0.0,0.0,0.0,0.0,0.0,0.0,0.0,0.0,0.0,0.0,0.0,0.0,0.0,0.0,0.0,0.0,0.0,0.0,0.0,0.0,0.0,0.0,1.9143,2.0052,2.0723,2.0802,2.0802,0.0,0.0,0.0,0.0,0.0,0.0,0.0,0.0,0.0,2.1655,2.2164,2.2399,2.2306,2.3039,2.3443,2.3505,2.4115,2.4427,2.4482,2.4947,2.5206,2.5255,2.5391,2.5274,2.4851,2.3126,2.2418,2.2385,0.0,0.0,0.0,0.0,0.0,2.2499,2.2998,0.0,0.0,0.0,0.0,0.0,0.0,0.0,0.0,0.0,0.0,0.0,0.0,0.0,0.0,2.608,2.6643,2.6958,2.6958,2.6774,2.6148,0.0,2.4536,2.4646,2.4316,0.0,0.0,0.0,0.0,2.5675,2.6937,2.7579,2.8194,2.8896,2.9224,2.9003,2.7995,2.7621,2.7124,2.6378,2.564,2.5234,2.5234,2.5234,2.5035,0.0,0.0,0.0,0.0,0.0,0.0,0.0,0.0,0.0,0.0,0.0,0.0,0.0,0.0,0.0,0.0,0.0,0.0,0.0,0.0,0.0,0.0,0.0,0.0,0.0,0.0,0.0,0.0,1.9443,2.0052,2.0723,2.0802,2.0802,0.0,0.0,0.0,0.0,0.0,0.0,2.1294,2.1965,2.242,2.2552,2.308,2.3465,2.3631,2.4321,2.4691,2.4738,2.5379,2.5743,2.5846,2.6356,2.6687,2.6878,2.6874,2.6844,2.6615,2.4265,2.3284,2.3226,2.2557,2.2283,2.239,2.3173,2.3454,2.357,2.4307,2.4555,2.4522,2.4328,0.0,2.4647,2.3513,0.0,0.0,0.0,0.0,2.4783,2.5665,0.0,2.6717,2.7621,2.826,2.8714,2.8896,2.8946,2.8184,0.0,2.5574,2.5706,2.497,0.0,0.0,0.0,0.0,2.7164,2.826,2.8558,2.893,2.9605,2.9678,2.9407,2.8714,2.8664,2.8276,2.7358,2.6776,2.6393,2.6211,2.6211,2.5937,2.54,0.0,0.0,0.0,0.0,0.0,0.0,0.0,0.0,0.0,0.0,0.0,0.0,0.0,0.0,0.0,0.0,0.0,0.0,0.0,0.0,0.0,0.0,0.0,0.0,0.0,0.0,0.0,0.0,0.0,2.0723,2.0802,0.0,0.0,0.0,0.0,2.0802,2.1451,2.1846,2.1854,2.262,2.3272,2.3781,2.4022,2.4448,2.5099,2.5641,2.6016,2.6198,2.6735,2.7116,2.7294,2.7332,2.7342,2.7379,2.7555,2.7535,2.7203,2.5164,2.4317,2.427,2.379,2.3596,2.3711,2.4645,2.4986,2.5085,2.5821,2.6095,2.6194,2.686,2.6781,2.6218,2.527,2.4766,0.0,0.0,2.5171,2.564,2.6883,2.7225,2.7597,2.8969,2.9324,2.9539,3.0251,3.039,2.9953,0.0,2.821,2.7995,2.7258,0.0,2.772,2.636,2.7372,2.8326,2.8392,2.8953,2.9638,3.0367,3.0439,3.0152,2.9407,2.9357,2.8754,2.7391,2.7275,2.6925,2.6227,2.6211,2.6169,2.6161,2.6145,0.0,0.0,0.0,0.0,0.0,0.0,0.0,0.0,0.0,0.0,0.0,0.0,0.0,0.0,0.0,0.0,0.0,0.0,0.0,0.0,0.0,0.0,0.0,0.0,0.0,0.0,0.0,0.0,2.1409,2.1853,0.0,2.2146,2.2146,2.2336,2.276,2.3045,2.3386,2.3863,2.4581,2.5047,2.524,2.5785,2.618,2.6424,2.7036,2.7395,2.7476,2.8085,2.8518,2.8745,2.8573,2.8596,2.8777,2.9141,2.9269,2.9116,2.7927,2.6788,2.5744,2.5107,2.4859,2.4949,2.577,2.6153,2.6355,2.7097,2.7465,2.7654,2.7912,2.7245,2.6334,2.6471,2.6436,2.6349,2.6481,2.6906,2.764,2.9006,2.9367,2.9731,3.1183,3.1885,3.2299,3.2564,3.263,3.2613,3.2591,3.0669,2.882,2.8127,2.8227,2.8227,2.7687,2.8423,2.9218,2.9698,3.0367,3.1095,3.1835,3.1493,3.1101,3.0837,2.9943,2.9003,2.8061,2.7564,2.6967,2.6227,2.6211,2.6141,2.6007,2.6132,2.6008,0.0,0.0,0.0,0.0,0.0,0.0,0.0,0.0,0.0,0.0,0.0,0.0,0.0,0.0,0.0,0.0,0.0,0.0,0.0,0.0,0.0,0.0,0.0,0.0,0.0,0.0,2.2,2.2458,2.2934,2.3332,2.3578,2.361,2.3799,2.4239,2.4482,2.4823,2.5318,2.5993,2.6467,2.6704,2.7404,2.7767,2.7767,2.8695,2.9027,2.8817,2.9738,3.0137,3.0079,3.0141,3.0149,3.0095,3.0406,3.054,3.0492,2.9769,2.8953,2.8025,2.6669,2.6137,2.6243,2.7016,2.7541,2.8019,2.8979,2.9331,2.9374,2.9533,2.8803,2.7931,2.8164,2.848,2.8747,2.8747,2.946,3.0487,3.1675,3.1973,3.2221,3.321,3.3635,3.3867,3.4116,3.3983,3.395,3.443,3.2564,3.0593,2.9632,3.0089,3.0255,2.9261,3.0112,3.0963,3.1211,3.1675,3.2166,3.2641,3.2266,3.1874,3.1615,3.1162,3.0162,2.8508,2.8318,2.7625,2.6154,2.6343,2.6413,2.6267,2.6625,2.6702,2.6521,0.0,0.0,0.0,0.0,0.0,0.0,0.0,0.0,0.0,0.0,0.0,0.0,0.0,0.0,0.0,0.0,0.0,0.0,0.0,0.0,0.0,0.0,0.0,2.1925,2.1972,2.2485,2.3809,2.3983,2.4286,2.5011,2.5074,2.5074,2.5122,2.5719,2.6077,2.6135,2.6799,2.7478,2.8137,2.8794,2.9146,2.9177,3.0535,3.0907,3.0251,3.1659,3.1947,3.1258,3.1994,3.1947,3.1274,3.129,3.1305,3.1242,3.0603,3.0701,3.1033,2.8486,2.7497,2.7614,2.8479,2.9238,3.0062,3.1447,3.1614,3.1306,3.1788,3.163,3.111,3.0419,3.0887,3.1659,3.1653,3.2674,3.391,3.4655,3.4854,3.4854,3.4859,3.4357,3.4043,3.4771,3.4357,3.3861,3.39,3.3872,3.338,3.1879,3.3414,3.3856,3.0996,3.2398,0.0,3.2823,3.2724,3.274,3.2757,3.274,3.2431,3.1697,3.2917,3.2199,2.8648,2.9515,2.8893,2.6077,2.6634,2.7011,2.7011,2.7647,2.7903,2.7734,0.0,0.0,0.0,0.0,0.0,0.0,0.0,0.0,0.0,0.0,0.0,0.0,0.0,0.0,0.0,0.0,0.0,0.0,0.0,0.0,0.0,0.0,2.2629,2.2629,2.3499,2.4464,2.5319,2.5888,2.6298,2.6498,2.6514,2.6925,2.7894,2.7683,2.7968,2.8991,2.8731,2.8873,2.9591,2.9797,3.0133,3.0626,3.1551,3.1646,3.0939,3.2345,3.2658,3.201,3.2705,3.2914,3.2743,3.3245,3.3451,3.3419,3.3259,3.329,3.318,3.0485,2.9737,3.0168,3.043,3.0752,3.1249,3.2329,3.2259,3.1816,3.2478,3.2615,3.2504,3.2499,3.2546,3.2655,3.2849,3.282,3.2835,3.3383,3.3675,3.3901,3.4231,3.4569,3.4913,3.5325,3.5098,3.5102,3.6018,3.5597,3.4535,3.2707,3.2906,3.3039,3.2227,0.0,0.0,3.3453,3.3503,3.3701,3.4248,3.3817,3.3204,3.2459,3.2155,3.1101,2.9036,2.9043,2.8533,2.7253,2.7399,2.7512,2.7512,2.7558,2.785,0.0,0.0,0.0,0.0,0.0,0.0,0.0,0.0,0.0,0.0,0.0,0.0,0.0,0.0,0.0,0.0,0.0,0.0,0.0,0.0,0.0,0.0,2.3135,2.3989,2.458,2.5102,2.5782,2.6751,2.7257,2.7636,2.7909,2.8221,2.8711,2.9489,2.9469,2.9753,3.0587,3.0215,3.0184,3.0607,3.1188,3.1397,3.1211,3.28,3.2942,3.1681,3.3372,3.367,3.2737,3.3403,3.3577,0.0,3.3704,3.3878,3.3862,3.3575,3.3622,0.0,0.0,0.0,0.0,0.0,3.2292,3.2165,3.3182,3.295,3.2297,3.2925,3.3203,3.3251,3.3101,3.3465,3.389,3.3738,3.3819,3.4039,3.43,3.4502,3.4675,3.4961,3.5114,3.525,3.5404,3.516,3.5087,3.573,0.0,0.0,3.3648,3.4062,3.4232,3.3304,3.3685,3.4086,0.0,3.4084,3.4201,3.4521,3.418,3.3622,3.29,3.2621,0.0,0.0,0.0,2.9043,2.8029,2.7997,0.0,0.0,0.0,2.8473,0.0,0.0,0.0,0.0,2.8485,2.8637,0.0,0.0,0.0,0.0,0.0,0.0,0.0,0.0,0.0,0.0,0.0,0.0,0.0,0.0,0.0,0.0,2.4369,2.5729,2.713,2.683,2.6941,2.8184,2.8264,2.8505,2.9256,2.9864,3.0267,3.0425,3.0907,3.1242,3.1321,0.0,0.0,0.0,0.0,3.274,3.1558,3.4036,3.4318,3.2434,3.4444,3.4699,3.3435,3.4099,3.4112,3.3546,3.3546,3.3546,3.3482,3.2879,3.299,3.353,3.3356,3.3309,3.3372,3.3972,3.3548,0.0,0.0,0.0,0.0,3.3248,3.3575,3.3642,3.3045,3.3912,3.4975,3.4358,3.5062,3.5998,3.5974,3.5985,3.5998,3.5974,3.5525,3.5104,3.5147,3.4794,3.4426,3.4239,3.4312,3.4423,3.4448,3.5766,3.6142,3.4168,3.4984,0.0,3.4566,3.4448,3.4362,3.4126,0.0,0.0,3.3056,3.3582,3.2813,3.0158,3.0342,2.9966,2.8658,2.8531,2.8797,2.9432,2.9448,2.935,2.9098,2.9177,2.9225,2.9236,2.957,2.9744,0.0,0.0,0.0,0.0,0.0,0.0,0.0,0.0,0.0,0.0,0.0,0.0,0.0,0.0,0.0,2.5108,2.6135,2.7178,2.8514,2.9106,2.9481,2.9749,2.9268,2.9398,3.0674,3.0433,3.0678,3.1801,3.146,3.146,3.2054,3.2086,0.0,3.2882,3.3166,3.3435,3.3701,3.4239,3.4036,3.3119,0.0,0.0,3.4128,3.4871,3.5124,3.4984,3.4984,3.4984,3.4968,3.4855,3.4887,3.4873,3.3735,3.3309,3.3324,3.3451,3.3351,3.328,3.4047,3.3807,3.328,3.3891,3.4139,3.4202,3.4345,3.442,0.0,3.4629,3.4441,3.4149,3.3942,3.4032,3.4149,3.3942,3.4178,3.4518,3.475,3.4556,3.4444,3.4826,3.4336,3.3924,3.4138,3.4627,3.4861,3.4422,3.4615,3.4648,3.4229,3.4176,3.4163,3.4113,3.4101,3.3809,3.3056,3.299,3.2481,3.133,3.0644,3.0149,2.9867,2.9274,2.9025,2.9179,2.9179,2.9144,2.9098,2.9706,2.9987,2.9971,2.9471,2.9346,0.0,0.0,0.0,0.0,0.0,0.0,0.0,0.0,0.0,0.0,0.0,2.2067,0.0,0.0,2.4638,2.6704,2.7641,2.8589,2.9951,3.048,3.0433,2.9738,2.9947,3.0294,3.0654,3.103,3.1532,3.2257,3.2279,3.2408,3.2784,3.28,3.2958,3.3293,3.3625,3.3799,3.3799,3.4507,3.432,3.3309,3.4352,3.4478,3.3814,3.4178,3.4352,3.4352,3.4352,3.4352,3.4352,3.4352,3.4352,3.4273,3.3577,3.3735,3.4352,3.4352,3.4115,3.3846,3.4178,3.3862,3.3356,3.3688,3.3799,3.3825,3.4001,3.3919,3.3825,3.4001,3.3786,3.3464,3.3319,3.3652,3.3969,3.3839,3.4349,3.4883,3.5022,3.5047,3.5086,3.5224,3.4675,3.436,3.4857,3.4762,3.4531,3.4324,3.43,3.4201,3.3937,3.3899,3.3848,3.3707,3.3694,3.3553,3.3185,3.2749,3.2192,3.1443,3.0952,3.0701,3.0701,3.0358,3.014,3.014,3.014,3.014,3.014,3.0516,3.0701,3.0686,3.0077,3.0004,0.0,0.0,0.0,0.0,0.0,0.0,0.0,0.0,2.2295,2.2295,2.2826,2.3506,2.4182,2.4902,2.6045,2.7984,2.8747,2.954,3.0831,3.1018,3.0531,2.9256,3.0346,3.1037,3.0647,3.1627,3.2339,3.2481,3.2993,3.3309,3.3309,3.3419,3.3498,3.3498,3.4033,3.4036,3.3498,3.4494,3.4415,3.3309,3.3846,3.3814,3.3309,3.3309,3.3309,3.3309,3.3309,3.3372,3.3482,3.3356,3.3372,3.3482,3.3356,3.3988,3.4984,3.4984,3.462,3.4112,3.4112,3.383,3.3467,3.334,3.3482,3.3656,3.3388,3.3388,3.3498,3.3498,3.3498,3.353,3.3672,3.4099,3.451,3.451,3.5063,3.5631,3.5788,3.5862,3.5896,3.5814,3.5387,3.522,3.5808,3.5553,3.5072,3.4507,3.4303,3.4121,3.385,3.3696,3.3542,3.3322,3.3309,3.3309,3.3309,3.28,3.2231,3.1653,3.1404,3.1275,3.1275,3.1074,3.0945,3.0945,3.0945,3.0945,3.0945,3.1071,3.12,3.1275,3.1013,3.1012,1.6272,1.7175,1.8367,1.8762,2.027,2.1663,0.0,0.0,2.3676,2.3676,2.4264,2.497,2.5645,2.6372,2.7325,2.8751,2.9051,2.9378,3.0208,3.0303,3.0018,2.9193,3.0346,3.1428,3.2007,3.2209,3.256,3.3135,3.3261,3.3309,3.3309,3.3862,3.4191,3.4191,3.427,3.427,3.4191,3.3751,3.3467,3.3309,3.3372,3.3372,3.3309,3.3309,3.3309,3.3309,3.3309,3.364,3.413,3.3546,3.3656,3.4128,3.353,3.3403,3.353,3.353,3.3482,3.3419,3.3419,3.3751,3.4096,3.3498,3.4146,3.492,3.3672,3.3719,3.4191,3.4191,3.4191,3.4349,3.4997,3.5219,3.5282,3.5282,3.5791,3.647,3.7116,3.6768,3.6529,3.7131,3.6689,3.6245,3.6324,3.6813,3.6833,3.576,3.5051,3.4529,3.4272,3.371,3.3319,3.3309,3.3309,3.3309,3.3309,3.323,3.3151,3.3072,3.2123,3.157,3.157,3.0575,3.0059,3.0059,3.0059,3.0059,3.0059,3.0649,3.1154,3.1557,3.2104,3.1945,1.7739,1.8806,1.9966,2.0927,2.2122,2.3282,2.4097,2.4729,2.524,2.5667,2.6009,2.643,2.7099,2.7478,2.8126,0.0,2.9738,2.9975,3.0686,3.078,3.0358,2.9225,3.0346,3.1321,3.1618,3.2054,3.2576,3.3245,3.3309,3.3309,3.3309,3.3577,3.3719,3.3719,3.3719,3.3719,3.3719,3.3435,3.3309,3.3309,3.3309,3.3309,3.3309,3.3309,3.3309,3.3309,3.3309,3.3467,3.3704,3.3419,3.3704,3.4239,3.3561,3.3799,3.4415,3.3609,3.3546,3.3941,3.4367,3.4713,3.4966,3.5064,3.5236,3.5298,3.4699,3.4729,3.5015,3.541,3.5523,3.568,3.6436,3.691,3.7212,3.7212,3.7733,3.8302,3.8586,3.8428,3.8302,3.8586,3.8096,3.775,3.8129,3.8144,3.792,3.7438,3.6784,3.6123,3.5584,3.4936,3.451,3.451,3.413,3.4065,3.4494,3.3767,3.3309,3.3309,3.2853,3.2591,3.2591,3.1866,3.147,3.147,3.1198,3.1061,3.1061,3.1348,3.1582,3.1777,3.2064,3.2129,1.8936,2.0086,2.1224,2.2568,2.3695,2.475,2.5772,2.6293,2.6735,2.7273,2.7383,2.7525,2.8,2.7947,2.8232,2.9433,2.9623,2.986,3.0531,3.0468,2.9963,2.894,2.9726,3.0421,3.061,3.1646,3.2576,3.3245,3.3309,3.3309,3.3309,3.3309,3.3309,3.3309,3.3309,3.3309,3.3309,3.3309,3.3309,3.3309,3.3309,3.3403,3.3577,3.3783,3.3672,3.3324,3.3909,3.4162,3.4178,3.4367,3.4731,3.5108,3.4431,3.4778,3.5552,3.4541,3.4352,3.4681,3.5205,3.5521,3.5758,3.6249,3.6328,3.6216,3.6041,3.612,3.6358,3.6849,3.6991,3.7102,3.7653,3.8144,3.8445,3.827,3.8602,3.9044,3.9424,3.9202,3.906,3.9424,3.8965,3.8667,3.9188,3.889,3.8638,3.8795,3.8276,3.7519,3.652,3.5981,3.5679,3.5679,3.5393,3.5337,3.57,3.4585,3.377,3.3482,3.3123,3.2864,3.2755,3.2299,3.2047,3.2047,3.1708,3.1537,3.1537,3.1537,3.1609,3.1723,3.1723,3.1978,1.9284,2.0467,2.168,2.2877,2.4567,2.5945,2.5993,2.7051,2.8042,2.8074,2.8074,2.8074,2.8105,2.7573,2.7367,2.8047,2.8158,2.8395,2.9067,2.8604,2.8184,2.8137,2.8169,2.8458,0.0,3.1077,3.2576,3.3245,3.3309,3.3309,3.3309,3.3309,3.3309,3.3309,3.3309,3.3309,3.3309,3.3309,3.3309,3.3309,3.3309,3.364,3.4288,3.5013,3.4589,3.3419,3.5428,3.6298,3.6361,3.7084,3.7384,3.7321,3.6581,3.6329,3.6361,3.6314,3.5902,3.5377,3.5393,3.5837,3.6361,3.6393,3.7323,3.8271,3.7637,3.7891,3.8413,3.8429,3.8429,3.8445,3.846,3.8476,3.8349,3.7685,3.7542,3.7922,3.9218,3.8475,3.7938,3.925,3.8965,3.8543,3.8694,3.8754,3.8988,3.9591,3.9142,3.8184,3.6603,3.6377,3.6361,3.6361,3.699,3.7192,3.6615,3.5803,3.4919,3.3939,3.2664,3.1781,3.1379,3.091,3.0657,3.0657,3.0643,3.0643,3.0643,3.0643,3.0866,3.1322,3.1322,3.1523,0.0,0.0,2.4579,2.597,2.7565,2.8896,2.9347,2.9469,2.9354,2.8857,2.8052,2.7288,2.6799,2.6519,2.6598,2.732,2.781,2.8331,2.9004,2.892,2.8604,2.8153,2.8489,0.0,0.0,0.0,0.0,3.2592,3.304,3.3309,3.3309,3.3719,3.3751,3.3309,3.3719,3.4194,3.4683,3.4223,3.4681,3.6072,3.514,3.481,3.5013,3.432,3.4257,3.4731,3.5426,3.5981,3.6408,3.6676,3.7322,3.8049,3.6865,3.7244,3.835,3.7464,3.7275,3.7464,3.7464,3.7306,3.7275,3.8175,3.8476,3.8539,3.876,3.8981,3.9281,3.9771,3.955,3.9281,3.9771,3.9534,3.9108,3.8871,3.8823,3.895,3.9408,3.9139,3.8873,3.9014,3.9183,3.9321,3.9407,3.9491,3.93,3.8611,3.8943,3.878,3.7436,3.7655,3.7935,3.7935,3.7388,3.7291,3.7945,3.6474,3.5241,3.4531,3.3855,3.3156,3.2387,3.1791,3.1335,3.1073,3.0747,3.0598,3.0598,3.0598,3.0672,3.0836,3.1146,3.1379,2.1908,2.409,2.6378,2.8252,2.9647,3.0607,3.0796,3.0306,2.9595,2.8889,2.7478,2.6288,2.604,2.5588,2.5487,2.6224,2.6714,2.741,2.8573,2.8541,2.8494,2.8817,2.9232,2.969,0.0,0.0,0.0,3.2595,3.3056,3.3403,3.364,3.4334,3.4507,3.4067,3.4699,3.5284,3.5758,3.5284,3.5616,3.6736,3.6074,3.5631,3.5377,3.4715,3.4905,3.5789,3.6295,3.6739,3.7197,3.7686,3.8429,3.9155,3.8255,3.857,3.9392,3.8538,3.8333,3.846,3.8239,3.8017,3.8001,3.8871,3.8997,3.8934,3.9376,3.9503,3.9598,4.0072,3.9866,3.955,3.9803,3.9503,3.9076,3.8839,3.8791,3.8856,3.9141,3.9031,3.8779,3.8529,3.8767,3.8977,3.8857,3.9048,3.8863,3.7794,3.8543,3.8684,3.7247,3.782,3.8285,3.8107,3.7759,3.7689,3.8116,3.6657,3.5415,3.4706,3.4195,3.3456,3.2437,3.199,3.1529,3.1058,3.0747,3.0598,3.0598,3.0598,3.0598,3.0598,3.091,3.1131,2.3655,2.5503,2.716,2.9649,3.0768,3.1068,3.0366,2.9631,2.8877,2.8094,2.6377,2.5175,0.0,0.0,2.415,2.4932,2.5074,2.5824,2.7916,2.7652,2.8,0.0,0.0,0.0,0.0,0.0,0.0,3.3293,0.0,3.364,3.4334,3.5092,3.5519,3.5519,3.6154,3.6519,3.655,3.6598,3.6265,3.5567,3.617,3.6123,3.5535,3.6091,3.6408,3.6582,3.7876,3.8508,3.8713,4.0008,4.0577,4.0609,4.0561,4.0119,3.9503,3.9455,3.906,3.8397,3.7732,3.7922,3.8445,3.8492,3.8934,3.9455,3.9487,3.9503,3.9503,3.9503,3.9471,3.9297,3.8666,3.8461,3.824,3.7623,3.7451,3.7679,3.8429,3.8131,3.774,3.7845,3.7847,3.769,3.7233,3.762,3.7801,3.7205,3.796,3.7935,3.6186,3.6981,3.7524,3.707,3.801,3.8278,3.728,3.6421,3.5492,3.4508,3.3723,3.2769,3.1657,3.157,3.1266,3.067,3.0627,3.0598,3.0598,3.0598,3.0598,3.0598,3.0598,3.0836,2.5262,2.7876,3.0508,3.1212,3.1716,3.1706,3.0489,2.9631,2.8478,2.6251,2.5375,2.4726,2.3853,0.0,0.0,2.5535,2.6209,0.0,2.937,2.9524,0.0,3.0828,0.0,3.116,3.1706,3.2086,0.0,0.0,3.4049,3.4352,3.5092,3.6294,3.6958,3.6958,3.7622,3.8208,3.8697,3.925,3.8934,3.7717,3.737,3.7131,3.6926,3.6072,3.65,3.7955,3.7812,3.8634,4.0056,3.9866,4.0103,4.0546,3.9993,3.9677,3.9439,3.8934,3.865,3.8397,3.7732,3.7606,3.7843,3.8349,3.8618,3.8855,3.9345,3.9503,3.9503,3.9503,3.9139,3.8713,3.8539,3.7839,3.7125,3.6939,3.6971,3.71,3.7307,3.7578,3.767,3.7375,3.7675,3.7993,3.7916,3.7997,3.789,3.7342,3.7066,3.6889,3.6803,3.7417,3.7673,3.7197,3.7023,3.7023,3.7193,3.649,3.5796,3.5179,3.4712,3.4019,3.3026,3.2362,3.1776,3.1279,3.0829,3.0598,3.0598,3.0598,3.0598,3.0598,3.0598,3.0657,2.7076,2.9387,3.1646,3.2287,3.2135,3.1457,3.0038,2.8683,2.7214,2.5381,2.4505,2.403,2.3847,2.386,2.4166,0.0,0.0,0.0,2.8991,2.9528,3.0322,0.0,3.2379,0.0,3.2721,3.3559,3.4288,0.0,3.4792,3.5235,3.6262,3.7637,3.838,3.838,3.906,3.9598,3.9977,4.0688,4.0182,3.8492,3.8112,3.7607,3.7006,3.6531,3.7117,3.8476,0.0,3.895,4.0514,3.9487,3.9677,4.0514,3.9549,3.9141,3.8982,3.8372,3.8119,3.8002,3.7621,3.7495,3.7558,3.7938,3.827,3.8524,3.8586,3.8633,3.8633,3.8633,3.8181,3.7715,3.7715,3.725,3.6781,3.6781,3.7045,3.7313,3.7363,3.7642,3.7831,3.7611,3.7672,3.7831,3.8157,3.8175,3.8036,3.7731,3.7328,3.7083,3.7181,3.7409,3.7251,3.65,3.63,3.6148,3.5987,3.5602,3.5246,3.4985,3.4789,3.4323,3.352,3.2752,3.2065,3.151,3.0917,3.0598,3.0598,3.0598,3.0598,3.0598,3.0598,3.0598,2.8936,3.0476,3.1729,3.2851,3.2082,3.0674,2.9177,2.7357,2.5756,2.4891,2.3904,2.3515,2.4653,2.4413,2.4119,2.4283,0.0,2.5998,2.809,2.8952,3.0314,3.2866,3.3751,3.3972,3.3482,3.5143,3.6107,3.5709,3.5851,3.6483,3.77,3.895,3.9692,3.9771,4.0403,4.0688,4.0609,4.1194,4.0514,3.8618,3.8618,3.7987,3.6833,3.737,3.8049,3.876,0.0,0.0,4.0498,3.9076,3.9172,4.0101,3.9072,3.8497,3.8197,3.7748,3.7482,3.739,3.748,3.745,3.739,3.739,3.7846,3.8255,3.7594,3.739,3.739,3.739,3.7076,3.6724,3.6724,3.6837,3.6932,3.6932,3.7349,3.7779,3.789,3.7976,3.8053,3.8179,3.7781,3.7593,3.8115,3.8202,3.8202,3.8202,3.8095,3.7888,3.7473,3.7231,3.6665,3.5517,3.5759,3.5562,3.4491,3.4397,3.4397,3.4397,3.4397,3.4167,3.3632,3.2977,3.2322,3.1655,3.1032,3.067,3.0598,3.0598,3.0598,3.0598,3.0598,3.0598,3.0502,3.1812,3.2806,3.2337,3.1294,2.986,2.7894,2.6693,2.5471,2.3641,2.3999,2.4511,2.416,2.4486,2.5191,2.6356,2.6656,2.7462,2.9544,3.0417,3.1239,0.0,3.3069,3.364,3.4067,3.4999,0.0,0.0,0.0,3.8902,3.9139,3.9945,4.0656,4.1226,4.1368,4.1146,4.0609,4.0719,4.0293,3.9329,3.9329,3.9202,3.895,3.8523,3.9013,4.0151,0.0,0.0,4.0498,3.9076,3.8387,3.8183,3.7964,3.753,3.7002,3.6909,3.6863,3.6892,3.7345,3.721,3.6831,3.6831,3.7228,3.7563,3.7015,3.6831,3.6831,3.6831,3.6861,3.6874,3.6874,3.6964,3.7067,3.7067,3.7222,3.7397,3.7423,3.7809,3.8169,3.8206,3.8115,3.8086,3.8188,3.8202,3.8202,3.8202,3.8175,3.814,3.8043,3.7496,3.6665,3.5517,3.5479,3.5216,3.4472,3.4397,3.4397,3.4397,3.4397,3.4339,3.4254,3.3661,3.3022,3.2337,3.1684,3.1105,3.0598,3.0598,3.0598,3.0598,3.0598,3.0598,3.1368,3.2465,3.3122,3.2359,3.0874,2.9078,2.6993,2.5682,2.4539,2.3183,2.3711,2.4438,2.447,2.4764,2.5333,2.6356,2.653,2.7383,2.9856,3.0477,3.1334,3.3116,3.397,3.451,3.4839,3.6485,3.767,0.0,0.0,4.0435,4.0087,4.0735,4.1257,4.1589,4.1605,4.1447,4.1114,4.0767,4.0419,4.0072,3.9677,3.9329,3.8966,3.8997,3.9046,3.9046,3.8321,0.0,3.9578,3.8463,3.787,3.7637,3.7014,3.6738,3.6647,3.6101,3.6258,3.6708,3.6662,3.6507,3.6243,3.6006,3.6461,3.7044,3.6785,3.6754,3.6794,3.6794,3.6895,3.6991,3.6991,3.7104,3.7201,3.7201,3.7485,3.7781,3.7781,3.7999,3.8202,3.8202,3.8202,3.8202,3.8202,3.8202,3.8202,3.8202,3.8202,3.8202,3.8202,3.7886,3.7214,3.5988,3.5868,3.5459,3.447,3.4397,3.4397,3.4397,3.4397,3.4397,3.4397,3.3821,3.3342,3.3037,3.2018,3.1525,3.1584,3.0917,3.0757,3.1061,3.0742,3.0598,3.1842,3.2784,3.3103,3.2263,3.0575,2.8514,2.6293,2.4934,2.3907,2.3072,2.3559,2.4302,2.49,2.5122,2.5444,0.0,2.6356,2.7273,2.9639,3.035,3.1453,3.3606,3.4776,0.0,3.56,3.7844,0.0,0.0,0.0,0.0,4.083,4.1304,4.1605,4.1605,4.1605,4.1463,4.1162,4.0925,4.0656,4.0356,4.0087,3.9598,3.895,3.9235,3.8826,3.7949,3.8059,0.0,0.0,3.7667,3.731,3.7201,3.6173,3.6007,3.6274,3.5494,3.5704,3.6321,3.6023,3.5833,3.5721,3.5431,3.5879,3.6507,3.6414,3.645,3.6551,3.6701,3.6826,3.6962,3.711,3.7319,3.7491,3.7491,3.7854,3.8202,3.8202,3.8202,3.8202,3.8202,3.8202,3.8202,3.8202,3.8202,3.8202,3.8202,3.8202,3.8202,3.8202,3.8202,3.7767,3.6617,3.6519,3.6011,3.4719,3.4716,3.4687,3.4412,3.4528,3.4559,3.4397,3.3952,3.3634,3.3503,3.2485,3.2119,3.2497,3.1351,3.1105,3.1699,3.1076,3.0786,3.1955,3.2784,3.2977,3.165,3.0188,2.8388,2.5713,2.4995,2.4521,2.3183,2.3973,2.4916,2.4995,2.5497,2.6151,0.0,0.0,2.8205,2.9082,3.0888,3.2196,3.2449,0.0,0.0,3.6249,3.7686,0.0,0.0,0.0,0.0,4.1478,4.1573,4.1605,4.1605,4.1605,4.0988,3.9708,4.0893,4.0862,3.9613,4.083,4.1051,4.0372,3.9341,3.8803,3.8631,0.0,0.0,0.0,3.7064,3.6492,3.602,3.5477,3.5299,3.5332,3.5234,3.5267,3.5382,3.5769,3.5624,3.5332,3.5705,3.5897,3.5881,3.5478,3.5344,3.5475,3.6021,3.6263,3.6517,3.7128,3.7702,3.813,3.813,3.8159,3.8202,3.8202,3.8202,3.8202,3.8202,3.8202,3.8202,3.8202,3.8202,3.8202,3.8202,3.8202,3.8202,3.8202,3.8202,3.7955,3.7288,3.7215,3.6693,3.5421,3.5807,3.5616,3.447,3.4968,3.5041,3.4426,3.4339,3.4051,3.3518,3.3387,3.3051,3.2497,3.1771,3.1757,3.2395,3.1728,3.1423,3.1063,3.2455,3.2961,3.1558,2.9836,2.7889,2.5523,2.4669,2.4059,2.3104,2.403,2.4995,2.4995,2.5217,2.5766,2.6909,2.6957,0.0,2.9485,3.0117,3.1144,3.3243,3.4223,0.0,0.0,0.0,0.0,0.0,0.0,0.0,4.0956,4.1367,4.1431,4.1004,4.1399,4.1146,4.0166,4.0719,4.0353,3.9091,3.9654,3.9764,3.9482,3.8265,3.7714,3.7669,0.0,0.0,0.0,3.6553,3.6211,3.5463,3.5267,3.5201,3.5152,3.4837,3.492,3.5245,3.5513,3.5478,3.5358,3.5545,3.583,3.6098,3.5817,3.6089,3.6503,3.6752,3.7117,3.752,3.7781,3.8028,3.8202,3.8202,3.8202,3.8202,3.8202,3.8202,3.8202,3.8202,3.8202,3.8202,3.8202,3.8202,3.8202,3.8202,3.8202,3.8202,3.8202,3.8202,3.8115,3.7868,3.752,3.6939,3.6028,3.6156,3.5923,3.5055,3.5261,3.5099,3.4426,3.4397,3.4298,3.4051,3.369,3.3545,3.3643,3.2613,3.2454,3.3095,3.2409,3.2105,2.9394,3.116,3.2092,3.0879,2.9173,2.7241,2.5159,2.427,2.3708,2.304,2.403,2.4995,2.4995,2.5333,2.595,2.6941,2.6993,2.762,2.9607,2.9975,3.097,3.3417,0.0,3.5568,0.0,0.0,0.0,0.0,0.0,0.0,0.0,4.0609,4.0751,4.0293,4.0941,4.0877,3.9993,4.0388,3.9879,3.8491,3.8693,3.8612,3.8233,3.7222,3.6658,3.6462,0.0,0.0,0.0,3.5959,3.5847,3.5185,3.5036,3.497,3.492,3.4534,3.4769,3.5259,3.537,3.5392,3.5436,3.5625,3.5956,3.6328,3.642,3.6719,3.7056,3.7226,3.7738,3.8202,3.8202,3.8202,3.8202,3.8202,3.8202,3.8202,3.8202,3.8202,3.8202,3.8202,3.8202,3.8202,3.8202,3.8202,3.8202,3.8202,3.8202,3.8202,3.8202,3.8202,3.8202,3.8202,3.7825,3.7302,3.6646,3.6765,3.6519,3.5709,3.5839,3.5578,3.4733,3.4704,3.4603,3.4397,3.3978,3.3978,3.4397,3.3309,3.3122,3.3748,3.3093,3.2803,2.6941,2.8659,3.005,2.9315,2.8104,2.6562,2.4393,2.3913,2.3708,2.304,2.403,2.4995,2.4995,2.6145,2.7072,2.7099,2.821,2.9082,2.9114,3.0923,3.2276,0.0,0.0,3.5946,3.7369,0.0,0.0,0.0,0.0,0.0,0.0,3.9171,3.9518,3.9518,4.023,3.9945,3.8539,3.9898,3.9628,3.7715,3.846,3.8171,3.6991,3.645,3.5859,0.0,0.0,0.0,0.0,3.5201,3.5201,3.5152,3.4618,3.4414,3.4414,3.4397,3.4823,3.5409,3.5392,3.5392,3.5508,3.6098,3.6301,3.6431,3.7085,3.6838,3.646,3.7114,3.7738,3.8202,3.8202,3.8202,3.8202,3.8202,3.8202,3.8202,3.8202,3.8202,3.8202,3.8202,3.8202,3.8202,3.8202,3.8202,3.8202,3.8202,3.8202,3.8202,3.8202,3.8202,3.8202,3.8202,3.8202,3.7955,3.7327,3.7839,3.7651,3.6373,3.6925,3.6707,3.5436,3.5392,3.507,3.4412,3.4382,3.4382,3.4397,3.3792,3.3806,3.4368,3.3763,3.3489,2.4608,2.6103,2.7273,2.7041,2.5935,2.4608,2.348,2.3221,2.3158,2.2936,2.403,2.4995,2.4995,2.5365,2.5813,2.6277,2.7135,0.0,0.0,0.0,0.0,3.2816,3.6074,3.8191,0.0,0.0,0.0,0.0,0.0,0.0,0.0,3.827,3.8333,3.8792,3.9487,3.9408,3.8508,3.9077,3.8398,3.647,3.6848,3.6571,3.5744,3.5213,0.0,0.0,0.0,0.0,0.0,3.5037,3.4971,3.4635,3.4465,3.4675,3.5084,3.5084,3.5491,3.6069,3.6533,3.6693,3.6722,3.6925,3.7259,3.7564,3.736,3.7447,3.7651,3.7854,3.8057,3.8202,3.8202,3.8202,3.8202,3.8202,3.8202,3.8202,3.8202,3.8202,3.8202,3.8202,3.8202,3.8202,3.8202,3.8202,3.8202,3.8202,3.8202,3.8202,3.8202,3.8202,3.8202,3.8202,3.8202,3.813,3.7941,3.8086,3.7854,3.7041,3.7186,3.6722,3.545,3.5796,3.5503,3.4412,3.4852,3.4866,3.4397,3.4211,3.4211,3.4397,3.4196,3.4124,2.2736,2.4141,2.5209,2.5209,2.4356,2.3354,2.2684,2.2724,2.2898,2.2898,2.403,2.4995,2.4995,2.5428,2.5924,2.6356,0.0,0.0,0.0,0.0,0.0,3.3419,0.0,0.0,0.0,0.0,0.0,0.0,0.0,0.0,0.0,3.7732,3.7685,3.8112,3.8776,3.8807,3.8128,3.8294,3.7554,3.5897,3.585,3.5503,3.4887,3.4551,0.0,0.0,0.0,0.0,0.0,3.4754,3.4687,3.4397,3.4397,3.4806,3.5392,3.5392,3.5941,3.6751,3.7172,3.7302,3.7346,3.7578,3.7897,3.813,3.7752,3.7912,3.8202,3.8202,3.8202,3.8202,3.8202,3.8202,3.8202,3.8202,3.8202,3.8202,3.8202,3.8202,3.8202,3.8202,3.8202,3.8202,3.8202,3.8202,3.8202,3.8202,3.8202,3.8202,3.8202,3.8202,3.8202,3.8202,3.8202,3.8202,3.8202,3.8202,3.8043,3.7665,3.7651,3.7172,3.6159,3.6475,3.6083,3.4791,3.5203,3.507,3.4397,3.4397,3.4397,3.4397,3.4397,3.4397,0.0,2.2657,2.3629,2.3667,2.3212,2.2598,2.1956,2.2383,0.0,2.2898,2.403,2.5011,2.5059,2.6145,2.7041,2.7099,0.0,0.0,0.0,3.0373,0.0,0.0,3.6199,0.0,0.0,0.0,0.0,0.0,0.0,0.0,0.0,3.7495,3.7495,3.7495,3.8096,3.8113,3.745,3.753,3.6998,3.5833,3.5366,3.4887,3.4397,3.4397,0.0,0.0,0.0,0.0,0.0,3.4397,3.4397,3.4397,3.4441,3.4878,3.5465,3.5523,3.6304,3.7357,3.7357,3.7357,3.7462,3.8028,3.8202,3.8202,3.8202,3.8202,3.8202,3.8202,3.8202,3.8202,3.8202,3.8202,3.8202,3.8202,3.8202,3.8202,3.8202,3.8202,3.8202,3.8202,3.8202,3.8202,3.8202,3.8202,3.8202,3.8202,3.8202,3.8202,3.8202,3.8202,3.8202,3.8202,3.8202,3.8202,3.8202,3.8202,3.8202,3.8202,3.8202,3.7941,3.7331,3.7327,3.6751,3.5494,3.5465,3.5113,3.4397,3.4441,3.4441,3.4397,3.4397,3.4397,0.0,0.0,2.0881,2.1395,2.141,2.1245,0.0,2.2004,2.2898,2.2898,2.403,2.5159,2.5661,2.604,2.6451,0.0,0.0,2.8347,2.8347,0.0,0.0,3.3482,3.6327,0.0,0.0,0.0,0.0,0.0,0.0,0.0,0.0,3.7495,3.7495,3.7495,3.7653,3.7458,3.6892,3.6506,3.6,3.5365,3.4837,3.4517,3.4397,3.4397,0.0,0.0,0.0,0.0,3.4397,3.4397,3.4397,3.4441,3.4968,3.5549,3.6141,3.6664,3.7346,3.7984,3.7984,3.7984,3.8014,3.8159,3.8202,3.8202,3.8202,3.8202,3.8202,3.8202,3.8202,3.8202,3.8202,3.8202,3.8202,3.8202,3.8202,3.8202,3.8202,3.8202,3.8202,3.8202,3.8202,3.8202,3.8202,3.8202,3.8202,3.8202,3.8202,3.8202,3.8202,3.8202,3.8202,3.8202,3.8202,3.8202,3.8202,3.8202,3.8202,3.8202,3.8202,3.7941,3.7331,3.7738,3.7389,3.6112,3.6083,3.5532,3.4397,3.491,3.491,3.4397,3.4397,3.4397,0.0,2.055,2.0352,2.0699,2.0802,2.0802,2.0802,2.1656,2.2534,2.2835,2.3743,2.4792,2.5819,2.6009,2.633,0.0,2.7857,0.0,0.0,0.0,3.2358,3.3609,0.0,0.0,0.0,0.0,0.0,0.0,0.0,0.0,0.0,3.7495,3.7495,3.7495,3.7255,3.6983,3.6708,3.6165,3.5657,3.5185,3.4668,3.4397,3.4397,3.4397,0.0,0.0,0.0,0.0,3.4397,3.4397,3.4588,3.4878,3.5261,3.5956,3.678,3.6823,3.7418,3.8159,3.7883,3.797,3.8202,3.8202,3.8202,3.8202,3.8202,3.8202,3.8202,3.8202,3.8202,3.8202,3.8202,3.8202,3.8202,3.8202,3.8202,3.8202,3.8202,3.8202,3.8202,3.8202,3.8202,3.8202,3.8202,3.8202,3.8304,3.8609,3.8405,3.8318,3.8623,3.8391,3.8202,3.8202,3.8202,3.8202,3.8202,3.8202,3.8202,3.8202,3.8202,3.8057,3.7738,3.8028,3.7607,3.633,3.6301,3.5659,3.4397,3.507,3.5055,3.4397,3.4397,3.4397,2.0802,2.0802,2.0802,2.0802,2.0881,2.0976,2.0952,2.16,2.2367,2.2936,2.3591,2.4466,2.5761,2.6093,0.0,0.0,0.0,0.0,3.0461,3.0773,3.1694,3.4033,0.0,0.0,0.0,0.0,0.0,0.0,0.0,0.0,0.0,3.7432,3.7495,3.7495,3.6983,3.6662,3.6569,3.6054,3.556,3.507,3.4618,3.4397,3.4397,3.4397,3.4397,0.0,0.0,0.0,3.4397,3.4397,3.4733,3.5261,3.5363,3.6057,3.6954,3.6475,3.7056,3.7999,3.7593,3.7781,3.8202,3.8202,3.8202,3.8202,3.8202,3.8202,3.8202,3.8202,3.8202,3.8202,3.8202,3.8202,3.8202,3.8202,3.8202,3.8202,3.8202,3.8202,3.8202,3.8202,3.8202,3.8202,3.8202,3.8202,3.8434,3.9102,3.8725,3.8594,3.9247,3.8754,3.8362,3.8362,3.826,3.8202,3.8202,3.8202,3.8202,3.8202,3.8202,3.8202,3.8202,3.8202,3.7651,3.6489,3.653,3.5949,3.4687,3.536,3.5346,3.4687,3.4603,3.4559,2.0802,2.0802,2.0802,2.0802,2.1277,2.1726,2.1662,2.2657,2.3629,2.3724,2.4318,2.508,2.5866,2.6514,2.7194,0.0,0.0,3.0571,0.0,0.0,0.0,0.0,0.0,0.0,0.0,0.0,0.0,0.0,0.0,0.0,0.0,0.0,3.7495,3.7495,3.6983,3.6492,3.6039,3.5544,3.5037,3.4517,3.4448,3.4397,3.4397,3.4397,3.4397,0.0,0.0,3.4397,3.4397,3.4397,3.4455,3.4617,3.5189,3.5523,3.5738,3.6156,3.678,3.7506,3.7926,3.813,3.8202,3.8202,3.8202,3.8202,3.8202,3.8202,3.8202,3.8202,3.8202,3.8202,3.8202,3.8202,3.8202,3.8202,3.8202,3.8202,3.8202,3.8202,3.8202,3.8202,3.8202,3.8202,3.8202,3.8202,3.8434,3.9102,3.9117,3.9276,3.9886,3.9421,3.9044,3.9044,3.8536,3.8202,3.8202,3.8202,3.8202,3.8202,3.8202,3.8202,3.8202,3.8202,3.7868,3.7172,3.7651,3.7288,3.6025,3.6678,3.6664,3.6011,3.5491,3.5261,2.0802,2.0802,2.0802,2.0802,2.1047,2.1395,2.1765,2.235,2.3013,2.3746,2.4176,0.0,0.0,0.0,2.6962,2.8415,0.0,3.1675,0.0,0.0,0.0,0.0,0.0,0.0,0.0,0.0,0.0,0.0,0.0,0.0,0.0,0.0,3.7187,3.6542,3.6369,3.6023,3.5528,3.5021,3.4635,3.4397,3.4397,3.4397,3.4397,3.4397,3.4397,3.4397,0.0,3.4397,3.4397,3.4397,3.4617,3.4968,3.5276,3.561,3.597,3.6606,3.6823,3.691,3.7868,3.8202,3.8202,3.8202,3.8202,3.8202,3.8202,3.8202,3.8202,3.8202,3.8202,3.8202,3.8202,3.8202,3.8202,3.8202,3.8202,3.8202,3.8202,3.8202,3.8202,3.8202,3.7941,3.7825,3.8144,3.8202,3.8536,3.9538,3.9683,3.9915,4.0554,3.9799,3.9204,3.9204,3.8609,3.8072,3.7738,3.8014,3.8202,3.8202,3.8202,3.8202,3.8202,3.8202,3.7926,3.7317,3.7897,3.7578,3.6301,3.6965,3.6968,3.6301,3.6011,3.5709,2.0802,2.0802,2.0802,2.0802,2.0929,2.1284,2.2169,2.2501,2.3006,2.4371,0.0,0.0,0.0,2.6277,0.0,2.9047,3.1014,0.0,0.0,0.0,0.0,0.0,0.0,0.0,0.0,0.0,0.0,0.0,0.0,0.0,0.0,0.0,3.6586,3.5498,3.5491,3.5335,3.4978,3.4451,3.4269,3.4397,3.4397,3.4397,3.4397,3.4397,3.4397,3.4397,3.4397,3.4397,3.4397,3.4397,3.4704,3.5174,3.5174,3.5462,3.5949,3.678,3.6733,3.6489,3.7767,3.8202,3.8202,3.8202,3.8202,3.8202,3.8202,3.8202,3.8202,3.8202,3.8202,3.8202,3.8202,3.8202,3.8202,3.8202,3.8202,3.8202,3.8202,3.8202,3.8202,3.8202,3.7839,3.7709,3.8333,3.8434,3.887,4.0133,4.0321,4.0583,4.125,4.0205,3.9465,3.9625,3.8928,3.8246,3.7781,3.8028,3.8202,3.8202,3.8202,3.8202,3.8202,3.8202,3.7984,3.7535,3.797,3.7723,3.6751,3.7259,3.7259,3.6733,3.6606,3.6286,2.0802,2.0802,2.0802,2.0802,2.1308,2.2153,2.3455,2.4296,2.5175,2.6577,0.0,0.0,0.0,2.7067,2.8422,2.9876,3.1343,0.0,0.0,0.0,0.0,0.0,0.0,0.0,0.0,0.0,0.0,0.0,0.0,0.0,0.0,0.0,0.0,3.4798,0.0,3.4311,3.4263,3.3792,3.385,3.4397,3.4397,3.4397,3.4397,3.4397,3.4397,3.4397,3.4397,3.4397,3.4397,3.4397,3.4426,3.447,3.447,3.4501,3.4687,3.5923,3.6326,3.6489,3.7767,3.8202,3.8202,3.8202,3.8202,3.8202,3.8202,3.8202,3.8202,3.8202,3.8202,3.8202,3.8202,3.8202,3.8202,3.8202,3.8202,3.8202,3.8202,3.8202,3.8202,3.8202,3.8159,3.8347,3.9015,3.9131,3.9567,4.0829,4.1033,4.1265,4.1932,4.0858,4.0263,4.0902,3.9857,3.9117,3.9073,3.8536,3.8202,3.8202,3.8202,3.8202,3.8202,3.8202,3.8188,3.8144,3.8188,3.8159,3.8072,3.8115,3.8115,3.8057,3.7491,3.7201,2.0802,2.0802,2.0802,2.0802,2.1008,0.0,0.0,2.447,2.527,2.6214,2.6893,0.0,0.0,0.0,2.9047,3.0034,0.0,0.0,0.0,0.0,0.0,0.0,0.0,0.0,0.0,0.0,0.0,0.0,0.0,0.0,0.0,0.0,0.0,3.361,0.0,3.406,3.3783,3.3602,3.3806,3.4397,3.4397,3.4397,3.4397,3.4397,3.4397,3.4397,3.4397,3.4397,3.4397,3.4397,3.4397,3.4397,3.4397,3.4397,3.4499,3.5418,3.5967,3.6428,3.7331,3.7897,3.8202,3.8202,3.8202,3.8202,3.8202,3.8202,3.8202,3.8202,3.8202,3.8202,3.8202,3.8202,3.8202,3.8202,3.8202,3.8202,3.8202,3.8202,3.8202,3.8202,3.8202,3.8405,3.9088,3.9509,4.006,4.096,4.1453,4.1802,4.2063,4.1279,4.0815,4.1076,3.9581,3.8754,3.916,3.8246,3.7796,3.8188,3.8202,3.8202,3.8202,3.8202,3.8202,3.8202,3.8202,3.8202,3.8202,3.8202,3.8202,3.8202,3.797,3.7665,2.0802,2.0802,2.0802,2.0802,2.0976,0.0,2.3765,2.4802,2.5713,2.7062,2.7742,2.7963,2.7494,0.0,0.0,0.0,0.0,0.0,0.0,0.0,0.0,0.0,0.0,0.0,0.0,0.0,0.0,0.0,0.0,0.0,0.0,0.0,0.0,0.0,0.0,3.32,3.2862,3.2862,3.318,3.3802,3.3802,3.4005,3.4397,3.4397,3.4397,3.4397,3.4397,3.4397,3.4397,3.4397,3.4397,3.4397,3.4397,3.4397,3.4486,3.5142,3.5781,3.6402,3.707,3.7709,3.8202,3.8202,3.8202,3.8202,3.8202,3.8202,3.8202,3.8202,3.8202,3.8202,3.8202,3.8202,3.8202,3.8202,3.8202,3.8202,3.8202,3.8376,3.8522,3.8522,3.8667,3.9015,3.9683,4.0133,4.0641,4.1308,4.1802,4.2092,4.2092,4.1512,4.1091,4.1091,3.9712,3.8986,3.945,3.8507,3.8086,3.8492,3.8522,3.842,3.8217,3.8202,3.8202,3.8202,3.8202,3.8202,3.8202,3.8202,3.8202,3.8202,3.8202,3.7984,2.0802,2.0802,2.0802,2.0818,0.0,0.0,2.4537,2.5513,2.6783,2.9607,2.9085,2.8121,2.8121,2.8668,0.0,0.0,0.0,0.0,0.0,0.0,0.0,0.0,0.0,0.0,0.0,0.0,0.0,0.0,0.0,0.0,0.0,0.0,0.0,0.0,0.0,0.0,3.151,3.151,3.1844,3.2497,3.2497,3.3164,3.4382,3.4382,3.4382,3.4397,3.4397,3.4397,3.4397,3.4397,3.4397,3.4397,3.4397,3.4397,3.4486,3.5142,3.5781,3.6402,3.707,3.7709,3.8202,3.8202,3.8202,3.8202,3.8202,3.8202,3.8202,3.8202,3.8202,3.8202,3.8202,3.8202,3.8202,3.8202,3.8202,3.8202,3.8202,3.8725,3.9189,3.9204,3.9683,4.0307,4.0974,4.1105,4.1323,4.199,4.2092,4.2092,4.2092,4.1512,4.1105,4.1105,4.051,4.0104,4.0104,3.9567,3.9218,3.9218,3.9218,3.8913,3.8246,3.8202,3.8202,3.8202,3.8202,3.8202,3.8202,3.8202,3.8202,3.8202,3.8202,3.8202,2.0802,2.0802,2.0929,2.1442,0.0,0.0,0.0,2.5481,0.0,0.0,2.9501,2.9417,2.8905,0.0,0.0,0.0,0.0,0.0,0.0,0.0,0.0,0.0,0.0,0.0,0.0,0.0,0.0,0.0,0.0,0.0,0.0,0.0,0.0,0.0,0.0,0.0,3.151,3.151,3.1844,3.2497,3.2018,3.2498,3.3763,3.3763,3.3993,3.4397,3.4397,3.4397,3.4397,3.4397,3.4397,3.4397,3.4397,3.4397,3.4486,3.5142,3.5781,3.6402,3.707,3.7709,3.8202,3.8202,3.8202,3.8202,3.8202,3.8202,3.8202,3.8202,3.8202,3.8202,3.8202,3.8202,3.8202,3.8202,3.8202,3.8202,3.8202,3.8362,3.8638,3.9117,3.9683,4.0307,4.0974,4.1482,4.186,4.2063,4.2092,4.2092,4.2092,4.1918,4.1802,4.1802,4.1192,4.08,4.08,4.0205,3.9828,3.9828,3.9828,3.9552,3.8928,3.8449,3.8202,3.8202,3.8202,3.8202,3.8202,3.8202,3.8202,3.8202,3.8202,3.8202,2.0802,2.1015,2.1331,2.1749,2.2794,2.4132,2.5645,0.0,0.0,0.0,2.9836,2.9801,2.9904,0.0,0.0,0.0,0.0,0.0,0.0,0.0,0.0,0.0,0.0,0.0,0.0,0.0,0.0,0.0,0.0,0.0,0.0,0.0,0.0,0.0,0.0,0.0,3.1134,3.1134,3.1351,3.1743,3.1337,3.1685,3.2732,3.3271,3.369,3.4051,3.4312,3.4397,3.4397,3.4397,3.4397,3.4397,3.4397,3.4397,3.4441,3.4852,3.5404,3.5999,3.642,3.6939,3.7447,3.7447,3.7636,3.7839,3.7839,3.8014,3.8202,3.8202,3.8202,3.8202,3.8202,3.8202,3.8202,3.8202,3.8202,3.8202,3.8202,3.8405,3.8797,3.9436,4.006,4.0713,4.1381,4.1831,4.2092,4.2092,4.2092,4.2092,4.2092,4.2092,4.2092,4.2092,4.1497,4.1091,4.1091,4.0728,4.0495,4.0495,4.0495,4.0205,3.9581,3.8942,3.8463,3.8202,3.8202,3.8202,3.8202,3.8202,3.8202,3.8202,3.8202,3.8202,2.0802,2.134,2.19,2.1899,2.3559,0.0,2.604,2.8169,3.0176,3.0784,0.0,2.9667,3.0879,0.0,0.0,0.0,0.0,0.0,0.0,0.0,0.0,0.0,0.0,0.0,0.0,0.0,0.0,0.0,0.0,0.0,0.0,0.0,0.0,0.0,0.0,0.0,3.0598,3.0598,3.0598,0.0,3.0598,3.0888,3.1467,3.2746,3.3342,3.3445,3.4051,3.431,3.431,3.4368,3.4397,3.4397,3.4397,3.4397,3.4412,3.4472,3.4881,3.5407,3.5465,3.5839,3.6301,3.6301,3.6722,3.7215,3.7215,3.7636,3.813,3.813,3.8159,3.8202,3.8202,3.8202,3.8202,3.8202,3.8202,3.8202,3.8202,3.8681,3.9305,3.9973,4.0583,4.1236,4.1976,4.2092,4.2092,4.2092,4.2092,4.2092,4.2092,4.2092,4.2092,4.2092,4.1555,4.1192,4.1192,4.1192,4.1192,4.1192,4.1192,4.0858,4.0133,3.9523,3.8884,3.8217,3.8202,3.8202,3.8202,3.8202,3.8202,3.8202,3.8202,3.8202,2.0802,2.134,0.0,2.2541,2.4675,2.6814,2.7494,2.8121,2.8584,2.8742,2.9821,3.0674,0.0,0.0,0.0,0.0,0.0,0.0,0.0,0.0,0.0,0.0,0.0,0.0,0.0,0.0,0.0,0.0,0.0,0.0,0.0,0.0,0.0,0.0,0.0,3.0598,3.0598,3.0598,3.0598,0.0,3.0598,3.0655,3.0815,3.1584,3.2222,3.2759,3.3414,3.369,3.3719,3.4196,3.4397,3.4397,3.4397,3.4397,3.4455,3.4983,3.5276,3.5465,3.5941,3.6199,3.6301,3.6301,3.6402,3.6519,3.6519,3.6983,3.7491,3.7491,3.7839,3.8202,3.8202,3.8202,3.8202,3.8202,3.8202,3.8202,3.8202,3.8318,3.8754,3.9871,4.022,4.0699,4.1889,4.2092,4.2092,4.2092,4.2092,4.2092,4.2092,4.2092,4.2092,4.2092,4.1961,4.1874,4.1874,4.1874,4.1874,4.1874,4.1874,4.1337,4.0147,3.9523,3.8884,3.8217,3.8202,3.8202,3.8202,3.8202,3.8202,3.8202,3.8202,3.8202,2.0802,2.134,2.2225,2.3562,0.0,2.7194,2.7541,2.7873,2.8105,2.8105,2.8963,0.0,0.0,0.0,0.0,0.0,0.0,0.0,0.0,0.0,0.0,0.0,0.0,0.0,0.0,0.0,0.0,0.0,0.0,0.0,0.0,0.0,0.0,0.0,3.0598,3.0598,3.0598,3.0598,3.0598,3.0598,3.0598,3.0598,3.0627,3.1221,3.1873,3.2526,3.2875,3.3021,3.308,3.3719,3.3964,3.3993,3.4298,3.4397,3.4426,3.4777,3.4925,3.4968,3.5285,3.5384,3.5384,3.5384,3.5604,3.5927,3.6214,3.678,3.736,3.7651,3.7955,3.8202,3.8202,3.8202,3.8202,3.8202,3.8202,3.8202,3.8202,3.8202,3.858,3.9842,4.0104,4.0525,4.186,4.2092,4.2092,4.2092,4.2092,4.2092,4.2092,4.2092,4.2092,4.2092,4.2092,4.2092,4.2092,4.2092,4.2092,4.2092,4.2092,4.1497,4.0162,3.9799,3.9175,3.8217,3.8202,3.8202,3.8202,3.8202,3.8202,3.8202,3.8202,3.8202,2.0802,2.134,2.2367,2.4321,2.5782,0.0,2.6878,2.7336,2.7821,2.8058,2.8105,0.0,0.0,0.0,0.0,0.0,0.0,0.0,0.0,0.0,0.0,0.0,0.0,0.0,0.0,0.0,0.0,0.0,0.0,0.0,0.0,0.0,3.0598,3.0598,3.0598,3.0598,3.0598,3.0598,3.0598,3.0598,3.0598,3.0598,3.0627,3.1119,3.1641,3.2177,3.2279,3.2322,3.238,3.3051,3.3402,3.3547,3.4051,3.4295,3.4397,3.4397,3.4397,3.4397,3.4397,3.4397,3.4397,3.4397,3.4777,3.5331,3.5952,3.6606,3.7259,3.7883,3.813,3.8202,3.8202,3.8202,3.8202,3.8202,3.8202,3.8202,3.8202,3.8202,3.858,3.9842,4.0292,4.08,4.1903,4.2092,4.2092,4.2092,4.2092,4.2092,4.2092,4.2092,4.2092,4.2092,4.2092,4.2092,4.2092,4.2092,4.2092,4.2092,4.2092,4.1497,4.0162,4.0104,3.9552,3.8405,3.826,3.826,3.8376,3.826,3.8202,3.8202,3.8202,3.8202,2.0802,2.134,2.2248,0.0,2.4675,2.5428,0.0,0.0,2.6625,0.0,0.0,0.0,0.0,0.0,0.0,0.0,0.0,0.0,0.0,0.0,0.0,0.0,0.0,0.0,0.0,0.0,0.0,0.0,0.0,0.0,0.0,3.0584,3.0598,3.0598,3.0598,3.0598,3.0598,3.0598,3.0598,3.0598,3.0598,3.0598,3.0598,3.067,3.0757,3.0873,3.1409,3.1641,3.1699,3.2351,3.2977,3.3518,3.359,3.3952,3.4397,3.4397,3.4397,3.4397,3.4397,3.4397,3.4397,3.4397,3.4455,3.4661,3.5317,3.5956,3.6577,3.7244,3.7796,3.8202,3.8202,3.8202,3.8202,3.8202,3.8202,3.8202,3.8202,3.8202,3.858,3.9842,4.1033,4.1889,4.2063,4.2092,4.2092,4.2092,4.2092,4.2092,4.2092,4.2092,4.2092,4.2092,4.2092,4.2092,4.2092,4.2092,4.2092,4.2092,4.2092,4.1497,4.0162,4.0104,3.977,3.9088,3.8507,3.8492,3.9073,3.8478,3.8202,3.8202,3.8202,3.8202,2.0802,2.1316,2.1993,0.0,2.3591,2.446,2.4766,2.514,2.5845,2.7241,0.0,0.0,0.0,0.0,0.0,0.0,0.0,0.0,0.0,0.0,0.0,0.0,0.0,0.0,0.0,0.0,0.0,0.0,0.0,3.1325,3.0104,3.0646,3.0705,3.006,3.0394,3.0598,3.0598,3.0598,3.0598,3.0598,3.0598,3.0598,3.0598,3.0598,3.0598,3.0612,3.0888,3.0988,3.1061,3.2076,3.2671,3.3006,3.3734,3.4167,3.4397,3.4397,3.4397,3.4397,3.4397,3.4397,3.4397,3.4397,3.4397,3.453,3.5203,3.5825,3.6428,3.7114,3.7738,3.8202,3.8202,3.8202,3.8202,3.8202,3.8202,3.8202,3.8202,3.8202,3.858,3.9842,4.0873,4.1657,4.2034,4.2092,4.2092,4.2092,4.2092,4.2092,4.2092,4.2092,4.2092,4.2092,4.2092,4.2092,4.2092,4.2092,4.2092,4.2092,4.2092,4.1497,4.0162,4.0452,4.035,3.9712,3.871,3.8536,3.9204,3.8522,3.8202,3.8202,3.8202,3.8202,0.0,0.0,2.1599,2.1837,2.2634,2.3462,0.0,0.0,2.5165,0.0,0.0,0.0,0.0,0.0,0.0,0.0,0.0,0.0,0.0,0.0,0.0,0.0,0.0,0.0,0.0,0.0,0.0,0.0,0.0,3.1242,2.9682,3.0573,3.0734,2.9871,3.0336,3.0598,3.0598,3.0598,3.0598,3.0598,3.0598,3.0598,3.0598,3.0598,3.0598,3.0598,3.0598,3.0684,3.0902,3.1844,3.2439,3.2861,3.3804,3.4269,3.4397,3.4397,3.4397,3.4397,3.4397,3.4397,3.4397,3.4397,3.4397,3.453,3.5203,3.5709,3.6243,3.707,3.7622,3.8014,3.8159,3.8202,3.8202,3.8202,3.8202,3.8202,3.8202,3.8333,3.8783,3.9886,4.0495,4.1062,4.1729,4.17,4.1642,4.1816,4.1845,4.1903,4.2078,4.2092,4.2092,4.2092,4.2092,4.2092,4.2092,4.2092,4.2092,4.2092,4.2092,4.157,4.0394,4.0829,4.0858,4.0365,3.9247,3.8928,3.9421,3.8609,3.8202,3.8202,3.8202,3.8202,0.0,2.0834,0.0,2.1719,2.1899,2.2253,0.0,0.0,0.0,0.0,0.0,0.0,0.0,0.0,0.0,0.0,0.0,0.0,0.0,0.0,0.0,0.0,0.0,0.0,0.0,0.0,0.0,0.0,0.0,0.0,2.9624,3.0263,3.0598,3.0554,3.0568,3.0598,3.0598,3.0598,3.0598,3.0598,3.0598,3.0598,3.0598,3.0598,3.0598,3.0598,3.0598,3.0931,3.1467,3.1525,3.2295,3.346,3.3518,3.3908,3.4397,3.4397,3.4397,3.4397,3.4397,3.4397,3.4397,3.4397,3.4397,3.453,3.5203,3.5421,3.5712,3.6954,3.7331,3.7491,3.8057,3.8202,3.8202,3.8202,3.8202,3.8202,3.8202,3.8696,3.9334,3.9973,4.0133,4.0365,4.1033,4.0612,4.0423,4.1062,4.1149,4.1381,4.202,4.2092,4.2092,4.2092,4.2092,4.2092,4.2092,4.2092,4.2092,4.2092,4.2092,4.1787,4.1076,4.1076,4.1076,4.1047,4.035,4.0017,4.0046,3.8812,3.8202,3.8202,3.8202,3.8202,0.0,0.0,0.0,2.1719,2.1521,2.1537,2.2943,2.3259,0.0,0.0,0.0,0.0,0.0,0.0,0.0,0.0,0.0,0.0,0.0,0.0,0.0,0.0,0.0,0.0,0.0,0.0,0.0,0.0,0.0,0.0,2.9451,3.0041,3.0265,2.9973,3.0379,3.0598,3.0598,3.0598,3.0598,3.0598,3.0598,3.0598,3.0598,3.0598,3.0598,3.0598,3.0598,3.0713,3.0989,3.18,3.2424,3.2933,3.3761,3.4211,3.4397,3.4397,3.4397,3.4397,3.4397,3.4397,3.4397,3.4397,3.4397,3.4441,3.469,3.5328,3.6069,3.6533,3.7259,3.7941,3.8144,3.8202,3.8202,3.8202,3.8202,3.8202,3.8202,3.8391,3.8754,3.9392,3.9523,3.9712,4.035,4.0249,4.0321,4.1004,4.1091,4.1337,4.2005,4.2092,4.2092,4.2092,4.2092,4.2092,4.2092,4.2092,4.2092,4.2092,4.2092,4.1802,4.112,4.1512,4.1541,4.1105,4.0858,4.0525,4.0104,3.9247,3.8623,3.8202,3.8202,3.8202,2.0802,0.0,0.0,0.0,2.1356,2.1419,2.236,0.0,0.0,0.0,0.0,0.0,0.0,0.0,0.0,0.0,0.0,0.0,0.0,0.0,0.0,0.0,0.0,0.0,0.0,0.0,0.0,0.0,0.0,0.0,2.9332,3.0008,3.0264,2.9943,3.0365,3.0598,3.0598,3.0598,3.0598,3.0598,3.0598,3.0598,3.0598,3.0598,3.0598,3.0598,3.0598,3.0699,3.0989,3.2061,3.2627,3.2933,3.3991,3.4397,3.4397,3.4397,3.4397,3.4397,3.4397,3.4397,3.4397,3.4397,3.4397,3.4397,3.4397,3.4992,3.5746,3.6185,3.6925,3.7628,3.7917,3.7995,3.8033,3.8165,3.8202,3.8202,3.8202,3.8202,3.8405,3.9073,3.903,3.9059,3.9697,3.9799,4.0017,4.067,4.096,4.1337,4.2005,4.2092,4.2092,4.2092,4.2092,4.2092,4.2092,4.2092,4.2092,4.2092,4.2092,4.1903,4.1453,4.186,4.1889,4.1439,4.1439,4.1105,4.0423,3.9596,3.8855,3.8202,3.8434,3.8638,0.0,0.0,0.0,0.0,0.0,0.0,2.1925,0.0,0.0,0.0,0.0,0.0,0.0,0.0,0.0,0.0,0.0,0.0,0.0,0.0,0.0,0.0,0.0,0.0,0.0,0.0,0.0,0.0,0.0,2.9666,2.9301,3.0119,3.0583,3.0598,3.0598,3.0598,3.0598,3.0598,3.0598,3.0598,3.0598,3.0598,3.0598,3.0598,3.0598,3.0598,3.0598,3.0931,3.1525,3.2221,3.2875,3.3532,3.4167,3.4397,3.4397,3.4397,3.4397,3.4397,3.4397,3.4397,3.4397,3.4397,3.4397,3.4397,3.4397,3.4412,3.4687,3.5952,3.6312,3.6508,3.7372,3.7605,3.7706,3.8108,3.8202,3.8202,3.8202,3.8202,3.8391,3.9044,3.8652,3.8405,3.9059,3.9189,3.9407,4.0002,4.067,4.1337,4.2005,4.2092,4.2092,4.2092,4.2092,4.2092,4.2092,4.2092,4.2092,4.2092,4.2092,4.2092,4.2092,4.2092,4.2092,4.2092,4.2092,4.1758,4.1091,3.9857,3.8913,3.8275,3.8928,3.9538,2.0802,0.0,0.0,0.0,0.0,0.0,0.0,0.0,0.0,0.0,0.0,0.0,0.0,0.0,0.0,0.0,0.0,0.0,0.0,0.0,0.0,0.0,0.0,0.0,0.0,0.0,0.0,0.0,2.8149,2.8284,2.8711,2.9734,3.0411,3.0583,3.0598,3.0598,3.0598,3.0598,3.0598,3.0598,3.0598,3.0598,3.0598,3.0598,3.0598,3.0598,3.0598,3.0684,3.0931,3.2032,3.2613,3.289,3.3962,3.4397,3.4397,3.4397,3.4397,3.4397,3.4397,3.4397,3.4397,3.4397,3.4397,3.4397,3.4397,3.4733,3.5288,3.6083,3.6451,3.6741,3.7429,3.7605,3.7706,3.8108,3.8202,3.8202,3.8202,3.8202,3.826,3.8449,3.8333,3.826,3.8449,3.8884,3.9407,4.0002,4.067,4.1337,4.2005,4.2092,4.2092,4.2092,4.2092,4.2092,4.2092,4.2092,4.2092,4.2092,4.2092,4.2092,4.2092,4.2092,4.2092,4.2092,4.2092,4.1758,4.1091,4.0742,4.0234,3.9581,3.9755,3.9944,0.0,0.0,0.0,0.0,0.0,0.0,2.2787,2.3341,0.0,0.0,0.0,0.0,0.0,0.0,0.0,0.0,0.0,0.0,0.0,0.0,0.0,0.0,0.0,0.0,0.0,0.0,0.0,0.0,2.8214,2.8188,2.8561,2.9365,2.9938,3.0176,3.0176,3.0321,3.0598,3.0598,3.0598,3.0598,3.0598,3.0598,3.0598,3.0598,3.0598,3.0598,3.0598,3.0598,3.0699,3.1975,3.2497,3.2627,3.3889,3.4397,3.4397,3.4397,3.4397,3.4397,3.4397,3.4397,3.4397,3.4397,3.4397,3.4397,3.4397,3.4675,3.5137,3.5844,3.6294,3.673,3.7429,3.7476,3.7495,3.8071,3.8202,3.8202,3.8202,3.8202,3.8202,3.8202,3.8434,3.8623,3.8623,3.9378,4.0118,4.0466,4.1091,4.1657,4.2049,4.2092,4.2092,4.2092,4.2092,4.2092,4.2092,4.2092,4.2092,4.2092,4.2092,4.2092,4.2092,4.2092,4.2092,4.2092,4.2092,4.1903,4.1512,4.1236,4.0902,4.0525,4.0525,4.067,0.0,0.0,0.0,0.0,0.0,0.0,2.3126,2.3973,2.4717,0.0,0.0,0.0,0.0,0.0,0.0,0.0,0.0,0.0,0.0,0.0,0.0,0.0,0.0,0.0,0.0,2.9,2.8953,2.8988,2.8882,2.8813,2.8777,2.9066,2.9332,2.9493,2.9508,2.9827,3.0481,3.0481,3.0539,3.0598,3.0598,3.0598,3.0598,3.0598,3.0598,3.0598,3.0598,3.0641,3.0786,3.1989,3.2497,3.2627,3.3889,3.4397,3.4397,3.4397,3.4397,3.4397,3.4397,3.4397,3.4397,3.4397,3.4397,3.4397,3.4397,3.4397,3.4573,3.5389,3.6037,3.6628,3.7298,3.7226,3.7192,3.7957,3.8165,3.8202,3.8202,3.8202,3.8217,3.8304,3.8797,3.9218,3.9291,4.0292,4.1091,4.1091,4.1671,4.2092,4.2092,4.2034,4.202,4.2092,4.2034,4.202,4.2092,4.2092,4.2092,4.2092,4.2092,4.2092,4.2092,4.2092,4.2092,4.2092,4.2092,4.2092,4.2092,4.1497,4.1207,4.1207,4.1207,4.1526,0.0,0.0,0.0,0.0,0.0,0.0,2.3613,2.3913,2.4239,0.0,0.0,0.0,0.0,0.0,0.0,0.0,0.0,0.0,0.0,0.0,0.0,0.0,0.0,0.0,0.0,2.8372,2.7997,2.8261,2.8275,2.8528,2.9147,2.9052,2.8948,2.8883,2.8884,2.9174,2.9784,2.9798,3.0074,3.0598,3.0598,3.0598,3.0598,3.0598,3.0598,3.0598,3.0598,3.0888,3.1379,3.2177,3.2497,3.2627,3.3889,3.4397,3.4397,3.4397,3.4397,3.4397,3.4397,3.4397,3.4397,3.4397,3.4397,3.4397,3.4397,3.4397,3.4504,3.506,3.6018,3.6836,3.6688,3.6831,3.7129,3.761,3.7957,3.8202,3.8202,3.8202,3.8362,3.8899,3.9117,3.9349,3.9842,4.0583,4.1091,4.1091,4.1671,4.2092,4.2092,4.1628,4.1497,4.2034,4.1613,4.1512,4.2049,4.2092,4.2092,4.2092,4.2092,4.2092,4.2092,4.2092,4.2092,4.2092,4.2092,4.2092,4.2092,4.1961,4.1903,4.1903,4.1903,4.1976,0.0,0.0,0.0,2.3401,0.0,0.0,0.0,2.4454,2.4549,2.4916,0.0,0.0,0.0,0.0,0.0,0.0,0.0,0.0,0.0,0.0,0.0,0.0,0.0,0.0,0.0,2.8149,2.7973,2.8267,2.8183,2.8171,2.8345,2.8372,2.8338,2.8215,2.8202,2.8652,2.9581,2.9595,2.9943,3.0598,3.0598,3.0598,3.0598,3.0598,3.0598,3.0598,3.0598,3.0946,3.1554,3.2221,3.2685,3.3093,3.402,3.4397,3.4397,3.4397,3.4397,3.4397,3.4397,3.4397,3.4397,3.4397,3.4397,3.4397,3.4397,3.4695,3.5124,3.5446,3.6118,3.6693,3.6693,3.6836,3.7153,3.7763,3.8052,3.8202,3.8202,3.8202,3.8405,3.9073,3.945,3.9842,4.0481,4.1149,4.1599,4.1599,4.1599,4.1715,4.2049,4.1221,4.0989,4.199,4.1497,4.1366,4.2034,4.2092,4.2092,4.2092,4.2092,4.2092,4.2092,4.2092,4.2092,4.2092,4.2092,4.2092,4.2092,4.2092,4.2092,4.2092,4.2092,4.2092,0.0,0.0,0.0,0.0,0.0,2.4995,0.0,0.0,0.0,2.4995,0.0,0.0,0.0,0.0,0.0,0.0,0.0,0.0,0.0,0.0,0.0,0.0,0.0,0.0,0.0,2.8343,2.8383,2.8428,2.8396,2.8108,2.7534,2.7743,2.7782,2.752,2.7521,2.8144,2.9421,2.9435,2.9813,3.0598,3.0598,3.0598,3.0598,3.0598,3.0598,3.0598,3.0598,3.0946,3.1554,3.2221,3.2904,3.3561,3.4167,3.4397,3.4397,3.4397,3.4397,3.4397,3.4397,3.4397,3.4397,3.4397,3.4397,3.4397,3.4397,3.5006,3.5719,3.5799,3.6103,3.647,3.6797,3.6954,3.7173,3.7901,3.8146,3.8202,3.8202,3.8202,3.8405,3.9073,3.9683,4.0307,4.0974,4.1541,4.1903,4.1903,4.1337,4.1149,4.1816,4.0844,4.0612,4.1961,4.1497,4.1366,4.2034,4.2092,4.2092,4.2092,4.2092,4.2092,4.2092,4.2092,4.2092,4.2092,4.2092,4.2092,4.2092,4.2092,4.2092,4.2092,4.2092,4.2092,0.0,0.0,0.0,0.0,2.4948,0.0,0.0,0.0,2.4995,2.4995,0.0,0.0,0.0,0.0,0.0,0.0,0.0,0.0,0.0,0.0,0.0,0.0,0.0,0.0,0.0,0.0,2.9,2.8221,2.8892,2.8904,2.7894,2.7889,2.7585,2.692,2.6909,2.7519,2.8782,2.8796,2.9406,3.0598,3.0598,3.0598,3.0598,3.0598,3.0598,3.0598,3.0598,3.0946,3.1554,3.2221,3.2904,3.3561,3.4167,3.4397,3.4397,3.4397,3.4397,3.4397,3.4397,3.4397,3.4397,3.4397,3.4397,3.4397,3.4397,3.5006,3.5634,3.531,3.5783,3.6425,3.6451,3.6733,3.7109,3.7553,3.7938,3.8202,3.8202,3.8202,3.8405,3.9073,3.9683,4.0307,4.0974,4.1163,4.1207,4.1207,4.0641,4.0452,4.112,4.0554,4.0612,4.1961,4.1497,4.1366,4.2034,4.2092,4.2092,4.2092,4.2092,4.2092,4.2092,4.2092,4.2092,4.2092,4.2092,4.2092,4.2092,4.2092,4.2092,4.2092,4.2092,4.2092,0.0,0.0,0.0,0.0,0.0,0.0,2.4995,0.0,2.4995,0.0,0.0,0.0,0.0,0.0,0.0,0.0,0.0,0.0,0.0,0.0,0.0,0.0,0.0,0.0,0.0,0.0,0.0,0.0,0.0,2.8873,2.795,2.7898,2.7567,2.6819,2.6792,2.7402,2.8694,2.8695,2.9348,3.0598,3.0598,3.0598,3.0598,3.0598,3.0598,3.0598,3.0598,3.0946,3.1554,3.2221,3.2904,3.3561,3.4167,3.4397,3.4397,3.4397,3.4397,3.4397,3.4397,3.4397,3.4363,3.4128,3.4059,3.4203,3.4986,3.5436,3.5776,3.6104,3.6303,3.6405,3.6405,3.6693,3.7109,3.7495,3.7915,3.8202,3.8202,3.8202,3.8275,3.8565,3.9146,3.9668,3.9944,4.0931,4.141,4.0641,4.0278,4.0336,4.1004,4.0205,4.0234,4.1918,4.1497,4.1366,4.2034,4.2092,4.2092,4.2092,4.2092,4.2092,4.2092,4.2092,4.2092,4.2092,4.2092,4.2092,4.2092,4.2092,4.2092,4.2092,4.2092,4.2092,2.4856,0.0,0.0,0.0,0.0,0.0,0.0,0.0,0.0,0.0,0.0,0.0,0.0,0.0,0.0,0.0,0.0,0.0,0.0,0.0,0.0,0.0,0.0,0.0,0.0,0.0,0.0,0.0,2.8679,0.0,2.7668,2.7893,2.768,2.6832,2.7071,2.7698,2.8694,2.8854,2.9508,3.0598,3.0598,3.0598,3.0598,3.0598,3.0598,3.0598,3.0598,3.0858,3.1322,3.2148,3.2788,3.3298,3.4095,3.4397,3.4397,3.4397,3.4397,3.4397,3.4397,3.4397,3.4329,3.3925,3.3805,3.3976,3.4971,3.5381,3.5676,3.6296,3.6429,3.6405,3.6405,3.6628,3.6954,3.749,3.782,3.8085,3.8183,3.8202,3.8202,3.8202,3.8739,3.9146,3.8957,4.0249,4.1033,4.022,3.9958,4.0162,4.0989,4.0292,4.0321,4.1932,4.1497,4.1366,4.2034,4.1932,4.1903,4.2092,4.2092,4.2092,4.2092,4.2092,4.2092,4.2092,4.2092,4.2092,4.2092,4.2092,4.2092,4.2092,4.2092,4.2092,0.0,0.0,0.0,2.4995,0.0,0.0,0.0,0.0,2.5175,0.0,0.0,0.0,0.0,0.0,0.0,0.0,0.0,0.0,0.0,0.0,0.0,0.0,0.0,0.0,0.0,0.0,0.0,2.7256,2.8599,0.0,2.7012,2.7917,2.7953,2.6832,2.773,2.8391,2.8709,2.9276,2.9929,3.0598,3.0598,3.0598,3.0598,3.0598,3.0598,3.0598,3.0598,3.0612,3.0728,3.199,3.2511,3.2656,3.3904,3.4397,3.4397,3.4397,3.4397,3.4397,3.4397,3.4397,3.4329,3.3925,3.3805,3.3819,3.3848,3.4455,3.5124,3.5157,3.5769,3.6405,3.6405,3.6425,3.6628,3.7399,3.7625,3.7725,3.8108,3.8202,3.8202,3.8202,3.8739,3.8986,3.8347,3.8826,3.9479,4.0017,3.9596,3.9683,4.0945,4.1062,4.1308,4.202,4.1497,4.1366,4.2034,4.1497,4.141,4.2049,4.2092,4.2092,4.2092,4.2092,4.2092,4.2092,4.2092,4.2092,4.2092,4.2092,4.2092,4.2092,4.2092,4.2092,0.0,0.0,2.6398,2.6398,0.0,0.0,0.0,0.0,0.0,0.0,0.0,0.0,0.0,0.0,0.0,0.0,0.0,0.0,0.0,0.0,0.0,0.0,0.0,0.0,0.0,0.0,0.0,2.7172,2.8436,2.8555,0.0,2.7917,2.7981,2.6832,2.7772,2.8434,2.8709,2.929,2.9943,3.0598,3.0598,3.0598,3.0598,3.0598,3.0598,3.0598,3.0598,3.0829,3.1264,3.2134,3.2759,3.324,3.408,3.4397,3.4397,3.4397,3.4397,3.4397,3.4397,3.4077,3.3649,3.3496,3.3287,3.3199,3.3868,3.454,3.5176,3.5573,3.6047,3.6331,3.6018,3.6172,3.6484,3.6747,3.722,3.7644,3.7763,3.8014,3.8202,3.8202,3.8376,3.8463,3.8246,3.8754,3.9276,3.9465,4.0046,4.0612,4.1033,4.1091,4.1352,4.2034,4.1903,4.1845,4.2078,4.1889,4.186,4.2092,4.2092,4.2092,4.2092,4.2092,4.2092,4.2092,4.2092,4.2092,4.2092,4.2092,4.2092,4.2092,4.2092,4.2092,2.6818,2.6899,0.0,0.0,2.6741,0.0,2.6388,0.0,0.0,0.0,0.0,0.0,0.0,0.0,0.0,0.0,0.0,0.0,0.0,0.0,0.0,0.0,0.0,0.0,0.0,0.0,2.8079,2.7178,2.834,2.8459,0.0,0.0,2.8223,2.7153,2.8259,2.8924,2.9029,2.9639,3.0161,3.0598,3.0598,3.0598,3.0598,3.0598,3.0598,3.0612,3.0829,3.1134,3.1568,3.2483,3.3109,3.3561,3.4167,3.4397,3.4397,3.4397,3.4397,3.438,3.423,3.3874,3.3427,3.3164,3.2917,3.2868,3.373,3.4417,3.5004,3.5352,3.5917,3.6237,3.5566,3.5754,3.6192,3.6351,3.6909,3.7419,3.7586,3.7915,3.8202,3.8202,3.8202,3.8202,3.8202,3.8754,3.9204,3.9204,4.0075,4.0829,4.1062,4.1091,4.1352,4.2034,4.1889,4.1744,4.1744,4.1961,4.2092,4.2092,4.2092,4.2092,4.2092,4.2092,4.2194,4.2411,4.2208,4.2208,4.2411,4.2194,4.2092,4.2092,4.2092,4.2092]},{"header":{"parameterUnit":"m.s-1","parameterCategory":1,"la1":30.6,"la2":29.2853,"lo1":-89.7004,"lo2":-87.6739,"dx":0.0162,"dy":0.0183,"nx":112,"ny":82,"refTime":"2023-02-03T06:00:00:Z","depth":0,"parameterNumber":3,"parameterNumberName":"V-component_of_WINDS"},"data":[0.0,0.0,0.0,0.0,0.0,0.0,0.0,0.0,0.0,0.0,0.0,0.0,0.0,0.0,0.0,0.0,0.0,0.0,0.0,0.0,0.0,0.0,0.0,0.0,0.0,0.0,0.0,0.0,0.0,0.0,0.0,0.0,0.0,0.0,0.0,0.0,0.0,0.0,0.0,0.0,0.0,0.0,0.0,0.0,0.0,0.0,0.0,0.0,0.0,0.0,0.0,0.0,0.0,0.0,0.0,0.0,0.0,0.0,0.0,0.0,0.0,0.0,0.0,0.0,0.0,0.0,0.0,0.0,0.0,0.0,0.0,0.0,0.0,0.0,0.0,0.0,0.0,0.0,0.0,0.0,0.0,0.0,0.0,0.0,0.0,0.0,0.0,0.0,0.0,0.0,1.0649,1.1866,1.3248,1.3862,1.3303,1.3672,1.3419,1.2224,0.0,0.0,0.0,0.0,0.0,0.0,0.0,0.0,0.0,0.0,0.0,0.0,0.0,0.0,0.0,0.0,0.0,0.0,0.0,0.0,0.0,0.0,0.0,0.0,0.0,0.0,0.0,0.0,0.0,0.0,0.0,0.0,0.0,0.0,0.0,0.0,0.0,0.0,0.0,0.0,0.0,0.0,0.0,0.0,0.0,0.0,0.0,0.0,0.0,0.0,0.0,0.0,0.0,0.0,0.0,0.0,0.0,0.0,0.0,0.0,0.0,0.0,0.0,0.0,0.0,0.0,0.0,0.0,0.0,0.0,0.0,0.0,0.0,0.0,0.0,0.0,0.0,0.0,0.0,0.0,0.0,0.0,0.0,0.0,0.0,0.0,0.0,0.0,0.0,0.0,0.0,0.0,0.0,0.0,0.0,0.0,0.0,0.0,0.0,0.0,0.0,0.0,0.0,0.0,1.1186,1.266,1.3594,1.4187,1.4426,1.3654,1.3322,1.3723,0.0,0.0,0.0,0.0,0.0,0.0,0.0,0.0,0.0,0.0,0.0,0.0,0.0,0.0,0.0,0.0,0.0,0.0,0.0,0.0,0.0,0.0,0.0,0.0,0.0,0.0,0.0,0.0,0.0,0.0,0.0,0.0,0.0,0.0,0.0,0.0,0.0,0.0,0.0,0.0,0.0,0.0,0.0,0.0,0.0,0.0,0.0,0.0,0.0,0.0,0.0,0.0,0.0,0.0,0.0,0.0,0.0,0.0,0.0,0.0,0.0,0.0,0.0,0.0,0.0,0.0,0.0,0.0,0.0,0.0,0.0,0.0,0.0,0.0,0.0,0.0,0.0,0.0,0.0,0.0,0.0,0.0,0.0,0.0,0.0,0.0,0.0,0.0,0.0,0.0,0.0,0.0,0.0,0.0,0.0,0.0,0.0,0.0,0.0,0.0,0.0,0.0,0.0,1.1179,1.1893,1.26,1.3331,1.3853,1.4033,1.34,1.3147,1.3478,1.3199,0.0,0.0,0.0,0.0,0.0,0.0,0.0,0.0,0.0,0.0,0.0,0.0,0.0,0.0,0.0,0.0,0.0,0.0,0.0,0.0,0.0,0.0,0.0,0.0,0.0,0.0,0.0,0.0,0.0,0.0,0.0,0.0,0.0,0.0,0.0,0.0,0.0,0.0,0.0,0.0,0.0,0.0,0.0,0.0,0.0,0.0,0.0,0.0,0.0,0.0,0.0,0.0,0.0,0.0,0.0,0.0,0.0,0.0,0.0,0.0,0.0,0.0,0.0,0.0,0.0,0.0,0.0,0.0,0.0,0.0,0.0,0.0,0.0,0.0,0.0,0.0,0.0,0.0,0.0,0.0,0.0,0.0,0.0,0.0,0.0,0.0,0.0,0.0,0.0,0.0,0.0,0.0,0.0,0.0,0.0,0.0,0.0,0.0,0.0,0.0,0.0,0.0,1.1866,1.2437,1.2532,1.3117,1.3476,1.3391,1.3059,1.2905,1.2996,1.2925,0.0,0.0,0.0,0.0,0.0,0.0,0.0,0.0,0.0,0.0,0.0,0.0,0.0,0.0,0.0,0.0,0.0,0.0,0.0,0.0,0.0,0.0,0.0,0.0,0.0,0.0,0.0,0.0,0.0,0.0,0.0,0.0,0.0,0.0,0.0,0.0,0.0,0.0,0.0,0.0,0.0,0.0,0.0,0.0,0.0,0.0,0.0,0.0,0.0,0.0,0.0,0.0,0.0,0.0,0.0,0.0,0.0,0.0,0.0,0.0,0.0,0.0,0.0,0.0,0.0,0.0,0.0,0.0,0.0,0.0,0.0,0.0,0.0,0.0,0.0,0.0,0.0,0.0,0.0,0.0,0.0,0.0,0.0,0.0,0.0,0.0,0.0,0.0,0.0,0.0,0.0,0.0,0.0,0.0,0.0,0.0,0.0,0.0,0.0,0.0,0.0,0.0,1.2114,1.2549,1.2917,1.328,1.3374,1.3063,1.2671,1.2603,1.2978,1.2707,0.0,0.0,0.0,0.0,0.0,0.0,0.0,0.0,0.0,0.0,0.0,0.0,0.0,0.0,0.0,0.0,0.0,0.0,0.0,0.0,0.0,0.0,0.0,0.0,0.0,0.0,0.0,0.0,0.0,0.0,0.0,0.0,0.0,0.0,0.0,0.0,0.0,0.0,0.0,0.0,0.0,0.0,0.0,0.0,0.0,0.0,0.0,0.0,0.0,0.0,0.0,0.0,0.0,0.0,0.0,0.0,0.0,0.0,0.0,0.0,0.0,0.0,0.0,0.0,0.0,0.0,0.0,0.0,0.0,0.0,0.0,0.0,0.0,0.0,0.0,0.0,0.0,0.0,0.0,0.0,0.0,0.0,0.0,0.0,0.0,0.0,0.0,0.0,0.0,0.0,0.0,0.0,0.0,0.0,0.0,0.0,0.0,0.0,0.0,0.0,0.0,0.0,1.2044,1.2557,0.0,1.3558,1.3776,1.3406,1.3493,1.3522,1.3378,0.0,0.0,0.0,0.0,0.0,0.0,0.0,0.0,0.0,0.0,0.0,0.0,0.0,0.0,0.0,0.0,0.0,0.0,0.0,0.0,0.0,0.0,0.0,0.0,0.0,0.0,0.0,0.0,0.0,0.0,0.0,0.0,0.0,0.0,0.0,0.0,0.0,0.0,0.0,0.0,0.0,0.0,0.0,0.0,0.0,0.0,0.0,0.0,0.0,0.0,0.0,0.0,0.0,0.0,0.0,0.0,0.0,0.0,0.0,0.0,0.0,0.0,0.0,0.0,0.0,0.0,0.0,0.0,0.0,0.0,0.0,0.0,0.0,0.0,0.0,0.0,0.0,0.0,0.0,0.0,0.0,0.0,0.0,0.0,0.0,0.0,0.0,0.0,0.0,0.0,0.0,0.0,0.0,0.0,0.0,0.0,0.0,0.0,0.0,0.0,0.0,0.0,1.1684,1.2112,1.2586,0.0,1.3657,1.3812,1.3434,1.3694,1.3755,1.3424,0.0,0.0,0.0,0.0,0.0,0.0,0.0,0.0,0.0,0.0,0.0,0.0,0.0,0.0,0.0,0.0,0.0,0.0,0.0,0.0,0.0,0.0,0.0,0.0,0.0,0.0,0.0,0.0,0.0,0.0,0.0,0.0,0.0,0.0,0.0,0.0,0.0,0.0,0.0,0.0,0.0,0.0,0.0,0.0,0.0,0.0,0.0,0.0,0.0,0.0,0.0,0.0,0.0,0.0,0.0,0.0,0.0,0.0,0.0,0.0,0.0,0.0,0.0,0.0,0.0,0.0,0.0,0.0,0.0,0.0,0.0,0.0,0.0,0.0,0.0,0.0,0.0,0.0,0.0,0.0,0.0,0.0,0.0,0.0,0.0,0.0,0.0,0.0,0.0,0.0,0.0,0.0,0.0,0.0,0.0,0.0,0.0,0.0,0.0,0.0,0.0,0.0,1.2309,1.2403,1.2694,1.3425,1.3526,1.3394,1.3039,1.3022,1.3016,0.0,0.0,0.0,0.0,0.0,0.0,0.0,0.0,0.0,0.0,0.0,0.0,0.0,0.0,0.0,0.0,0.0,0.0,0.0,0.0,0.0,0.0,0.0,0.0,0.0,0.0,0.0,0.0,0.0,0.0,0.0,0.0,0.0,0.0,0.0,0.0,0.0,0.0,0.0,0.0,0.0,0.0,0.0,0.0,0.0,0.0,0.0,0.0,0.0,0.0,0.0,0.0,0.0,0.0,0.0,0.0,0.0,0.0,0.0,0.0,0.0,0.0,0.0,0.0,0.0,0.0,0.0,0.0,0.0,0.0,0.0,0.0,0.0,0.0,0.0,0.0,0.0,0.0,0.0,0.0,0.0,0.0,0.0,0.0,0.0,0.0,0.0,0.0,0.0,0.0,0.0,0.0,0.0,0.0,0.0,0.0,0.0,0.0,0.0,0.0,0.0,0.0,0.0,1.2309,1.2684,1.3179,1.3906,1.4627,1.4749,1.398,1.4211,1.4132,1.3459,0.0,0.0,0.0,0.0,0.0,0.0,0.0,0.0,0.0,0.0,0.0,0.0,0.0,0.0,0.0,0.0,0.0,0.0,0.0,0.0,0.0,0.0,0.0,0.0,0.0,0.0,0.0,0.0,0.0,0.0,0.0,0.0,0.0,0.0,0.0,0.0,0.0,0.0,0.0,0.0,0.0,0.0,0.0,0.0,0.0,0.0,0.0,0.0,0.0,0.0,0.0,0.0,0.0,0.0,0.0,0.0,0.0,0.0,0.0,0.0,0.0,0.0,0.0,0.0,0.0,0.0,0.0,0.0,0.0,0.0,0.0,0.0,0.0,0.0,0.0,0.0,0.0,0.0,0.0,0.0,0.0,0.0,0.0,0.0,0.0,0.0,0.0,0.0,0.0,0.0,0.0,0.0,0.0,0.0,0.0,0.0,0.0,0.0,0.0,0.0,0.0,0.0,1.2574,1.3068,1.3626,1.4396,1.502,1.5171,1.4627,1.4677,1.4484,1.3917,0.0,0.0,0.0,0.0,0.0,0.0,0.0,0.0,0.0,0.0,0.0,0.0,0.0,0.0,0.0,0.0,0.0,0.0,0.0,0.0,0.0,0.0,0.0,0.0,0.0,0.0,0.0,0.0,0.0,0.0,0.0,0.0,0.0,0.0,0.0,0.0,0.0,0.0,0.0,0.0,0.0,0.0,0.0,0.0,0.0,0.0,0.0,0.0,0.0,0.0,0.0,0.0,0.0,0.0,0.0,0.0,0.0,0.0,0.0,0.0,0.0,0.0,0.0,0.0,0.0,0.0,0.0,0.0,0.0,0.0,0.0,0.0,0.0,0.0,0.0,0.0,0.0,0.0,0.0,0.0,0.0,0.0,0.0,0.0,0.0,0.0,0.0,0.0,0.0,0.0,0.0,0.0,0.0,0.0,0.0,0.0,0.0,0.0,0.0,0.0,0.0,0.0,1.3,1.3531,1.4117,1.4895,1.5048,1.509,1.5072,1.4639,1.4349,1.4297,0.0,0.0,0.0,0.0,0.0,0.0,0.0,0.0,0.0,0.0,0.0,0.0,0.0,0.0,0.0,0.0,0.0,0.0,0.0,0.0,0.0,0.0,0.0,0.0,0.0,0.0,0.0,0.0,0.0,0.0,0.0,0.0,0.0,0.0,0.0,0.0,0.0,0.0,0.0,0.0,0.0,0.0,0.0,0.0,0.0,0.0,0.0,0.0,0.0,0.0,0.0,0.0,0.0,0.0,0.0,0.0,0.0,0.0,0.0,0.0,1.3269,0.0,0.0,0.0,0.0,0.0,0.0,0.0,0.0,0.0,0.0,0.0,0.0,0.0,0.0,0.0,0.0,0.0,0.0,0.0,0.0,0.0,0.0,0.0,0.0,0.0,0.0,0.0,0.0,0.0,0.0,0.0,0.0,0.0,0.0,0.0,0.0,0.0,0.0,0.0,0.0,0.0,1.3041,1.41,1.4998,1.5482,1.6132,1.6284,1.5615,1.5109,1.4697,1.4322,1.3857,0.0,0.0,0.0,0.0,0.0,0.0,0.0,0.0,0.0,0.0,0.0,0.0,0.0,0.0,0.0,0.0,0.0,0.0,0.0,0.0,0.0,0.0,0.0,0.0,0.0,0.0,0.0,0.0,0.0,0.0,0.0,0.0,0.0,0.0,0.0,0.0,0.0,0.0,0.0,0.0,0.0,0.0,0.0,0.0,0.0,0.0,0.0,0.0,0.0,0.0,0.0,0.0,0.0,0.0,0.0,0.0,0.0,0.0,0.0,0.0,1.342,0.0,0.0,0.0,0.0,0.0,0.0,0.0,0.0,0.0,0.0,0.0,0.0,0.0,0.0,0.0,0.0,0.0,0.0,0.0,0.0,0.0,0.0,0.0,0.0,0.0,0.0,0.0,0.0,0.0,0.0,0.0,0.0,0.0,0.0,0.0,0.0,0.0,0.0,0.0,0.0,1.4281,1.4974,1.5632,1.6258,1.6739,1.6738,1.6088,1.5818,1.5476,1.4997,1.4531,0.0,0.0,0.0,0.0,0.0,0.0,0.0,0.0,0.0,0.0,0.0,0.0,0.0,0.0,0.0,0.0,0.0,0.0,0.0,0.0,0.0,0.0,0.0,0.0,0.0,0.0,0.0,0.0,0.0,0.0,0.0,0.0,0.0,0.0,0.0,0.0,0.0,0.0,0.0,0.0,0.0,0.0,0.0,0.0,0.0,0.0,0.0,0.0,0.0,0.0,0.0,0.0,0.0,1.427,1.4433,1.4647,1.4769,1.485,1.483,1.3795,1.3494,1.3722,0.0,0.0,0.0,0.0,0.0,0.0,0.0,0.0,0.0,0.0,0.0,0.0,0.0,0.0,0.0,0.0,0.0,0.0,0.0,0.0,0.0,0.0,0.0,0.0,0.0,1.4598,1.4826,0.0,0.0,0.0,0.0,0.0,0.0,0.0,0.0,0.0,0.0,0.0,0.0,1.5537,1.5828,1.6225,1.7048,1.7203,1.7037,1.6554,1.644,1.6201,1.5735,1.5256,1.4997,0.0,0.0,0.0,0.0,0.0,0.0,0.0,0.0,0.0,0.0,0.0,0.0,0.0,0.0,0.0,0.0,0.0,0.0,0.0,0.0,0.0,0.0,0.0,0.0,0.0,0.0,0.0,0.0,0.0,0.0,0.0,0.0,1.4488,1.5039,0.0,0.0,0.0,0.0,0.0,0.0,0.0,0.0,0.0,0.0,0.0,0.0,0.0,0.0,1.4338,1.4751,1.486,1.47,1.5345,1.5631,1.5607,1.5403,1.5425,1.5618,1.4999,0.0,1.4177,1.3764,0.0,0.0,0.0,0.0,0.0,0.0,0.0,0.0,0.0,0.0,0.0,0.0,0.0,0.0,0.0,0.0,0.0,0.0,0.0,0.0,0.0,0.0,1.4424,1.5241,1.5518,1.5566,0.0,1.476,1.4116,1.3704,0.0,0.0,0.0,0.0,0.0,0.0,0.0,0.0,1.5171,1.6161,1.7037,1.7554,1.7962,1.7864,1.6996,1.6601,1.6201,1.5735,1.5256,1.4997,1.4997,1.4997,0.0,0.0,0.0,0.0,0.0,0.0,0.0,0.0,0.0,0.0,0.0,0.0,0.0,0.0,0.0,0.0,0.0,0.0,0.0,0.0,0.0,0.0,0.0,0.0,0.0,0.0,0.0,0.0,0.0,1.3924,1.4568,1.5039,1.5097,1.5097,0.0,0.0,0.0,0.0,0.0,0.0,0.0,0.0,0.0,1.5145,1.5233,1.534,1.5474,1.5927,1.6131,1.6041,1.6671,1.6906,1.6826,1.7046,1.7082,1.6975,1.6806,1.6629,1.6312,1.4662,1.3991,1.3971,0.0,0.0,0.0,0.0,0.0,1.4008,1.4093,0.0,0.0,0.0,0.0,0.0,0.0,0.0,0.0,0.0,0.0,0.0,0.0,0.0,0.0,1.6277,1.6628,1.6825,1.6825,1.6528,1.5906,0.0,1.4834,1.4992,1.4556,0.0,0.0,0.0,0.0,1.5966,1.6487,1.7046,1.7575,1.8035,1.8284,1.8123,1.7451,1.7238,1.6928,1.6463,1.6022,1.5787,1.5787,1.5787,1.5663,0.0,0.0,0.0,0.0,0.0,0.0,0.0,0.0,0.0,0.0,0.0,0.0,0.0,0.0,0.0,0.0,0.0,0.0,0.0,0.0,0.0,0.0,0.0,0.0,0.0,0.0,0.0,0.0,1.4143,1.4568,1.5039,1.5097,1.5097,0.0,0.0,0.0,0.0,0.0,0.0,1.5014,1.5452,1.579,1.5975,1.6311,1.6545,1.6681,1.7228,1.745,1.7382,1.7998,1.8194,1.8014,1.8476,1.8514,1.8236,1.8276,1.832,1.8206,1.5852,1.4887,1.4833,1.4284,1.4059,1.411,1.4515,1.4656,1.4728,1.5207,1.5362,1.5267,1.4726,0.0,1.4573,1.361,0.0,0.0,0.0,0.0,1.4726,1.5421,0.0,1.6694,1.7238,1.7616,1.7921,1.8035,1.8066,1.759,0.0,1.598,1.6063,1.5584,0.0,0.0,0.0,0.0,1.6974,1.7616,1.7802,1.8055,1.8522,1.859,1.8398,1.7921,1.789,1.7626,1.7033,1.6711,1.6512,1.6398,1.6398,1.6247,1.5891,0.0,0.0,0.0,0.0,0.0,0.0,0.0,0.0,0.0,0.0,0.0,0.0,0.0,0.0,0.0,0.0,0.0,0.0,0.0,0.0,0.0,0.0,0.0,0.0,0.0,0.0,0.0,0.0,0.0,1.5039,1.5097,0.0,0.0,0.0,0.0,1.5097,1.5567,1.5854,1.5842,1.6116,1.658,1.7278,1.7076,1.7218,1.7718,1.8438,1.8686,1.843,1.9225,1.9431,1.9112,1.916,1.9145,1.9127,1.8872,1.8902,1.9004,1.7214,1.6479,1.6409,1.5616,1.5305,1.5343,1.555,1.5632,1.5694,1.6174,1.6326,1.6388,1.6723,1.6331,1.5714,1.5581,1.4716,0.0,0.0,1.5331,1.5349,1.6575,1.695,1.7203,1.8102,1.8346,1.848,1.8926,1.9036,1.8739,0.0,1.7585,1.7451,1.6971,0.0,1.73,1.6492,1.7083,1.7657,1.7699,1.8092,1.8543,1.8998,1.9067,1.8864,1.8398,1.8366,1.7968,1.7053,1.6981,1.6804,1.6409,1.6398,1.6392,1.6367,1.6357,0.0,0.0,0.0,0.0,0.0,0.0,0.0,0.0,0.0,0.0,0.0,0.0,0.0,0.0,0.0,0.0,0.0,0.0,0.0,0.0,0.0,0.0,0.0,0.0,0.0,0.0,0.0,0.0,1.559,1.5877,0.0,1.6072,1.6072,1.6209,1.6555,1.6762,1.6991,1.7298,1.7737,1.8093,1.8359,1.8605,1.8825,1.9022,1.9575,1.9812,1.9734,2.0358,2.0459,2.0104,2.0381,2.035,2.0127,2.0595,2.0853,2.0864,1.9943,1.8779,1.7508,1.6915,1.6689,1.673,1.7118,1.7106,1.6973,1.7408,1.7413,1.7259,1.7399,1.688,1.6237,1.6461,1.622,1.595,1.6407,1.665,1.7021,1.8081,1.835,1.8578,1.9462,1.9924,2.0182,2.0348,2.0389,2.0379,2.0341,1.9141,1.8009,1.7533,1.7595,1.7595,1.728,1.7761,1.8257,1.8557,1.8998,1.9454,1.9893,1.9703,1.9482,1.9316,1.8756,1.8123,1.7492,1.7182,1.681,1.6409,1.6398,1.6474,1.6648,1.6488,1.639,0.0,0.0,0.0,0.0,0.0,0.0,0.0,0.0,0.0,0.0,0.0,0.0,0.0,0.0,0.0,0.0,0.0,0.0,0.0,0.0,0.0,0.0,0.0,0.0,0.0,0.0,1.6039,1.6373,1.6682,1.6932,1.7091,1.7114,1.7252,1.7611,1.7808,1.8035,1.8352,1.8885,1.9229,1.9401,1.9933,2.0197,2.0197,2.0848,2.1089,2.0913,2.1606,2.172,2.1331,2.1748,2.1704,2.1343,2.1914,2.2163,2.2129,2.1629,2.0724,1.9532,1.8437,1.8005,1.8057,1.8416,1.8511,1.8568,1.9135,1.9025,1.8668,1.8928,1.8438,1.7772,1.7878,1.7926,1.7942,1.7942,1.8386,1.9027,1.9817,2.0003,2.0159,2.0752,2.0992,2.1137,2.1292,2.1209,2.1189,2.1488,2.0348,1.9116,1.8516,1.8779,1.8883,1.8262,1.8816,1.9371,1.9527,1.9817,2.01,2.0372,2.0162,1.9941,1.9803,1.9496,1.8847,1.7771,1.7781,1.7451,1.6562,1.6702,1.6847,1.7038,1.7023,1.7155,1.747,0.0,0.0,0.0,0.0,0.0,0.0,0.0,0.0,0.0,0.0,0.0,0.0,0.0,0.0,0.0,0.0,0.0,0.0,0.0,0.0,0.0,0.0,0.0,1.5911,1.5945,1.6336,1.7338,1.7465,1.7645,1.8109,1.8155,1.8155,1.8189,1.8664,1.8968,1.8988,1.947,1.9964,2.0419,2.0944,2.1224,2.1247,2.2236,2.2455,2.1929,2.2949,2.3184,2.2736,2.3218,2.3184,2.2748,2.2759,2.2771,2.2725,2.2209,2.2306,2.2547,2.0202,1.9299,1.9336,1.9459,1.9837,2.0396,2.1311,2.1099,2.0574,2.1365,2.111,2.0373,1.9896,1.982,1.9879,1.9851,2.0466,2.1215,2.1681,2.1806,2.1806,2.1835,2.1495,2.1298,2.1754,2.1495,2.1184,2.1158,2.1166,2.0884,1.9969,2.0904,2.1155,1.9392,2.0245,0.0,2.0485,2.0423,2.0434,2.0444,2.0434,2.0265,1.9855,2.0594,2.012,1.7879,1.8848,1.8696,1.6935,1.7297,1.7541,1.7541,1.7997,1.8425,1.8817,0.0,0.0,0.0,0.0,0.0,0.0,0.0,0.0,0.0,0.0,0.0,0.0,0.0,0.0,0.0,0.0,0.0,0.0,0.0,0.0,0.0,0.0,1.6403,1.6403,1.7034,1.7733,1.8416,1.883,1.9129,1.9252,1.9264,1.9562,2.0289,2.0113,2.032,2.1039,2.0898,2.1001,2.1475,2.1624,2.1893,2.2277,2.2897,2.2966,2.2478,2.35,2.37,2.323,2.3735,2.3913,2.3816,2.4154,2.4303,2.4281,2.4136,2.4159,2.4079,2.1972,2.1407,2.1743,2.1781,2.1733,2.1704,2.2064,2.1785,2.1359,2.1984,2.2025,2.177,2.1282,2.1389,2.1614,2.1282,2.1111,2.1196,2.1965,2.1947,2.1885,2.2523,2.2827,2.2944,2.2776,2.2875,2.2905,2.2671,2.2569,2.2054,2.0487,2.0537,2.062,2.0113,0.0,0.0,2.0878,2.0909,2.1033,2.1375,2.1106,2.0723,2.0258,2.0411,1.9957,1.8654,1.9109,1.9065,1.8274,1.8372,1.8448,1.8448,1.8764,1.9029,0.0,0.0,0.0,0.0,0.0,0.0,0.0,0.0,0.0,0.0,0.0,0.0,0.0,0.0,0.0,0.0,0.0,0.0,0.0,0.0,0.0,0.0,1.677,1.7389,1.7838,1.8217,1.871,1.9436,1.9803,2.0079,2.0301,2.0504,2.0859,2.145,2.141,2.1617,2.2197,2.1978,2.1955,2.2237,2.2633,2.2811,2.2702,2.3803,2.3907,2.3018,2.4246,2.4434,2.3758,2.4269,2.4395,0.0,2.4487,2.4613,2.4602,2.4366,2.44,0.0,0.0,0.0,0.0,0.0,2.314,2.2575,2.3234,2.2885,2.2249,2.2921,2.3034,2.2826,2.2353,2.2546,2.2859,2.2384,2.2332,2.253,2.3054,2.2999,2.2951,2.3471,2.3629,2.3637,2.3406,2.3244,2.3141,2.3121,0.0,0.0,2.1411,2.1414,2.1364,2.0785,2.1023,2.1377,0.0,2.1636,2.1815,2.2258,2.2065,2.1705,2.1238,2.1311,0.0,0.0,0.0,1.9914,1.9286,1.9264,0.0,0.0,0.0,1.9914,0.0,0.0,0.0,0.0,1.9486,1.9225,0.0,0.0,0.0,0.0,0.0,0.0,0.0,0.0,0.0,0.0,0.0,0.0,0.0,0.0,0.0,0.0,1.7664,1.865,1.9711,1.9493,1.9574,2.0454,2.0511,2.071,2.1305,2.1697,2.194,2.2055,2.2455,2.2725,2.2782,0.0,0.0,0.0,0.0,2.3787,2.2955,2.4728,2.4905,2.351,2.4996,2.521,2.4292,2.4774,2.4756,2.4372,2.4372,2.4372,2.4326,2.3861,2.3941,2.4361,2.4235,2.42,2.4246,2.4682,2.4068,0.0,0.0,0.0,0.0,2.4018,2.4032,2.3666,2.3192,2.3416,2.373,2.3284,2.3706,2.431,2.4379,2.4329,2.431,2.4379,2.4103,2.3818,2.379,2.3194,2.2759,2.304,2.2791,2.2515,2.2478,2.2813,2.2694,2.1429,2.1967,0.0,2.2475,2.2478,2.2609,2.2964,0.0,0.0,2.2349,2.2652,2.2185,2.0534,2.1024,2.0983,2.016,2.007,2.0234,2.0656,2.0667,2.0839,2.119,2.1247,2.1282,2.1266,2.0561,2.0204,0.0,0.0,0.0,0.0,0.0,0.0,0.0,0.0,0.0,0.0,0.0,0.0,0.0,0.0,0.0,1.8242,1.8988,1.9746,2.0764,2.1146,2.1394,2.1589,2.1289,2.1408,2.2311,2.2111,2.2238,2.3052,2.2857,2.2857,2.3235,2.3258,0.0,2.389,2.4097,2.4292,2.4457,2.4847,2.4728,2.4062,0.0,0.0,2.4767,2.5306,2.549,2.5417,2.5417,2.5417,2.5406,2.5295,2.5318,2.5337,2.451,2.42,2.4212,2.4303,2.4175,2.4041,2.468,2.4478,2.4041,2.4595,2.4718,2.4565,2.4161,2.4326,0.0,2.4163,2.3921,2.3828,2.4155,2.3996,2.3828,2.4155,2.4464,2.4593,2.4332,2.4337,2.4258,2.374,2.3488,2.3261,2.2945,2.2703,2.245,2.2194,2.2292,2.2528,2.2844,2.2889,2.2908,2.2983,2.3001,2.2805,2.2349,2.262,2.2533,2.1861,2.1783,2.1704,2.1526,2.1147,2.0991,2.1078,2.1078,2.1126,2.119,2.1583,2.1762,2.175,2.1241,2.0812,0.0,0.0,0.0,0.0,0.0,0.0,0.0,0.0,0.0,0.0,0.0,1.6014,0.0,0.0,1.7859,1.9401,2.0105,2.0795,2.1811,2.2145,2.2111,2.1606,2.1783,2.2035,2.2271,2.2519,2.2857,2.3355,2.3425,2.3546,2.3792,2.3803,2.3918,2.4189,2.443,2.4556,2.4556,2.5042,2.4935,2.42,2.4958,2.505,2.4568,2.4832,2.4958,2.4958,2.4958,2.4958,2.4958,2.4958,2.4958,2.49,2.4395,2.451,2.4958,2.4958,2.4786,2.459,2.4832,2.4602,2.4235,2.4476,2.4556,2.4519,2.4309,2.439,2.4519,2.4309,2.4072,2.3952,2.4152,2.4226,2.4286,2.4501,2.4928,2.5257,2.5097,2.5028,2.494,2.4779,2.4336,2.4003,2.4041,2.3696,2.3237,2.2772,2.2703,2.2852,2.3242,2.3298,2.3372,2.3574,2.3593,2.3521,2.3264,2.3171,2.2909,2.248,2.2359,2.2306,2.2306,2.2081,2.1949,2.1949,2.1949,2.1949,2.1949,2.2196,2.2306,2.2294,2.2332,2.2101,0.0,0.0,0.0,0.0,0.0,0.0,0.0,0.0,1.6198,1.6198,1.6565,1.7058,1.7589,1.8093,1.8879,2.0331,2.091,2.1512,2.2426,2.2536,2.2208,2.1305,2.2098,2.2575,2.2215,2.2926,2.3442,2.3545,2.3971,2.42,2.42,2.4281,2.4338,2.4338,2.4698,2.4728,2.4338,2.5061,2.5004,2.42,2.459,2.4568,2.42,2.42,2.42,2.42,2.42,2.4246,2.4326,2.4235,2.4246,2.4326,2.4235,2.4694,2.5417,2.5417,2.5153,2.4756,2.4756,2.4579,2.4315,2.4223,2.4326,2.4453,2.4258,2.4258,2.4338,2.4338,2.4338,2.4361,2.4464,2.4774,2.5073,2.5073,2.5474,2.5888,2.5972,2.5669,2.5486,2.5902,2.5358,2.492,2.5306,2.5126,2.4587,2.355,2.3329,2.3423,2.3812,2.3759,2.3842,2.4182,2.42,2.42,2.42,2.3803,2.339,2.3023,2.3,2.3011,2.3011,2.302,2.3029,2.3029,2.3029,2.3029,2.3029,2.3123,2.3113,2.3011,2.3556,2.3396,1.6814,1.6262,1.5756,1.5346,1.5484,1.5739,0.0,0.0,1.7222,1.7222,1.7609,1.81,1.8632,1.916,1.9876,2.0937,2.1155,2.1369,2.1922,2.1991,2.1784,2.1259,2.2098,2.2834,2.3201,2.3321,2.3602,2.4074,2.4166,2.42,2.42,2.4602,2.4813,2.4813,2.487,2.487,2.4813,2.4522,2.4315,2.42,2.4246,2.4246,2.42,2.42,2.42,2.42,2.42,2.4441,2.4797,2.4372,2.4453,2.4767,2.4361,2.4269,2.4361,2.4361,2.4326,2.4281,2.4281,2.4522,2.4744,2.4338,2.4809,2.5371,2.4464,2.4499,2.4813,2.4813,2.4813,2.4928,2.5398,2.5559,2.5604,2.5604,2.6034,2.6528,2.6935,2.6683,2.6479,2.6947,2.6625,2.6273,2.633,2.6654,2.6425,2.5069,2.4515,2.4375,2.4701,2.4379,2.4152,2.42,2.42,2.42,2.42,2.4143,2.4085,2.4028,2.4097,2.4115,2.4115,2.4185,2.4206,2.4206,2.4206,2.4206,2.4206,2.4626,2.4587,2.4132,2.4606,2.4073,1.7,1.6767,1.6587,1.6295,1.65,1.6934,1.7507,1.7966,1.8359,1.8669,1.8896,1.918,1.9688,1.9964,2.0435,0.0,2.1606,2.1778,2.2294,2.2363,2.2081,2.1282,2.2098,2.2782,2.2972,2.3235,2.3614,2.4154,2.42,2.42,2.42,2.4395,2.4499,2.4499,2.4499,2.4499,2.4499,2.4292,2.42,2.42,2.42,2.42,2.42,2.42,2.42,2.42,2.42,2.4315,2.4487,2.4281,2.4487,2.4847,2.4384,2.4556,2.5004,2.4418,2.4372,2.4659,2.4969,2.5191,2.5375,2.5505,2.5601,2.5616,2.521,2.5203,2.544,2.5727,2.5838,2.5953,2.6442,2.6786,2.7036,2.7036,2.7415,2.7828,2.8035,2.792,2.7828,2.8035,2.7679,2.7458,2.7734,2.7713,2.7456,2.6889,2.6359,2.5975,2.5853,2.5383,2.5073,2.5073,2.4797,2.4721,2.5061,2.4533,2.42,2.42,2.4227,2.4254,2.4254,2.4563,2.4754,2.4754,2.5095,2.5265,2.5265,2.547,2.546,2.5248,2.542,2.4989,1.7466,1.7441,1.7457,1.7239,1.7494,1.8003,1.8724,1.9103,1.9424,1.9815,1.9895,1.9998,2.0343,2.0282,2.0488,2.136,2.1498,2.167,2.2208,2.2162,2.1794,2.1075,2.1622,2.2127,2.2265,2.2966,2.3614,2.4154,2.42,2.42,2.42,2.42,2.42,2.42,2.42,2.42,2.42,2.42,2.42,2.42,2.42,2.4269,2.4395,2.4545,2.4464,2.4212,2.4636,2.482,2.4832,2.4969,2.5233,2.5478,2.5015,2.5268,2.583,2.5096,2.4958,2.5169,2.5578,2.5807,2.598,2.6367,2.6424,2.6313,2.6155,2.6212,2.6416,2.6803,2.6907,2.6987,2.7325,2.7713,2.7964,2.7805,2.8046,2.8367,2.8643,2.8482,2.8379,2.8643,2.831,2.8222,2.8899,2.8711,2.8526,2.8674,2.8226,2.7542,2.6625,2.6171,2.5922,2.5922,2.5685,2.5762,2.6356,2.5301,2.4761,2.5116,2.4847,2.4736,2.488,2.5406,2.5692,2.5692,2.6109,2.6346,2.6346,2.6346,2.626,2.6121,2.6121,2.5809,1.838,1.8308,1.8252,1.8177,1.8513,1.885,1.8885,1.9654,2.0351,2.0373,2.0373,2.0373,2.0396,2.0033,1.9884,2.0377,2.0458,2.063,2.1167,2.0806,2.0454,2.0419,2.0442,2.0676,0.0,2.2553,2.3614,2.4154,2.42,2.42,2.42,2.42,2.42,2.42,2.42,2.42,2.42,2.42,2.42,2.42,2.42,2.4441,2.4912,2.5409,2.513,2.4281,2.5769,2.6432,2.6478,2.6912,2.713,2.7084,2.6608,2.6455,2.6478,2.6444,2.6114,2.5673,2.5685,2.6037,2.6478,2.6501,2.7148,2.7837,2.7314,2.7529,2.7941,2.7952,2.7952,2.7964,2.7975,2.7987,2.7862,2.7348,2.7245,2.752,2.8494,2.7922,2.7532,2.8517,2.831,2.8391,2.9557,2.9703,2.9815,3.0345,2.9967,2.8872,2.6777,2.649,2.6478,2.6478,2.6875,2.7426,2.8159,2.6644,2.6194,2.7422,2.6451,2.6082,2.6594,2.7138,2.7423,2.7423,2.744,2.744,2.744,2.744,2.7188,2.6692,2.6692,2.6393,0.0,0.0,2.0172,1.9927,2.0374,2.097,2.1346,2.141,2.1303,2.099,2.0404,1.9826,1.947,1.929,1.9347,1.9849,2.0205,2.0584,2.1121,2.1036,2.0806,2.0431,2.0699,0.0,0.0,0.0,0.0,2.3625,2.4005,2.42,2.42,2.4499,2.4522,2.42,2.4499,2.4843,2.5199,2.4836,2.5169,2.6178,2.5501,2.5291,2.5409,2.4935,2.4889,2.5233,2.5739,2.6171,2.6513,2.6677,2.7116,2.7644,2.6815,2.7091,2.7895,2.7219,2.7082,2.7219,2.7219,2.7105,2.7082,2.7736,2.7987,2.8033,2.8161,2.8322,2.854,2.8896,2.8735,2.854,2.8896,2.8723,2.8413,2.8241,2.8207,2.8299,2.8632,2.8436,2.8437,2.9199,2.9526,2.9765,3.0136,3.0889,3.1226,3.0712,2.9714,2.8827,2.8242,2.8471,2.8684,2.8684,2.8949,2.9168,2.9281,2.783,2.7255,2.8087,2.6302,2.5672,2.6668,2.6529,2.6616,2.6952,2.7323,2.749,2.749,2.749,2.7406,2.7222,2.6867,2.6594,1.951,2.0484,2.1551,2.1217,2.1664,2.2237,2.2375,2.2019,2.1502,2.1013,1.9964,1.9077,1.8919,1.8612,1.8517,1.9031,1.9387,1.9892,2.0783,2.076,2.0726,2.0913,2.1238,2.1571,0.0,0.0,0.0,2.3654,2.4016,2.4269,2.4441,2.4916,2.5042,2.4751,2.521,2.5635,2.598,2.5635,2.5876,2.666,2.6209,2.5888,2.5673,2.5222,2.536,2.6003,2.637,2.6723,2.7056,2.7412,2.7952,2.8481,2.7826,2.8023,2.862,2.7968,2.7851,2.7975,2.7782,2.7621,2.7578,2.8241,2.8366,2.832,2.8609,2.87,2.8769,2.9114,2.8964,2.8735,2.8919,2.87,2.839,2.8218,2.8151,2.8328,2.8963,2.8947,2.9056,2.99,3.0356,3.0658,3.0873,3.1727,3.2107,3.1224,2.9945,2.9085,2.9035,2.9284,2.9577,2.9806,2.99,3.0114,3.0455,2.8995,2.8423,2.9284,2.7322,2.6493,2.7278,2.6991,2.684,2.6969,2.7323,2.749,2.749,2.749,2.749,2.749,2.7138,2.6884,2.0836,2.1686,2.2414,2.2089,2.238,2.2598,2.2037,2.1553,2.1029,2.0412,1.912,1.8249,0.0,0.0,1.7566,1.8052,1.8155,1.8719,2.0259,2.009,2.0343,0.0,0.0,0.0,0.0,0.0,0.0,2.4189,0.0,2.4441,2.4916,2.5467,2.5777,2.5777,2.6298,2.6593,2.6616,2.6651,2.6378,2.5811,2.6309,2.6275,2.5788,2.6252,2.6513,2.6639,2.755,2.801,2.8159,2.9068,2.9481,2.9504,2.947,2.9148,2.87,2.8666,2.8379,2.7929,2.7383,2.752,2.7964,2.7998,2.8287,2.8666,2.8689,2.87,2.87,2.87,2.8677,2.8551,2.8125,2.8008,2.7879,2.7366,2.7304,2.7786,2.9454,2.9424,2.9419,3.0544,3.0819,3.1104,3.18,3.2309,3.2428,3.1952,3.0774,2.9772,2.9303,2.9088,2.9251,2.9918,2.9897,3.0346,3.1595,3.0157,2.9715,3.0969,2.938,2.8423,2.8473,2.8395,2.809,2.7555,2.7516,2.749,2.749,2.749,2.749,2.749,2.749,2.7222,2.2203,2.3081,2.3702,2.352,2.3335,2.2983,2.21,2.1553,2.0714,1.9028,1.8373,1.7903,1.7311,0.0,0.0,1.8552,1.902,0.0,2.1314,2.1401,0.0,2.2398,0.0,2.2639,2.2983,2.3258,0.0,0.0,2.471,2.4958,2.5467,2.6339,2.682,2.682,2.7334,2.7791,2.8147,2.855,2.8287,2.7403,2.7151,2.6947,2.6798,2.6178,2.6519,2.7608,2.7472,2.8069,2.9102,2.8964,2.9137,2.9458,2.9056,2.8827,2.8654,2.832,2.8113,2.7929,2.7383,2.7291,2.7463,2.7862,2.809,2.823,2.8586,2.87,2.87,2.87,2.8436,2.8159,2.8033,2.8063,2.8103,2.7993,2.8626,2.9411,2.9841,3.0159,3.0573,3.1361,3.1823,3.2414,3.3545,3.3067,3.2684,3.3074,3.2471,3.1751,3.119,3.0605,3.0507,3.1177,3.1655,3.1866,3.1696,3.0925,3.0776,3.1537,2.9549,2.8736,2.9639,2.8474,2.7928,2.8164,2.7729,2.749,2.749,2.749,2.749,2.749,2.749,2.7423,2.282,2.3639,2.4337,2.4138,2.3589,2.2828,2.1824,2.0864,1.9795,1.8398,1.7743,1.7399,1.7286,1.7335,1.7578,0.0,0.0,0.0,2.1039,2.1429,2.203,0.0,2.3552,0.0,2.3746,2.4354,2.4912,0.0,2.5249,2.557,2.6316,2.7314,2.7853,2.7853,2.8379,2.8769,2.9045,2.9561,2.9194,2.7998,2.769,2.7323,2.6887,2.6511,2.6967,2.7987,0.0,2.8299,2.9435,2.8689,2.8827,2.9469,2.9232,2.8831,2.8387,2.8393,2.8078,2.761,2.7302,2.721,2.7256,2.7564,2.7805,2.8021,2.8035,2.8036,2.8036,2.8036,2.806,2.8099,2.8099,2.8551,2.8996,2.8996,2.9699,3.0486,3.104,3.1376,3.185,3.2767,3.2965,3.3287,3.4244,3.3812,3.3467,3.3899,3.3207,3.2629,3.2607,3.1774,3.1326,3.1694,3.1834,3.177,3.1421,3.1119,3.108,3.1432,3.0208,2.9673,3.0082,2.8977,2.8368,2.8403,2.7807,2.749,2.749,2.749,2.749,2.749,2.749,2.749,2.3172,2.3837,2.4485,2.4198,2.3363,2.2311,2.1247,1.9899,1.8713,1.8043,1.7307,1.7045,1.7871,1.7737,1.7543,1.7683,0.0,1.8845,2.0385,2.1059,2.2075,2.3879,2.4522,2.4682,2.4326,2.5563,2.6263,2.5914,2.6017,2.6476,2.736,2.8299,2.8838,2.8896,2.9355,2.9561,2.9504,2.9895,2.9435,2.809,2.809,2.763,2.6792,2.7151,2.7644,2.8193,0.0,0.0,2.9424,2.8423,2.8558,2.9437,2.9543,2.8944,2.8103,2.8607,2.8181,2.7322,2.7231,2.7272,2.7322,2.7322,2.7591,2.7826,2.7439,2.7322,2.7322,2.7322,2.7876,2.8435,2.8435,2.9334,3.0242,3.0242,3.072,3.1455,3.2504,3.2794,3.3152,3.4189,3.4018,3.3849,3.4319,3.4397,3.4397,3.4397,3.3519,3.3044,3.363,3.2579,3.1802,3.1805,3.1325,3.1016,3.0988,3.1005,3.1005,3.1005,3.1005,3.0764,3.0249,2.9693,2.9135,2.8534,2.7941,2.7585,2.749,2.749,2.749,2.749,2.749,2.749,2.4371,2.441,2.4192,2.3874,2.2919,2.167,2.0289,1.9416,1.8506,1.7137,1.7376,1.7768,1.7553,1.7769,1.826,1.9149,1.9367,1.9953,2.144,2.2099,2.2696,0.0,2.3998,2.4441,2.4751,2.5429,0.0,0.0,0.0,2.8264,2.8436,2.9022,2.9538,2.9918,3.0021,2.9894,2.9504,2.9584,2.9274,2.8574,2.8574,2.8482,2.8299,2.7989,2.8377,2.9171,0.0,0.0,2.9424,2.8423,2.8405,2.9002,2.9032,2.8668,2.8169,2.829,2.819,2.7958,2.7383,2.7566,2.8039,2.8039,2.7705,2.7416,2.7893,2.8039,2.8039,2.8039,2.8831,2.9694,2.9694,3.0572,3.1483,3.1483,3.2321,3.3159,3.3365,3.3783,3.4142,3.4364,3.4319,3.4293,3.4384,3.4397,3.4397,3.4397,3.4223,3.4116,3.4254,3.281,3.1802,3.1805,3.1701,3.1466,3.1039,3.1005,3.1005,3.1005,3.1005,3.0953,3.0843,3.0275,2.9701,2.9148,2.856,2.8007,2.749,2.749,2.749,2.749,2.749,2.749,2.3961,2.416,2.4092,2.3646,2.2534,2.1151,1.9634,1.8681,1.7829,1.6805,1.7207,1.7735,1.7758,1.7951,1.8364,1.9149,1.9275,1.9895,2.1642,2.2117,2.2765,2.4033,2.4652,2.5073,2.5283,2.6508,2.7369,0.0,0.0,2.9378,2.9125,2.9596,2.9975,3.0182,3.0193,3.0078,2.9871,2.9619,2.9366,2.9114,2.8827,2.8574,2.8343,2.8366,2.8663,2.9124,2.8066,0.0,2.9487,2.8138,2.8086,2.8913,2.8984,2.8671,2.8279,2.891,2.8744,2.8199,2.8195,2.8395,2.8732,2.9028,2.8486,2.7788,2.8099,2.8651,2.9137,2.9137,3.001,3.0936,3.0936,3.183,3.2732,3.2732,3.3383,3.4018,3.4018,3.4214,3.4397,3.4397,3.4397,3.4397,3.4397,3.4397,3.4397,3.4397,3.4397,3.4397,3.4397,3.3667,3.2924,3.2332,3.2261,3.1927,3.1071,3.1005,3.1005,3.1005,3.1005,3.1005,3.1005,3.0419,2.9988,2.9714,2.8861,2.8416,2.8438,2.7807,2.7663,2.7968,2.765,2.749,2.3294,2.3792,2.4051,2.3413,2.2214,2.0764,1.9103,1.8116,1.7369,1.6724,1.7117,1.7656,1.8029,1.8189,1.8444,0.0,1.9149,1.9815,2.1509,2.2025,2.28,2.4388,2.5237,0.0,2.5865,2.7495,0.0,0.0,0.0,0.0,2.9665,3.0009,3.0193,3.0193,3.0193,3.009,2.9872,2.9734,2.9538,2.932,2.9125,2.8769,2.8331,2.8736,2.896,2.9021,2.8355,0.0,0.0,2.7999,2.802,2.8967,2.9194,2.8996,2.8692,2.9651,2.9399,2.8633,2.8976,2.9179,2.9348,2.9697,2.9184,2.8427,2.8546,2.9255,3.003,3.0154,3.1072,3.2025,3.2153,3.2981,3.3757,3.3757,3.4084,3.4397,3.4397,3.4397,3.4397,3.4397,3.4397,3.4397,3.4397,3.4397,3.4397,3.4397,3.4397,3.4397,3.4397,3.4397,3.4005,3.3006,3.2881,3.2424,3.1261,3.1293,3.1267,3.1018,3.1123,3.1117,3.1005,3.0537,3.0218,3.01,2.9217,2.8952,2.9292,2.8229,2.8007,2.8573,2.7981,2.7689,2.3404,2.3792,2.3959,2.2995,2.1983,2.0672,1.8639,1.8098,1.7754,1.6805,1.7378,1.804,1.8098,1.8504,1.9,0.0,0.0,2.0492,2.1178,2.2415,2.3338,2.3522,0.0,0.0,2.6367,2.7412,0.0,0.0,0.0,0.0,3.0135,3.017,3.0193,3.0193,3.0193,2.9746,2.885,2.9711,2.9688,2.8781,2.9665,2.9825,2.9365,2.9544,2.9607,2.9575,0.0,0.0,0.0,2.8344,2.8478,2.9136,2.9703,2.9883,2.9845,2.996,2.9922,2.9755,2.9257,2.9464,2.9845,2.9335,2.9101,2.9121,2.9671,2.9921,3.0099,3.0663,3.1697,3.2736,3.3284,3.3873,3.4332,3.4332,3.4358,3.4397,3.4397,3.4397,3.4397,3.4397,3.4397,3.4397,3.4397,3.4397,3.4397,3.4397,3.4397,3.4397,3.4397,3.4397,3.4175,3.3574,3.3509,3.3038,3.1823,3.2241,3.2104,3.1071,3.1451,3.1516,3.1031,3.0953,3.066,3.0113,2.9996,2.9727,2.9292,2.8638,2.8625,2.9201,2.8599,2.8324,2.2672,2.358,2.3948,2.2955,2.1702,2.0262,1.8501,1.7882,1.746,1.6747,1.7399,1.8098,1.8098,1.8258,1.8699,1.9551,1.9585,0.0,2.1422,2.1881,2.2627,2.4125,2.4836,0.0,0.0,0.0,0.0,0.0,0.0,0.0,2.9757,3.0055,3.0067,2.9791,3.0044,2.986,2.9183,2.9584,2.9622,2.9324,2.9712,2.9794,2.9617,2.9762,2.9831,2.9762,0.0,0.0,0.0,2.859,2.8771,2.9658,2.9922,2.9999,3.0056,3.0451,3.0355,3.0068,3.0566,3.0875,3.1042,3.0797,3.0975,3.1173,3.0692,3.1303,3.2224,3.2444,3.3092,3.3783,3.4018,3.4241,3.4397,3.4397,3.4397,3.4397,3.4397,3.4397,3.4397,3.4397,3.4397,3.4397,3.4397,3.4397,3.4397,3.4397,3.4397,3.4397,3.4397,3.4397,3.4319,3.4097,3.3783,3.326,3.2404,3.2555,3.2346,3.1529,3.168,3.1568,3.1031,3.1005,3.0882,3.066,3.0302,3.0171,3.0325,2.9397,2.9222,2.9766,2.9214,2.8939,2.1381,2.2639,2.3316,2.2461,2.122,1.9792,1.8237,1.7634,1.7245,1.6701,1.7399,1.8098,1.8098,1.8364,1.8811,1.9574,1.9634,2.0067,2.1486,2.1778,2.2501,2.4251,0.0,2.5842,0.0,0.0,0.0,0.0,0.0,0.0,0.0,2.9504,2.9607,2.9274,2.9745,2.9699,2.9056,2.9343,2.9475,2.9469,2.9623,2.9728,2.9771,3.0041,3.0084,2.9891,0.0,0.0,0.0,2.9086,2.9223,3.0018,3.0222,3.0298,3.0355,3.0823,3.0794,3.065,3.15,3.1797,3.1836,3.2006,3.2339,3.2567,3.1904,3.2451,3.3365,3.3555,3.3979,3.4397,3.4397,3.4397,3.4397,3.4397,3.4397,3.4397,3.4397,3.4397,3.4397,3.4397,3.4397,3.4397,3.4397,3.4397,3.4397,3.4397,3.4397,3.4397,3.4397,3.4397,3.4397,3.4397,3.4058,3.3587,3.3032,3.3104,3.2881,3.2117,3.2235,3.1999,3.1274,3.1248,3.1156,3.1005,3.0594,3.0594,3.1005,3.0024,2.9823,3.0354,2.9797,2.9536,1.9574,2.0798,2.1807,2.1323,2.0465,1.9298,1.7763,1.7394,1.7245,1.6701,1.7399,1.8098,1.8098,1.8974,1.9692,1.9688,2.0519,2.1178,2.1201,2.2467,2.3396,0.0,0.0,2.6086,2.7119,0.0,0.0,0.0,0.0,0.0,0.0,2.8459,2.8712,2.8712,2.9228,2.9022,2.8033,2.8987,2.929,2.8907,2.9445,2.9755,2.9922,3.0518,3.0491,0.0,0.0,0.0,0.0,2.9999,2.9999,3.0056,3.0729,3.0986,3.0986,3.1005,3.132,3.1778,3.1797,3.1797,3.1902,3.2502,3.2685,3.2803,3.3391,3.3169,3.2829,3.3417,3.3979,3.4397,3.4397,3.4397,3.4397,3.4397,3.4397,3.4397,3.4397,3.4397,3.4397,3.4397,3.4397,3.4397,3.4397,3.4397,3.4397,3.4397,3.4397,3.4397,3.4397,3.4397,3.4397,3.4397,3.4397,3.4175,3.3647,3.4071,3.3901,3.2751,3.3247,3.3051,3.1836,3.1797,3.1542,3.1018,3.0992,3.0992,3.1005,3.0393,3.0406,3.0979,3.0367,3.0087,1.79,1.8965,1.9815,1.9669,1.8865,1.79,1.706,1.6852,1.6806,1.6645,1.7399,1.8098,1.8098,1.8387,1.8733,1.9091,1.9738,0.0,0.0,0.0,0.0,2.3815,2.6209,2.7748,0.0,0.0,0.0,0.0,0.0,0.0,0.0,2.7805,2.7851,2.8216,2.8689,2.8664,2.801,2.9081,2.943,2.9042,3.0006,3.0281,2.9993,3.0644,0.0,0.0,0.0,0.0,0.0,3.019,3.0266,3.071,3.093,3.1222,3.1555,3.1555,3.1921,3.2476,3.2894,3.3038,3.3064,3.3247,3.3548,3.3822,3.3639,3.3718,3.3901,3.4084,3.4267,3.4397,3.4397,3.4397,3.4397,3.4397,3.4397,3.4397,3.4397,3.4397,3.4397,3.4397,3.4397,3.4397,3.4397,3.4397,3.4397,3.4397,3.4397,3.4397,3.4397,3.4397,3.4397,3.4397,3.4397,3.4332,3.4162,3.4293,3.4084,3.3352,3.3483,3.3064,3.185,3.2195,3.1967,3.1018,3.1346,3.1359,3.1005,3.0803,3.0803,3.1005,3.079,3.0725,1.6556,1.7579,1.8336,1.8336,1.7716,1.6968,1.6462,1.6472,1.6598,1.6598,1.7399,1.8098,1.8098,1.8432,1.8813,1.9149,0.0,0.0,0.0,0.0,0.0,2.4281,0.0,0.0,0.0,0.0,0.0,0.0,0.0,0.0,0.0,2.7383,2.7348,2.769,2.8172,2.8195,2.7702,2.8824,2.9308,2.9101,3.0048,3.0457,3.0394,3.0804,0.0,0.0,0.0,0.0,0.0,3.0545,3.0621,3.1005,3.1005,3.1339,3.1797,3.1797,3.2326,3.3091,3.347,3.3587,3.3626,3.3835,3.4123,3.4332,3.3992,3.4136,3.4397,3.4397,3.4397,3.4397,3.4397,3.4397,3.4397,3.4397,3.4397,3.4397,3.4397,3.4397,3.4397,3.4397,3.4397,3.4397,3.4397,3.4397,3.4397,3.4397,3.4397,3.4397,3.4397,3.4397,3.4397,3.4397,3.4397,3.4397,3.4397,3.4397,3.4254,3.3914,3.3901,3.347,3.2522,3.2842,3.2489,3.1326,3.1628,3.1542,3.1005,3.1005,3.1005,3.1005,3.1005,3.1005,0.0,1.6499,1.7187,1.7235,1.6864,1.638,1.5934,1.6244,0.0,1.6598,1.7399,1.8109,1.8144,1.8974,1.9669,1.9688,0.0,0.0,0.0,2.2093,0.0,0.0,2.627,0.0,0.0,0.0,0.0,0.0,0.0,0.0,0.0,2.721,2.721,2.721,2.7679,2.7722,2.7272,2.8345,2.9004,2.9179,2.9774,3.0394,3.1005,3.1005,0.0,0.0,0.0,0.0,0.0,3.1005,3.1005,3.1005,3.1044,3.1405,3.1863,3.1915,3.2653,3.3673,3.3673,3.3673,3.3731,3.4241,3.4397,3.4397,3.4397,3.4397,3.4397,3.4397,3.4397,3.4397,3.4397,3.4397,3.4397,3.4397,3.4397,3.4397,3.4397,3.4397,3.4397,3.4397,3.4397,3.4397,3.4397,3.4397,3.4397,3.4397,3.4397,3.4397,3.4397,3.4397,3.4397,3.4397,3.4397,3.4397,3.4397,3.4397,3.4397,3.4397,3.4397,3.4162,3.3613,3.3647,3.3091,3.1889,3.1863,3.1582,3.1005,3.1044,3.1044,3.1005,3.1005,3.1005,0.0,0.0,1.5188,1.5544,1.5556,1.5418,0.0,1.5968,1.6598,1.6598,1.7399,1.8237,1.8644,1.8919,1.9218,0.0,0.0,2.0595,2.0595,0.0,0.0,2.4326,2.6393,0.0,0.0,0.0,0.0,0.0,0.0,0.0,0.0,2.721,2.721,2.721,2.7325,2.7559,2.7958,2.8682,2.9315,2.9806,3.0451,3.0842,3.1005,3.1005,0.0,0.0,0.0,0.0,3.1005,3.1005,3.1005,3.1044,3.1451,3.1973,3.2542,3.3012,3.3626,3.4201,3.4201,3.4201,3.4228,3.4358,3.4397,3.4397,3.4397,3.4397,3.4397,3.4397,3.4397,3.4397,3.4397,3.4397,3.4397,3.4397,3.4397,3.4397,3.4397,3.4397,3.4397,3.4397,3.4397,3.4397,3.4397,3.4397,3.4397,3.4397,3.4397,3.4397,3.4397,3.4397,3.4397,3.4397,3.4397,3.4397,3.4397,3.4397,3.4397,3.4397,3.4397,3.4162,3.3613,3.3979,3.3666,3.2515,3.2489,3.1993,3.1005,3.1399,3.1399,3.1005,3.1005,3.1005,0.0,1.4913,1.4786,1.5039,1.5097,1.5097,1.5097,1.5716,1.6335,1.6552,1.723,1.8012,1.8759,1.8896,1.9152,0.0,2.024,0.0,0.0,0.0,2.3482,2.4418,0.0,0.0,0.0,0.0,0.0,0.0,0.0,0.0,0.0,2.721,2.721,2.721,2.7505,2.7837,2.8199,2.8799,2.9394,3.0018,3.0672,3.1005,3.1005,3.1005,0.0,0.0,0.0,0.0,3.1005,3.1005,3.1143,3.1405,3.168,3.2339,3.3117,3.3156,3.3692,3.4358,3.411,3.4188,3.4397,3.4397,3.4397,3.4397,3.4397,3.4397,3.4397,3.4397,3.4397,3.4397,3.4397,3.4397,3.4397,3.4397,3.4397,3.4397,3.4397,3.4397,3.4397,3.4397,3.4397,3.4397,3.4397,3.4397,3.4489,3.4763,3.458,3.4502,3.4776,3.4567,3.4397,3.4397,3.4397,3.4397,3.4397,3.4397,3.4397,3.4397,3.4397,3.4267,3.3979,3.4241,3.3862,3.2712,3.2685,3.2143,3.1005,3.1542,3.1529,3.1005,3.1005,3.1005,1.5097,1.5097,1.5097,1.5097,1.5154,1.5223,1.5223,1.5693,1.6232,1.6645,1.714,1.7796,1.8738,1.8979,0.0,0.0,0.0,0.0,2.2106,2.2307,2.3,2.4698,0.0,0.0,0.0,0.0,0.0,0.0,0.0,0.0,0.0,2.7165,2.721,2.721,2.7837,2.8227,2.8347,2.8937,2.9542,3.0152,3.0729,3.1005,3.1005,3.1005,3.1005,0.0,0.0,0.0,3.1005,3.1005,3.1274,3.168,3.1771,3.243,3.3273,3.2842,3.3365,3.4214,3.3849,3.4018,3.4397,3.4397,3.4397,3.4397,3.4397,3.4397,3.4397,3.4397,3.4397,3.4397,3.4397,3.4397,3.4397,3.4397,3.4397,3.4397,3.4397,3.4397,3.4397,3.4397,3.4397,3.4397,3.4397,3.4397,3.4607,3.5208,3.4868,3.475,3.5338,3.4894,3.4541,3.4541,3.445,3.4397,3.4397,3.4397,3.4397,3.4397,3.4397,3.4397,3.4397,3.4397,3.3901,3.2855,3.2927,3.2404,3.1267,3.1804,3.179,3.1267,3.1156,3.1117,1.5097,1.5097,1.5097,1.5097,1.5441,1.5785,1.5774,1.6499,1.7187,1.7256,1.7668,1.818,1.8793,1.9264,1.9757,0.0,0.0,2.2186,0.0,0.0,0.0,0.0,0.0,0.0,0.0,0.0,0.0,0.0,0.0,0.0,0.0,0.0,2.721,2.721,2.7837,2.8447,2.8956,2.9561,3.019,3.0842,3.0949,3.1005,3.1005,3.1005,3.1005,0.0,0.0,3.1005,3.1005,3.1005,3.1057,3.1169,3.1615,3.1915,3.2143,3.2555,3.3117,3.377,3.4149,3.4332,3.4397,3.4397,3.4397,3.4397,3.4397,3.4397,3.4397,3.4397,3.4397,3.4397,3.4397,3.4397,3.4397,3.4397,3.4397,3.4397,3.4397,3.4397,3.4397,3.4397,3.4397,3.4397,3.4397,3.4397,3.4607,3.5208,3.5221,3.5365,3.5913,3.5495,3.5155,3.5155,3.4698,3.4397,3.4397,3.4397,3.4397,3.4397,3.4397,3.4397,3.4397,3.4397,3.4097,3.347,3.3901,3.3574,3.2437,3.3025,3.3012,3.2424,3.1921,3.168,1.5097,1.5097,1.5097,1.5097,1.5292,1.5544,1.5832,1.6257,1.6739,1.7292,1.7565,0.0,0.0,0.0,1.9611,2.0668,0.0,2.296,0.0,0.0,0.0,0.0,0.0,0.0,0.0,0.0,0.0,0.0,0.0,0.0,0.0,0.0,2.7235,2.7318,2.8191,2.8976,2.9581,3.0209,3.071,3.1005,3.1005,3.1005,3.1005,3.1005,3.1005,3.1005,0.0,3.1005,3.1005,3.1005,3.1169,3.1451,3.1693,3.1993,3.2352,3.296,3.3156,3.3234,3.4097,3.4397,3.4397,3.4397,3.4397,3.4397,3.4397,3.4397,3.4397,3.4397,3.4397,3.4397,3.4397,3.4397,3.4397,3.4397,3.4397,3.4397,3.4397,3.4397,3.4397,3.4397,3.4162,3.4058,3.4345,3.4397,3.4698,3.56,3.573,3.594,3.6515,3.5835,3.5299,3.5299,3.4763,3.428,3.3979,3.4228,3.4397,3.4397,3.4397,3.4397,3.4397,3.4397,3.4149,3.36,3.4123,3.3835,3.2685,3.332,3.3287,3.2685,3.2424,3.2117,1.5097,1.5097,1.5097,1.5097,1.5188,1.5464,1.6107,1.6348,1.6715,1.7727,0.0,0.0,0.0,1.9091,0.0,2.1128,2.2507,0.0,0.0,0.0,0.0,0.0,0.0,0.0,0.0,0.0,0.0,0.0,0.0,0.0,0.0,0.0,2.7227,2.7177,2.8453,2.9355,2.9808,3.0446,3.0856,3.1005,3.1005,3.1005,3.1005,3.1005,3.1005,3.1005,3.1005,3.1005,3.1005,3.1005,3.1248,3.1602,3.1602,3.1895,3.2404,3.3117,3.3111,3.2855,3.4005,3.4397,3.4397,3.4397,3.4397,3.4397,3.4397,3.4397,3.4397,3.4397,3.4397,3.4397,3.4397,3.4397,3.4397,3.4397,3.4397,3.4397,3.4397,3.4397,3.4397,3.4397,3.4071,3.3953,3.4515,3.4607,3.4999,3.6136,3.6305,3.6541,3.7142,3.6201,3.5534,3.5678,3.5051,3.4437,3.4018,3.4241,3.4397,3.4397,3.4397,3.4397,3.4397,3.4397,3.4201,3.3796,3.4188,3.3966,3.3091,3.3548,3.3548,3.3111,3.296,3.2672,1.5097,1.5097,1.5097,1.5097,1.5464,1.6095,1.7061,1.7632,1.8249,1.931,0.0,0.0,0.0,1.9666,2.0626,2.1681,2.2719,0.0,0.0,0.0,0.0,0.0,0.0,0.0,0.0,0.0,0.0,0.0,0.0,0.0,0.0,0.0,0.0,2.6581,0.0,2.9207,2.9263,2.9864,3.0445,3.1005,3.1005,3.1005,3.1005,3.1005,3.1005,3.1005,3.1005,3.1005,3.1005,3.1005,3.1031,3.1071,3.1071,3.1065,3.1267,3.2346,3.2744,3.2855,3.4005,3.4397,3.4397,3.4397,3.4397,3.4397,3.4397,3.4397,3.4397,3.4397,3.4397,3.4397,3.4397,3.4397,3.4397,3.4397,3.4397,3.4397,3.4397,3.4397,3.4397,3.4397,3.4358,3.4528,3.5129,3.5234,3.5626,3.6763,3.6946,3.7155,3.7756,3.6789,3.6253,3.6828,3.5887,3.5221,3.5182,3.4698,3.4397,3.4397,3.4397,3.4397,3.4397,3.4397,3.4384,3.4345,3.4384,3.4358,3.428,3.4319,3.4319,3.4267,3.3757,3.3496,1.5097,1.5097,1.5097,1.5097,1.5246,0.0,0.0,1.7758,1.8318,1.9046,1.9539,0.0,0.0,0.0,2.1128,2.1796,0.0,0.0,0.0,0.0,0.0,0.0,0.0,0.0,0.0,0.0,0.0,0.0,0.0,0.0,0.0,0.0,0.0,2.6645,0.0,2.938,2.9757,2.9991,3.0406,3.1005,3.1005,3.1005,3.1005,3.1005,3.1005,3.1005,3.1005,3.1005,3.1005,3.1005,3.1005,3.1005,3.1005,3.1005,3.1097,3.1856,3.2385,3.2836,3.3613,3.4123,3.4397,3.4397,3.4397,3.4397,3.4397,3.4397,3.4397,3.4397,3.4397,3.4397,3.4397,3.4397,3.4397,3.4397,3.4397,3.4397,3.4397,3.4397,3.4397,3.4397,3.4397,3.458,3.5195,3.5574,3.607,3.6881,3.7325,3.7639,3.7874,3.7168,3.675,3.6985,3.5639,3.4894,3.526,3.4437,3.4031,3.4384,3.4397,3.4397,3.4397,3.4397,3.4397,3.4397,3.4397,3.4397,3.4397,3.4397,3.4397,3.4397,3.4188,3.3914,1.5097,1.5097,1.5097,1.5097,1.5223,0.0,1.7266,1.7999,1.8639,1.9639,2.0133,2.0293,1.9975,0.0,0.0,0.0,0.0,0.0,0.0,0.0,0.0,0.0,0.0,0.0,0.0,0.0,0.0,0.0,0.0,0.0,0.0,0.0,0.0,0.0,0.0,2.9148,2.9557,2.9557,2.9876,3.0469,3.0469,3.0652,3.1005,3.1005,3.1005,3.1005,3.1005,3.1005,3.1005,3.1005,3.1005,3.1005,3.1005,3.1005,3.1052,3.1608,3.2182,3.2777,3.3378,3.3953,3.4397,3.4397,3.4397,3.4397,3.4397,3.4397,3.4397,3.4397,3.4397,3.4397,3.4397,3.4397,3.4397,3.4397,3.4397,3.4397,3.4397,3.4554,3.4685,3.4685,3.4816,3.5129,3.573,3.6136,3.6593,3.7194,3.7639,3.79,3.79,3.7377,3.6998,3.6998,3.5757,3.5103,3.5521,3.4672,3.4293,3.4659,3.4685,3.4593,3.441,3.4397,3.4397,3.4397,3.4397,3.4397,3.4397,3.4397,3.4397,3.4397,3.4397,3.4201,1.5097,1.5097,1.5097,1.5108,0.0,0.0,1.7766,1.8515,1.9459,2.1486,2.1108,2.0408,2.0408,2.0852,0.0,0.0,0.0,0.0,0.0,0.0,0.0,0.0,0.0,0.0,0.0,0.0,0.0,0.0,0.0,0.0,0.0,0.0,0.0,0.0,0.0,0.0,2.8403,2.8403,2.8704,2.9292,2.9292,2.9894,3.0992,3.0992,3.0992,3.1005,3.1005,3.1005,3.1005,3.1005,3.1005,3.1005,3.1005,3.1005,3.1052,3.1608,3.2182,3.2777,3.3378,3.3953,3.4397,3.4397,3.4397,3.4397,3.4397,3.4397,3.4397,3.4397,3.4397,3.4397,3.4397,3.4397,3.4397,3.4397,3.4397,3.4397,3.4397,3.4868,3.5286,3.5299,3.573,3.6292,3.6894,3.7011,3.7207,3.7808,3.79,3.79,3.79,3.7377,3.7011,3.7011,3.6475,3.6109,3.6109,3.5626,3.5312,3.5312,3.5312,3.5038,3.4437,3.4397,3.4397,3.4397,3.4397,3.4397,3.4397,3.4397,3.4397,3.4397,3.4397,3.4397,1.5097,1.5097,1.5188,1.5579,0.0,0.0,0.0,1.8492,0.0,0.0,2.1433,2.1349,2.1024,0.0,0.0,0.0,0.0,0.0,0.0,0.0,0.0,0.0,0.0,0.0,0.0,0.0,0.0,0.0,0.0,0.0,0.0,0.0,0.0,0.0,0.0,0.0,2.8403,2.8403,2.8704,2.9292,2.8861,2.9261,3.0367,3.0367,3.0607,3.1005,3.1005,3.1005,3.1005,3.1005,3.1005,3.1005,3.1005,3.1005,3.1052,3.1608,3.2182,3.2777,3.3378,3.3953,3.4397,3.4397,3.4397,3.4397,3.4397,3.4397,3.4397,3.4397,3.4397,3.4397,3.4397,3.4397,3.4397,3.4397,3.4397,3.4397,3.4397,3.4541,3.4789,3.5221,3.573,3.6292,3.6894,3.7351,3.7691,3.7874,3.79,3.79,3.79,3.7743,3.7639,3.7639,3.709,3.6737,3.6737,3.6201,3.5861,3.5861,3.5861,3.5613,3.5051,3.462,3.4397,3.4397,3.4397,3.4397,3.4397,3.4397,3.4397,3.4397,3.4397,3.4397,1.5097,1.5269,1.5498,1.582,1.6542,1.7492,1.8632,0.0,0.0,0.0,2.1702,2.1652,2.1776,0.0,0.0,0.0,0.0,0.0,0.0,0.0,0.0,0.0,0.0,0.0,0.0,0.0,0.0,0.0,0.0,0.0,0.0,0.0,0.0,0.0,0.0,0.0,2.8033,2.8033,2.8229,2.8582,2.8216,2.8529,2.944,2.9892,3.0302,3.066,3.0895,3.1005,3.1005,3.1005,3.1005,3.1005,3.1005,3.1005,3.1044,3.1346,3.1843,3.2378,3.2757,3.326,3.3718,3.3718,3.3888,3.4071,3.4071,3.4228,3.4397,3.4397,3.4397,3.4397,3.4397,3.4397,3.4397,3.4397,3.4397,3.4397,3.4397,3.458,3.4933,3.5508,3.607,3.6658,3.726,3.7665,3.79,3.79,3.79,3.79,3.79,3.79,3.79,3.79,3.7364,3.6998,3.6998,3.6671,3.6462,3.6462,3.6462,3.6201,3.5639,3.5064,3.4633,3.4397,3.4397,3.4397,3.4397,3.4397,3.4397,3.4397,3.4397,3.4397,1.5097,1.5487,1.5911,1.5947,1.7117,0.0,1.8919,2.0442,2.1899,2.2392,0.0,2.1604,2.2461,0.0,0.0,0.0,0.0,0.0,0.0,0.0,0.0,0.0,0.0,0.0,0.0,0.0,0.0,0.0,0.0,0.0,0.0,0.0,0.0,0.0,0.0,0.0,2.749,2.749,2.749,0.0,2.749,2.7781,2.8364,2.9453,2.9988,3.0048,3.066,3.0927,3.0927,3.0979,3.1005,3.1005,3.1005,3.1005,3.1018,3.1039,3.1373,3.181,3.1863,3.2235,3.2685,3.2685,3.3064,3.3509,3.3509,3.3888,3.4332,3.4332,3.4358,3.4397,3.4397,3.4397,3.4397,3.4397,3.4397,3.4397,3.4397,3.4829,3.5391,3.5992,3.6541,3.7129,3.7795,3.79,3.79,3.79,3.79,3.79,3.79,3.79,3.79,3.79,3.7416,3.709,3.709,3.709,3.709,3.709,3.709,3.6789,3.6136,3.5587,3.5012,3.441,3.4397,3.4397,3.4397,3.4397,3.4397,3.4397,3.4397,3.4397,1.5097,1.5487,0.0,1.6358,1.7907,1.9482,1.9975,2.0408,2.0768,2.0882,2.1691,2.2311,0.0,0.0,0.0,0.0,0.0,0.0,0.0,0.0,0.0,0.0,0.0,0.0,0.0,0.0,0.0,0.0,0.0,0.0,0.0,0.0,0.0,0.0,0.0,2.749,2.749,2.749,2.749,0.0,2.749,2.7572,2.7715,2.8438,2.9013,2.9497,3.0053,3.0302,3.0328,3.079,3.1005,3.1005,3.1005,3.1005,3.1057,3.1464,3.1693,3.1863,3.2326,3.2594,3.2685,3.2685,3.2777,3.2881,3.2881,3.33,3.3757,3.3757,3.4071,3.4397,3.4397,3.4397,3.4397,3.4397,3.4397,3.4397,3.4397,3.4502,3.4894,3.59,3.6214,3.6645,3.7717,3.79,3.79,3.79,3.79,3.79,3.79,3.79,3.79,3.79,3.7782,3.7704,3.7704,3.7704,3.7704,3.7704,3.7704,3.722,3.6149,3.5587,3.5012,3.441,3.4397,3.4397,3.4397,3.4397,3.4397,3.4397,3.4397,3.4397,1.5097,1.5487,1.6129,1.708,0.0,1.9757,2.001,2.0251,2.0396,2.0396,2.1043,0.0,0.0,0.0,0.0,0.0,0.0,0.0,0.0,0.0,0.0,0.0,0.0,0.0,0.0,0.0,0.0,0.0,0.0,0.0,0.0,0.0,0.0,0.0,2.749,2.749,2.749,2.749,2.749,2.749,2.749,2.749,2.7516,2.8111,2.873,2.9318,2.9601,2.9732,2.9753,3.0328,3.0581,3.0607,3.0882,3.1005,3.1031,3.1313,3.1412,3.1451,3.1771,3.1894,3.1894,3.1894,3.2058,3.2313,3.2607,3.3117,3.3639,3.3901,3.4175,3.4397,3.4397,3.4397,3.4397,3.4397,3.4397,3.4397,3.4397,3.4397,3.4737,3.5874,3.6109,3.6488,3.7691,3.79,3.79,3.79,3.79,3.79,3.79,3.79,3.79,3.79,3.79,3.79,3.79,3.79,3.79,3.79,3.79,3.7364,3.6162,3.5835,3.5273,3.441,3.4397,3.4397,3.4397,3.4397,3.4397,3.4397,3.4397,3.4397,1.5097,1.5487,1.6232,1.763,1.871,0.0,1.9528,1.9861,2.019,2.0362,2.0396,0.0,0.0,0.0,0.0,0.0,0.0,0.0,0.0,0.0,0.0,0.0,0.0,0.0,0.0,0.0,0.0,0.0,0.0,0.0,0.0,0.0,2.749,2.749,2.749,2.749,2.749,2.749,2.749,2.749,2.749,2.749,2.7516,2.802,2.8521,2.9004,2.9096,2.9135,2.9188,2.9727,3.0009,3.014,3.066,3.0914,3.1005,3.1005,3.1005,3.1005,3.1005,3.1005,3.1005,3.1005,3.1313,3.1777,3.2372,3.296,3.3548,3.411,3.4332,3.4397,3.4397,3.4397,3.4397,3.4397,3.4397,3.4397,3.4397,3.4397,3.4737,3.5874,3.6279,3.6737,3.773,3.79,3.79,3.79,3.79,3.79,3.79,3.79,3.79,3.79,3.79,3.79,3.79,3.79,3.79,3.79,3.79,3.7364,3.6162,3.6109,3.5613,3.458,3.445,3.445,3.4554,3.445,3.4397,3.4397,3.4397,3.4397,1.5097,1.5487,1.6164,0.0,1.7907,1.8432,0.0,0.0,1.9344,0.0,0.0,0.0,0.0,0.0,0.0,0.0,0.0,0.0,0.0,0.0,0.0,0.0,0.0,0.0,0.0,0.0,0.0,0.0,0.0,0.0,0.0,2.7417,2.749,2.749,2.749,2.749,2.749,2.749,2.749,2.749,2.749,2.749,2.749,2.7585,2.7663,2.7768,2.8281,2.8521,2.8573,2.9161,2.9693,3.0113,3.0179,3.0537,3.1005,3.1005,3.1005,3.1005,3.1005,3.1005,3.1005,3.1005,3.1057,3.1209,3.1764,3.2339,3.2934,3.3535,3.4031,3.4397,3.4397,3.4397,3.4397,3.4397,3.4397,3.4397,3.4397,3.4397,3.4737,3.5874,3.6946,3.7717,3.7874,3.79,3.79,3.79,3.79,3.79,3.79,3.79,3.79,3.79,3.79,3.79,3.79,3.79,3.79,3.79,3.79,3.7364,3.6162,3.6109,3.5809,3.5195,3.4672,3.4659,3.5182,3.4646,3.4397,3.4397,3.4397,3.4397,1.5097,1.5487,1.6016,0.0,1.714,1.7771,1.8014,1.8265,1.8756,1.9792,0.0,0.0,0.0,0.0,0.0,0.0,0.0,0.0,0.0,0.0,0.0,0.0,0.0,0.0,0.0,0.0,0.0,0.0,0.0,2.5622,2.6987,2.7054,2.7046,2.7036,2.7337,2.749,2.749,2.749,2.749,2.749,2.749,2.749,2.749,2.749,2.749,2.7503,2.7781,2.7902,2.7968,2.8913,2.9449,2.9719,3.0341,3.0764,3.1005,3.1005,3.1005,3.1005,3.1005,3.1005,3.1005,3.1005,3.1005,3.1091,3.1628,3.2222,3.2836,3.3417,3.3979,3.4397,3.4397,3.4397,3.4397,3.4397,3.4397,3.4397,3.4397,3.4397,3.4737,3.5874,3.6802,3.7508,3.7848,3.79,3.79,3.79,3.79,3.79,3.79,3.79,3.79,3.79,3.79,3.79,3.79,3.79,3.79,3.79,3.79,3.7364,3.6162,3.6423,3.6332,3.5757,3.4855,3.4698,3.5299,3.4685,3.4397,3.4397,3.4397,3.4397,0.0,0.0,1.5728,1.5866,1.6463,1.7085,0.0,0.0,1.8263,0.0,0.0,0.0,0.0,0.0,0.0,0.0,0.0,0.0,0.0,0.0,0.0,0.0,0.0,0.0,0.0,0.0,0.0,0.0,0.0,2.5384,2.6638,2.6841,2.6894,2.6896,2.7284,2.749,2.749,2.749,2.749,2.749,2.749,2.749,2.749,2.749,2.749,2.749,2.749,2.7598,2.7794,2.8704,2.924,2.9588,3.0438,3.0856,3.1005,3.1005,3.1005,3.1005,3.1005,3.1005,3.1005,3.1005,3.1005,3.1091,3.1628,3.2117,3.2633,3.3378,3.3875,3.4228,3.4358,3.4397,3.4397,3.4397,3.4397,3.4397,3.4397,3.4515,3.492,3.5913,3.6462,3.6972,3.7573,3.7547,3.7495,3.7652,3.7678,3.773,3.7887,3.79,3.79,3.79,3.79,3.79,3.79,3.79,3.79,3.79,3.79,3.7429,3.6371,3.6763,3.6789,3.6345,3.5338,3.5051,3.5495,3.4763,3.4397,3.4397,3.4397,3.4397,0.0,1.5119,0.0,1.5762,1.5947,1.6223,0.0,0.0,0.0,0.0,0.0,0.0,0.0,0.0,0.0,0.0,0.0,0.0,0.0,0.0,0.0,0.0,0.0,0.0,0.0,0.0,0.0,0.0,0.0,0.0,2.6615,2.719,2.746,2.7451,2.7493,2.749,2.749,2.749,2.749,2.749,2.749,2.749,2.749,2.749,2.749,2.749,2.749,2.782,2.8364,2.8416,2.9078,3.0061,3.0113,3.0497,3.1005,3.1005,3.1005,3.1005,3.1005,3.1005,3.1005,3.1005,3.1005,3.1091,3.1628,3.1823,3.2084,3.3273,3.3613,3.3757,3.4267,3.4397,3.4397,3.4397,3.4397,3.4397,3.4397,3.4842,3.5417,3.5992,3.6136,3.6345,3.6946,3.6567,3.6397,3.6972,3.705,3.726,3.7835,3.79,3.79,3.79,3.79,3.79,3.79,3.79,3.79,3.79,3.79,3.7625,3.6985,3.6985,3.6985,3.6959,3.6332,3.6031,3.6057,3.4946,3.4397,3.4397,3.4397,3.4397,0.0,0.0,0.0,1.5762,1.5636,1.5647,1.6669,1.6899,0.0,0.0,0.0,0.0,0.0,0.0,0.0,0.0,0.0,0.0,0.0,0.0,0.0,0.0,0.0,0.0,0.0,0.0,0.0,0.0,0.0,0.0,2.5602,2.6143,2.66,2.6958,2.7324,2.749,2.749,2.749,2.749,2.749,2.749,2.749,2.749,2.749,2.749,2.749,2.749,2.7624,2.7872,2.8664,2.9227,2.9653,3.0398,3.0803,3.1005,3.1005,3.1005,3.1005,3.1005,3.1005,3.1005,3.1005,3.1005,3.1044,3.1235,3.181,3.2476,3.2894,3.3548,3.4162,3.4345,3.4397,3.4397,3.4397,3.4397,3.4397,3.4397,3.4567,3.4894,3.5469,3.5587,3.5757,3.6332,3.624,3.6305,3.692,3.6998,3.722,3.7821,3.79,3.79,3.79,3.79,3.79,3.79,3.79,3.79,3.79,3.79,3.7639,3.7024,3.7377,3.7403,3.7011,3.6789,3.6488,3.6109,3.5338,3.4776,3.4397,3.4397,3.4397,1.5097,0.0,0.0,0.0,1.5498,1.5544,1.6209,0.0,0.0,0.0,0.0,0.0,0.0,0.0,0.0,0.0,0.0,0.0,0.0,0.0,0.0,0.0,0.0,0.0,0.0,0.0,0.0,0.0,0.0,0.0,2.5052,2.5914,2.6541,2.6961,2.7311,2.749,2.749,2.749,2.749,2.749,2.749,2.749,2.749,2.749,2.749,2.749,2.749,2.7611,2.7872,2.89,2.941,2.9653,3.0639,3.1005,3.1005,3.1005,3.1005,3.1005,3.1005,3.1005,3.1005,3.1005,3.1005,3.1005,3.1005,3.1541,3.2221,3.2581,3.3247,3.3955,3.4479,3.4626,3.4585,3.4439,3.4397,3.4397,3.4397,3.4397,3.458,3.5182,3.5142,3.5168,3.5744,3.5835,3.6031,3.6619,3.6881,3.722,3.7821,3.79,3.79,3.79,3.79,3.79,3.79,3.79,3.79,3.79,3.79,3.773,3.7325,3.7691,3.7717,3.7312,3.7312,3.7011,3.6397,3.5652,3.4986,3.4397,3.4607,3.4789,0.0,0.0,0.0,0.0,0.0,0.0,1.5911,0.0,0.0,0.0,0.0,0.0,0.0,0.0,0.0,0.0,0.0,0.0,0.0,0.0,0.0,0.0,0.0,0.0,0.0,0.0,0.0,0.0,0.0,2.4564,2.4998,2.6559,2.7477,2.749,2.749,2.749,2.749,2.749,2.749,2.749,2.749,2.749,2.749,2.749,2.749,2.749,2.749,2.782,2.8416,2.9044,2.9601,3.0127,3.0764,3.1005,3.1005,3.1005,3.1005,3.1005,3.1005,3.1005,3.1005,3.1005,3.1005,3.1005,3.1005,3.1018,3.1267,3.2372,3.2731,3.3126,3.4698,3.5106,3.497,3.4501,3.4397,3.4397,3.4397,3.4397,3.4567,3.5155,3.4803,3.458,3.5168,3.5286,3.5482,3.6018,3.6619,3.722,3.7821,3.79,3.79,3.79,3.79,3.79,3.79,3.79,3.79,3.79,3.79,3.79,3.79,3.79,3.79,3.79,3.79,3.7599,3.6998,3.5887,3.5038,3.4463,3.5051,3.56,1.5097,0.0,0.0,0.0,0.0,0.0,0.0,0.0,0.0,0.0,0.0,0.0,0.0,0.0,0.0,0.0,0.0,0.0,0.0,0.0,0.0,0.0,0.0,0.0,0.0,0.0,0.0,0.0,2.2592,2.3446,2.2889,2.5061,2.6699,2.7477,2.749,2.749,2.749,2.749,2.749,2.749,2.749,2.749,2.749,2.749,2.749,2.749,2.749,2.7598,2.782,2.8874,2.9397,2.9614,3.0613,3.1005,3.1005,3.1005,3.1005,3.1005,3.1005,3.1005,3.1005,3.1005,3.1005,3.1005,3.1005,3.1274,3.1738,3.2489,3.3218,3.4,3.4865,3.5106,3.497,3.4501,3.4397,3.4397,3.4397,3.4397,3.445,3.462,3.4515,3.445,3.462,3.5012,3.5482,3.6018,3.6619,3.722,3.7821,3.79,3.79,3.79,3.79,3.79,3.79,3.79,3.79,3.79,3.79,3.79,3.79,3.79,3.79,3.79,3.79,3.7599,3.6998,3.6684,3.6227,3.5639,3.5796,3.5966,0.0,0.0,0.0,0.0,0.0,0.0,1.6518,1.6919,0.0,0.0,0.0,0.0,0.0,0.0,0.0,0.0,0.0,0.0,0.0,0.0,0.0,0.0,0.0,0.0,0.0,0.0,0.0,0.0,2.2417,2.347,2.357,2.4832,2.6054,2.7141,2.717,2.7271,2.749,2.749,2.749,2.749,2.749,2.749,2.749,2.749,2.749,2.749,2.749,2.749,2.7581,2.8791,2.9292,2.941,3.0547,3.1005,3.1005,3.1005,3.1005,3.1005,3.1005,3.1005,3.1005,3.1005,3.1005,3.1005,3.1005,3.1222,3.1672,3.2666,3.3993,3.5123,3.5094,3.5216,3.5195,3.4543,3.4397,3.4397,3.4397,3.4397,3.4397,3.4397,3.4607,3.4776,3.4776,3.5456,3.6123,3.6436,3.6998,3.7508,3.7861,3.79,3.79,3.79,3.79,3.79,3.79,3.79,3.79,3.79,3.79,3.79,3.79,3.79,3.79,3.79,3.79,3.773,3.7377,3.7129,3.6828,3.6488,3.6488,3.6619,0.0,0.0,0.0,0.0,0.0,0.0,1.6783,1.7378,1.7917,0.0,0.0,0.0,0.0,0.0,0.0,0.0,0.0,0.0,0.0,0.0,0.0,0.0,0.0,0.0,0.0,2.1191,2.1157,2.1109,2.2388,2.391,2.5628,2.5211,2.5442,2.6556,2.6598,2.6857,2.7415,2.7415,2.7438,2.749,2.749,2.749,2.749,2.749,2.749,2.749,2.749,2.7529,2.7689,2.8834,2.9292,2.941,3.0547,3.1005,3.1005,3.1005,3.1005,3.1005,3.1005,3.1005,3.1005,3.1005,3.1005,3.1005,3.1005,3.1005,3.1335,3.2929,3.4801,3.6152,3.5433,3.548,3.5487,3.4667,3.4439,3.4397,3.4397,3.4397,3.441,3.4489,3.4933,3.5312,3.5378,3.6279,3.6998,3.6998,3.7521,3.79,3.79,3.7848,3.7835,3.79,3.7848,3.7835,3.79,3.79,3.79,3.79,3.79,3.79,3.79,3.79,3.79,3.79,3.79,3.79,3.79,3.7364,3.7103,3.7103,3.7103,3.739,0.0,0.0,0.0,0.0,0.0,0.0,1.7176,1.7394,1.7611,0.0,0.0,0.0,0.0,0.0,0.0,0.0,0.0,0.0,0.0,0.0,0.0,0.0,0.0,0.0,0.0,2.109,2.0906,2.058,2.0827,2.2238,2.5087,2.4324,2.4479,2.5921,2.5978,2.6269,2.6847,2.686,2.7079,2.749,2.749,2.749,2.749,2.749,2.749,2.749,2.749,2.7781,2.8285,2.9004,2.9292,2.941,3.0547,3.1005,3.1005,3.1005,3.1005,3.1005,3.1005,3.1005,3.1005,3.1005,3.1005,3.1005,3.1005,3.1005,3.141,3.3307,3.482,3.5884,3.6092,3.5918,3.5582,3.5072,3.4667,3.4397,3.4397,3.4397,3.4541,3.5025,3.5221,3.543,3.5874,3.6541,3.6998,3.6998,3.7521,3.79,3.79,3.7482,3.7364,3.7848,3.7469,3.7377,3.7861,3.79,3.79,3.79,3.79,3.79,3.79,3.79,3.79,3.79,3.79,3.79,3.79,3.7782,3.773,3.773,3.773,3.7795,0.0,0.0,0.0,1.7002,0.0,0.0,0.0,1.7746,1.7815,1.804,0.0,0.0,0.0,0.0,0.0,0.0,0.0,0.0,0.0,0.0,0.0,0.0,0.0,0.0,0.0,2.0734,2.0841,2.1132,2.0688,2.1519,2.4102,2.3492,2.3778,2.5349,2.5393,2.5827,2.6693,2.6706,2.6961,2.749,2.749,2.749,2.749,2.749,2.749,2.749,2.749,2.7833,2.8442,2.9044,2.9462,2.9797,3.0665,3.1005,3.1005,3.1005,3.1005,3.1005,3.1005,3.1005,3.1005,3.1005,3.1005,3.1005,3.1005,3.1549,3.2468,3.4006,3.5223,3.6058,3.6058,3.5884,3.5528,3.4908,3.4564,3.4397,3.4397,3.4397,3.458,3.5182,3.5521,3.5874,3.6449,3.705,3.7456,3.7456,3.7456,3.756,3.7861,3.7116,3.6907,3.7808,3.7364,3.7246,3.7848,3.79,3.79,3.79,3.79,3.79,3.79,3.79,3.79,3.79,3.79,3.79,3.79,3.79,3.79,3.79,3.79,3.79,0.0,0.0,0.0,0.0,0.0,1.8098,0.0,0.0,0.0,1.8098,0.0,0.0,0.0,0.0,0.0,0.0,0.0,0.0,0.0,0.0,0.0,0.0,0.0,0.0,0.0,2.0734,2.1074,2.1568,2.1156,2.1568,2.3155,2.2844,2.3286,2.4779,2.4835,2.5369,2.652,2.6533,2.6844,2.749,2.749,2.749,2.749,2.749,2.749,2.749,2.749,2.7833,2.8442,2.9044,2.9627,3.0153,3.0764,3.1005,3.1005,3.1005,3.1005,3.1005,3.1005,3.1005,3.1005,3.1005,3.1005,3.1005,3.1005,3.2077,3.3491,3.4457,3.5517,3.6312,3.5924,3.5764,3.5507,3.4729,3.446,3.4397,3.4397,3.4397,3.458,3.5182,3.573,3.6292,3.6894,3.7403,3.773,3.773,3.722,3.705,3.7652,3.6776,3.6567,3.7782,3.7364,3.7246,3.7848,3.79,3.79,3.79,3.79,3.79,3.79,3.79,3.79,3.79,3.79,3.79,3.79,3.79,3.79,3.79,3.79,3.79,0.0,0.0,0.0,0.0,1.8063,0.0,0.0,0.0,1.8098,1.8098,0.0,0.0,0.0,0.0,0.0,0.0,0.0,0.0,0.0,0.0,0.0,0.0,0.0,0.0,0.0,0.0,2.1977,2.0669,2.1796,2.2582,2.2689,2.2634,2.3095,2.416,2.4202,2.4751,2.5887,2.59,2.6449,2.749,2.749,2.749,2.749,2.749,2.749,2.749,2.749,2.7833,2.8442,2.9044,2.9627,3.0153,3.0764,3.1005,3.1005,3.1005,3.1005,3.1005,3.1005,3.1005,3.1005,3.1005,3.1005,3.1005,3.1005,3.2077,3.3411,3.395,3.5202,3.6385,3.6331,3.6018,3.5602,3.5134,3.4688,3.4397,3.4397,3.4397,3.458,3.5182,3.573,3.6292,3.6894,3.7063,3.7103,3.7103,3.6593,3.6423,3.7024,3.6515,3.6567,3.7782,3.7364,3.7246,3.7848,3.79,3.79,3.79,3.79,3.79,3.79,3.79,3.79,3.79,3.79,3.79,3.79,3.79,3.79,3.79,3.79,3.79,0.0,0.0,0.0,0.0,0.0,0.0,1.8098,0.0,1.8098,0.0,0.0,0.0,0.0,0.0,0.0,0.0,0.0,0.0,0.0,0.0,0.0,0.0,0.0,0.0,0.0,0.0,0.0,0.0,0.0,2.208,2.2558,2.2592,2.3055,2.4068,2.4098,2.4646,2.578,2.5809,2.6367,2.749,2.749,2.749,2.749,2.749,2.749,2.749,2.749,2.7833,2.8442,2.9044,2.9627,3.0153,3.0764,3.1005,3.1005,3.1005,3.1005,3.1005,3.1005,3.1005,3.1043,3.1272,3.1347,3.1479,3.2129,3.2793,3.3545,3.4675,3.5675,3.6405,3.6405,3.6058,3.5602,3.5195,3.4743,3.4397,3.4397,3.4397,3.4463,3.4724,3.5247,3.5717,3.5966,3.6854,3.7286,3.6593,3.6266,3.6319,3.692,3.6201,3.6227,3.7743,3.7364,3.7246,3.7848,3.79,3.79,3.79,3.79,3.79,3.79,3.79,3.79,3.79,3.79,3.79,3.79,3.79,3.79,3.79,3.79,3.79,1.8288,0.0,0.0,0.0,0.0,0.0,0.0,0.0,0.0,0.0,0.0,0.0,0.0,0.0,0.0,0.0,0.0,0.0,0.0,0.0,0.0,0.0,0.0,0.0,0.0,0.0,0.0,0.0,2.1101,0.0,2.238,2.2411,2.2919,2.4054,2.4109,2.4667,2.578,2.5952,2.654,2.749,2.749,2.749,2.749,2.749,2.749,2.749,2.749,2.7755,2.8203,2.8978,2.9523,2.9949,3.0699,3.1005,3.1005,3.1005,3.1005,3.1005,3.1005,3.1005,3.108,3.1463,3.1593,3.1753,3.2576,3.3138,3.3708,3.4898,3.5798,3.6405,3.6405,3.6152,3.5764,3.5229,3.4846,3.4556,3.4418,3.4397,3.4397,3.4397,3.4881,3.5247,3.5077,3.624,3.6946,3.6214,3.5979,3.6162,3.6907,3.6279,3.6305,3.7756,3.7364,3.7246,3.7848,3.7756,3.773,3.79,3.79,3.79,3.79,3.79,3.79,3.79,3.79,3.79,3.79,3.79,3.79,3.79,3.79,3.79,0.0,0.0,0.0,1.8098,0.0,0.0,0.0,0.0,1.8249,0.0,0.0,0.0,0.0,0.0,0.0,0.0,0.0,0.0,0.0,0.0,0.0,0.0,0.0,0.0,0.0,0.0,0.0,1.9871,2.16,0.0,2.1947,2.191,2.2586,2.4054,2.4158,2.4707,2.5793,2.6389,2.6948,2.749,2.749,2.749,2.749,2.749,2.749,2.749,2.749,2.7503,2.7607,2.8804,2.9305,2.9436,3.0561,3.1005,3.1005,3.1005,3.1005,3.1005,3.1005,3.1005,3.108,3.1463,3.1593,3.1606,3.1633,3.2697,3.3919,3.4025,3.5188,3.6405,3.6405,3.6385,3.6152,3.5297,3.5086,3.4949,3.4501,3.4397,3.4397,3.4397,3.4881,3.5103,3.4528,3.4959,3.5547,3.6031,3.5652,3.573,3.6867,3.6972,3.7194,3.7835,3.7364,3.7246,3.7848,3.7364,3.7286,3.7861,3.79,3.79,3.79,3.79,3.79,3.79,3.79,3.79,3.79,3.79,3.79,3.79,3.79,3.79,0.0,0.0,1.9157,1.9157,0.0,0.0,0.0,0.0,0.0,0.0,0.0,0.0,0.0,0.0,0.0,0.0,0.0,0.0,0.0,0.0,0.0,0.0,0.0,0.0,0.0,0.0,0.0,1.9787,2.097,2.1788,0.0,2.191,2.2583,2.4054,2.4169,2.4717,2.5793,2.6402,2.6961,2.749,2.749,2.749,2.749,2.749,2.749,2.749,2.749,2.7729,2.815,2.8965,2.9497,2.9897,3.0686,3.1005,3.1005,3.1005,3.1005,3.1005,3.1005,3.1328,3.1758,3.1891,3.211,3.2341,3.2492,3.3173,3.4006,3.4465,3.5462,3.6451,3.6733,3.6609,3.6325,3.6032,3.5514,3.5065,3.4908,3.4605,3.4397,3.4397,3.4554,3.4633,3.4437,3.4894,3.5365,3.5534,3.6057,3.6567,3.6946,3.6998,3.7233,3.7848,3.773,3.7678,3.7887,3.7717,3.7691,3.79,3.79,3.79,3.79,3.79,3.79,3.79,3.79,3.79,3.79,3.79,3.79,3.79,3.79,3.79,2.0003,1.9927,0.0,0.0,1.945,0.0,1.9172,0.0,0.0,0.0,0.0,0.0,0.0,0.0,0.0,0.0,0.0,0.0,0.0,0.0,0.0,0.0,0.0,0.0,0.0,0.0,2.04,1.9746,2.0638,2.1397,0.0,0.0,2.25,2.4368,2.4323,2.4868,2.6109,2.6687,2.7157,2.749,2.749,2.749,2.749,2.749,2.749,2.7503,2.7729,2.8033,2.8455,2.9248,2.9779,3.0153,3.0764,3.1005,3.1005,3.1005,3.1005,3.1024,3.1161,3.1519,3.1964,3.2237,3.2489,3.276,3.311,3.3637,3.4211,3.4665,3.5566,3.6435,3.6629,3.6663,3.6589,3.6431,3.5838,3.5277,3.5127,3.4743,3.4397,3.4397,3.4397,3.4397,3.4397,3.4894,3.5299,3.5299,3.6083,3.6763,3.6972,3.6998,3.7233,3.7848,3.7717,3.7586,3.7586,3.7782,3.79,3.79,3.79,3.79,3.79,3.79,3.7991,3.8187,3.8004,3.8004,3.8187,3.7991,3.79,3.79,3.79,3.79]}]]